GFSSE_prec_cloud_003.txt.gz
Cloud_Cover
99 58 5 25 41 100 100 59 100 100 100 94 41 100 100 100 92 99 100 70 99 40 12 5 5 0 0 1 100 100 100 90 60 100 100 100 99 44 5 52 5 59 72
44 51 72 100 99 99 100 100 100 77 82 38 100 43 8 46 22 5 100 100 100 98 18 12 35 59 1 2 3 55 100 90 100 93 99 91 100 100 64 3 99 12 93
81 90 58 100 100 100 100 100 100 100 99 100 5 0 3 97 100 10 42 87 73 46 51 33 4 13 21 40 5 5 94 100 83 99 100 100 100 100 100 100 100 98 81
100 100 100 100 100 100 100 100 5 38 79 11 0 0 0 3 63 59 70 0 4 22 43 5 47 7 12 14 9 28 23 96 100 100 100 100 100 100 100 100 100 100 100
100 100 100 100 100 100 100 21 0 0 0 0 10 23 15 5 5 6 1 2 0 1 0 4 4 6 43 29 6 34 98 100 100 100 100 100 100 100 99 100 94 67 100
100 100 100 100 100 4 0 0 0 0 6 1 0 4 7 19 39 13 0 0 0 6 16 2 0 0 1 4 0 0 89 100 100 100 100 100 100 100 100 42 87 90 86
100 100 100 88 53 0 0 0 0 0 0 0 0 0 1 15 0 0 0 0 3 8 16 12 0 0 0 0 0 0 0 85 100 100 100 100 100 100 98 100 60 18 94
100 100 92 16 0 0 0 0 0 0 0 0 0 10 33 32 39 32 28 1 0 0 0 0 0 18 24 15 1 0 0 45 99 100 100 78 100 100 100 100 100 100 100
54 19 4 0 0 0 0 0 0 0 0 0 0 0 5 33 19 0 0 0 0 0 0 0 0 0 0 0 0 1 4 0 92 100 100 100 100 100 100 100 100 100 100
0 0 0 0 0 0 0 0 0 0 0 0 0 0 0 0 0 0 0 0 0 0 0 0 0 0 0 0 0 0 0 0 8 100 100 100 100 98 100 100 100 100 100
0 0 0 0 0 0 0 0 0 0 0 3 0 0 0 0 0 0 0 0 0 1 0 0 0 0 0 0 0 0 0 0 0 76 100 100 100 100 100 100 100 100 100
0 0 0 0 0 0 0 0 2 5 5 5 5 5 5 4 2 0 1 0 0 0 0 0 0 0 0 0 0 0 0 0 0 9 44 100 100 100 100 100 100 100 100
0 0 0 0 0 0 0 0 0 0 0 0 21 20 2 1 1 4 5 5 5 5 0 5 0 0 0 4 1 0 0 0 0 0 28 28 100 100 100 100 97 100 100
0 0 0 0 0 0 0 0 0 0 0 0 0 0 4 2 0 0 1 5 5 15 10 0 3 4 2 0 4 0 4 0 0 0 0 5 6 98 100 100 100 87 98
0 0 0 0 0 0 3 3 4 0 0 0 0 0 0 0 0 0 0 0 0 12 4 14 0 3 4 4 4 3 4 2 0 0 0 0 0 4 76 100 100 80 24
1 0 5 5 5 3 5 5 0 0 0 0 0 0 0 0 4 4 0 0 0 0 7 2 0 0 0 0 0 1 4 5 5 2 1 0 0 0 8 96 78 100 95
3 5 5 44 33 55 83 100 100 80 5 10 5 5 3 0 0 0 0 0 0 0 11 0 0 0 0 0 0 0 1 5 4 5 2 5 0 0 0 0 90 95 100
0 4 9 28 70 73 64 45 5 5 5 5 5 5 0 0 0 0 0 0 0 5 5 5 4 5 5 1 0 0 0 0 0 2 4 5 5 0 0 0 0 54 100
5 8 14 5 5 5 7 5 5 5 5 2 0 0 4 28 62 50 4 2 1 1 2 2 0 0 0 0 0 0 0 0 0 4 0 0 4 5 1 0 0 0 12
2 5 5 5 5 5 5 5 5 5 3 4 4 5 4 0 3 4 1 0 0 0 1 1 4 5 5 1 0 0 0 0 0 2 2 0 0 2 5 5 1 0 0
4 0 0 5 5 5 5 5 5 5 5 5 0 0 0 0 0 0 0 12 65 16 5 5 1 5 2 0 0 0 0 0 0 0 0 0 0 0 0 4 5 5 0
5 5 5 5 5 30 47 13 5 3 4 1 8 81 67 52 11 26 42 7 5 2 1 2 2 0 5 5 5 5 0 1 0 0 0 0 0 0 0 0 0 5 5
5 5 5 5 5 5 5 4 5 5 26 81 46 8 5 5 27 17 5 2 0 0 0 0 0 0 2 5 5 15 8 5 2 3 4 2 0 0 0 0 0 1 5
5 5 5 5 5 5 50 65 37 58 42 6 5 10 10 5 5 5 5 5 1 0 0 0 0 0 5 13 25 96 7 33 41 28 97 64 50 32 4 0 0 4 4
5 5 7 42 81 88 76 47 5 5 5 5 5 5 5 0 0 1 0 0 0 4 2 0 2 5 4 84 97 100 53 5 13 62 100 100 100 100 90 7 5 5 5
33 61 78 100 99 79 23 5 5 5 5 5 5 5 5 5 5 5 1 5 5 5 5 4 17 23 36 6 21 28 100 96 55 40 74 3 78 100 100 100 82 9 5

GFSSE_prec_cloud_006.txt.gz
Cloud_Cover
4 36 9 5 5 5 5 16 94 100 100 100 100 76 100 61 5 4 48 100 100 16 3 26 73 91 27 83 57 56 6 2 100 100 95 92 85 98 28 0 65 23 94
10 62 16 30 4 5 100 100 100 74 54 100 100 100 100 16 0 0 0 37 28 81 6 37 96 48 78 0 7 7 100 5 100 65 80 93 78 43 84 100 62 28 45
9 5 50 100 100 100 100 100 100 100 100 100 100 6 0 7 3 0 0 0 4 100 80 22 5 16 4 4 0 89 84 100 5 10 71 42 96 100 92 100 5 54 48
27 35 100 100 100 100 100 100 100 100 100 69 0 0 0 4 13 13 0 4 7 1 0 5 21 24 2 0 4 5 74 75 100 99 100 37 97 100 100 59 10 82 54
75 100 100 100 100 100 100 97 80 2 5 0 0 1 1 16 0 0 0 0 0 0 2 3 6 2 0 0 4 1 20 28 100 100 96 99 100 80 100 100 46 100 66
100 100 100 100 100 98 5 4 0 0 0 0 0 0 14 37 2 0 0 0 0 0 0 0 0 0 0 0 0 0 12 61 18 79 100 100 98 100 86 100 100 100 100
100 100 100 99 85 61 5 5 0 0 0 0 2 16 7 0 0 0 0 0 0 0 0 0 5 16 4 0 0 0 0 45 5 100 100 51 100 100 100 100 100 100 100
100 100 100 100 100 100 2 0 0 0 0 0 0 6 16 2 0 0 0 0 0 0 0 0 0 0 0 0 2 7 0 4 5 98 89 100 100 100 100 100 100 100 100
100 100 100 68 0 0 0 0 0 0 0 0 0 0 1 0 0 0 0 0 0 0 0 0 0 0 0 0 0 0 0 0 19 70 59 100 100 100 100 100 100 100 100
100 98 31 1 0 0 0 2 0 0 0 0 0 0 0 5 0 0 0 0 0 0 0 0 0 0 0 0 0 0 0 0 10 70 64 47 100 100 100 100 100 100 100
29 5 5 2 0 0 0 1 0 0 0 6 0 0 0 0 0 0 0 0 0 0 0 0 0 0 0 0 0 0 0 0 0 1 49 38 100 100 100 100 100 100 100
44 0 0 0 0 0 0 0 0 0 0 0 0 0 0 0 0 6 0 0 0 0 0 0 0 0 0 0 0 0 0 0 0 0 8 49 59 100 89 100 100 100 100
1 0 0 0 0 0 0 0 0 0 0 0 0 0 0 0 0 0 0 0 0 0 0 0 0 0 0 0 0 0 0 0 0 0 0 0 74 100 100 100 100 100 100
1 0 0 0 0 0 0 0 0 0 0 0 0 0 0 0 0 0 0 0 0 0 0 0 0 0 0 0 0 0 0 0 0 0 0 0 0 19 100 100 100 100 100
0 0 0 0 0 0 0 0 0 0 0 0 0 0 0 0 0 0 0 0 0 0 0 0 0 0 0 0 0 0 0 0 0 0 0 0 0 1 28 100 100 100 94
0 0 0 0 0 0 0 0 0 0 0 0 0 0 0 0 0 0 0 0 0 0 0 0 0 0 0 0 0 0 0 0 0 0 0 0 4 0 2 15 86 100 100
0 0 0 0 5 1 2 5 5 5 5 5 0 0 0 0 0 0 0 0 0 0 0 0 0 0 0 0 0 0 0 0 0 0 0 0 0 0 0 4 5 68 100
0 0 0 0 2 0 1 5 5 5 5 5 1 2 5 1 5 4 5 5 5 5 9 5 5 4 2 4 3 0 0 0 0 0 0 0 0 0 0 0 0 5 5
0 0 1 1 0 1 5 5 5 5 5 5 5 5 4 0 5 5 7 21 5 4 5 4 5 4 5 4 5 5 12 4 1 0 0 1 0 0 0 0 0 0 5
0 0 4 5 2 5 5 5 28 5 38 5 5 5 5 4 1 0 0 2 0 0 1 0 1 3 5 5 30 4 2 4 5 5 0 0 0 0 0 0 4 0 0
0 0 5 5 5 5 80 83 75 65 5 5 5 4 5 5 4 3 4 17 12 6 50 17 5 5 5 5 5 22 52 34 2 0 0 0 0 0 0 0 0 4 0
3 5 5 25 80 92 99 94 99 36 5 5 5 5 5 7 9 10 5 51 96 72 65 94 65 26 5 5 4 5 21 62 64 4 0 0 0 0 0 0 0 0 3
5 30 97 100 100 100 87 90 73 62 36 5 5 5 23 80 9 5 5 5 7 39 78 98 57 12 5 7 5 11 5 32 68 96 32 3 0 0 0 0 0 0 0
59 100 100 98 49 12 99 67 73 22 21 37 84 86 60 60 5 5 5 63 53 21 31 40 7 5 5 5 5 60 68 5 41 100 100 51 4 3 0 0 0 0 0
93 60 21 38 79 89 68 73 30 46 85 86 84 8 21 31 2 5 5 5 6 3 1 3 5 5 5 5 5 9 22 99 38 69 100 100 100 28 5 0 0 4 5
28 31 84 87 72 65 83 38 62 35 82 100 63 35 11 5 5 30 48 80 17 5 5 5 5 6 4 42 46 97 94 32 60 100 100 100 100 100 89 11 6 20 51

GFSSE_prec_cloud_009.txt.gz
Cloud_Cover
30 5 5 5 0 4 0 5 78 86 53 16 100 91 100 100 100 74 24 5 3 9 15 46 100 3 0 0 4 55 100 100 77 100 35 100 77 97 72 17 3 9 38
60 42 5 5 0 4 4 11 16 15 100 97 99 63 35 92 4 0 3 1 0 0 0 0 1 92 6 20 0 1 66 39 5 44 100 93 98 96 78 60 6 48 100
66 8 5 2 47 95 100 100 100 100 100 100 100 5 25 13 2 0 0 0 0 0 0 0 1 0 1 0 0 0 0 6 5 6 97 100 21 100 100 100 98 80 23
78 95 70 86 100 14 98 100 100 100 100 100 11 3 9 5 0 0 0 0 0 0 5 18 11 0 0 0 0 0 0 3 4 5 77 100 99 32 100 100 100 20 28
6 19 47 48 100 100 100 100 100 100 100 19 4 8 19 26 0 0 0 0 0 6 16 14 0 0 0 0 0 0 0 0 5 51 6 100 98 89 97 100 100 95 10
86 100 100 100 100 100 100 100 100 37 4 0 0 0 9 0 0 0 0 0 6 12 0 0 1 0 0 0 0 0 0 0 5 5 6 83 80 99 95 100 100 100 95
100 100 100 100 100 100 100 98 46 2 1 0 10 15 11 2 0 0 0 0 0 0 0 0 0 0 0 0 0 0 0 0 2 19 100 58 81 100 100 100 94 100 100
100 100 100 100 100 100 90 48 4 0 0 0 10 17 14 0 0 0 0 0 0 0 0 0 0 0 0 0 0 0 0 1 5 5 28 48 100 38 100 100 100 100 100
100 100 100 100 100 100 7 0 0 0 0 0 0 0 0 0 0 0 0 0 0 0 0 0 0 0 0 0 0 0 0 0 0 91 97 90 100 100 100 100 100 100 100
100 100 100 100 100 6 0 0 0 0 0 0 0 0 0 0 0 0 0 0 0 0 0 0 0 0 0 0 0 0 0 0 0 0 63 99 79 100 100 100 100 100 100
100 100 100 99 45 2 0 3 0 0 0 2 0 0 0 6 0 1 0 0 0 0 0 0 0 0 0 0 0 0 0 0 0 0 62 1 2 99 100 100 100 100 100
100 100 100 98 5 0 0 0 0 0 0 0 3 0 13 5 0 0 0 0 0 0 0 0 0 0 0 0 0 0 0 0 0 0 5 0 0 8 97 100 100 100 100
100 100 8 0 0 0 0 0 0 0 0 0 0 1 0 0 18 27 32 5 3 0 0 0 0 0 0 0 0 0 0 0 0 0 0 0 0 0 6 99 100 100 100
97 90 3 0 0 0 0 0 0 0 0 0 0 0 0 0 0 0 0 0 0 1 0 0 0 0 0 0 0 0 0 0 0 0 0 0 1 3 9 79 100 100 100
71 52 47 0 0 0 0 0 0 0 0 0 0 0 0 0 0 0 0 0 0 0 0 0 0 0 0 0 0 0 0 0 0 0 2 2 1 4 5 34 6 80 100
25 74 52 51 0 0 0 0 0 0 0 0 0 0 0 0 0 0 0 0 0 4 0 0 0 0 0 0 0 0 0 0 0 0 0 0 1 4 2 29 48 74 55
9 87 60 88 1 0 0 0 3 0 4 0 0 3 5 0 4 10 5 8 18 6 6 5 5 5 5 2 0 0 0 0 0 0 0 0 4 0 5 0 13 13 100
42 39 84 55 0 0 0 5 5 5 5 5 5 5 0 2 5 8 42 38 88 100 89 64 48 63 17 4 2 0 0 0 0 1 0 0 0 4 1 2 0 52 11
5 3 16 17 0 2 5 6 5 5 5 5 5 5 5 5 5 56 99 100 100 73 31 5 6 3 1 4 15 5 21 5 5 5 5 5 2 1 4 0 2 1 4
0 0 0 31 2 5 12 62 56 49 5 32 76 57 29 66 33 34 18 7 6 5 5 5 1 5 28 77 89 96 42 37 35 12 53 38 10 4 0 0 2 0 4
0 0 4 18 5 77 78 81 98 67 94 94 51 11 5 5 5 5 5 5 5 1 3 9 66 55 31 6 6 42 38 39 37 22 5 2 1 8 91 8 5 0 0
1 2 4 5 92 100 71 100 99 82 88 74 77 90 72 6 80 5 5 5 9 40 96 22 5 29 28 5 6 14 70 55 100 51 73 90 25 2 5 5 51 8 0
5 20 46 93 100 100 100 71 77 100 77 70 64 5 6 85 86 60 5 31 53 48 35 37 6 5 5 38 60 29 4 5 6 12 26 100 98 48 6 5 5 5 0
96 100 100 100 100 88 80 66 99 100 100 86 96 87 73 100 99 80 18 5 5 14 5 5 5 59 49 50 96 96 7 5 6 7 2 46 100 58 92 74 83 52 3
12 69 97 5 6 26 82 100 100 97 91 100 100 92 100 66 52 30 5 1 12 89 42 70 100 100 100 97 10 6 5 5 22 100 58 24 100 100 100 100 100 100 86
5 6 47 36 96 100 100 85 91 100 89 47 5 5 5 18 15 35 97 100 100 100 100 100 99 99 89 47 56 56 100 86 40 96 73 18 92 97 99 100 100 100 100

GFSSE_prec_cloud_012.txt.gz
Cloud_Cover
5 0 1 5 5 4 5 2 5 5 0 4 5 5 100 91 43 84 25 8 0 1 0 0 0 0 0 10 8 86 2 0 0 75 9 11 75 100 100 100 100 100 98
62 57 48 5 8 5 4 4 0 14 4 5 5 92 100 100 100 85 1 0 0 0 0 0 0 0 0 0 0 2 0 0 0 0 2 3 51 51 100 96 100 100 97
7 11 18 5 5 5 4 5 4 1 30 97 100 100 100 100 21 0 0 0 0 0 0 1 0 0 0 0 0 0 0 0 0 0 1 18 56 98 100 100 30 96 79
100 77 51 14 5 67 80 20 21 64 100 100 97 100 100 9 0 0 0 0 0 0 0 0 0 0 0 0 1 0 0 0 0 0 0 0 48 37 90 4 28 15 100
56 89 77 67 95 100 71 46 93 100 100 100 100 63 98 14 0 0 0 0 5 8 12 6 0 0 0 0 0 0 0 0 0 0 0 0 48 92 82 100 100 100 100
5 54 96 100 100 100 100 100 100 100 100 100 100 93 7 0 0 0 16 15 2 0 0 0 0 0 0 0 0 0 0 0 0 0 0 71 55 100 100 100 100 100 100
11 52 100 100 100 100 100 100 100 100 100 100 92 37 0 0 0 0 0 0 0 0 0 0 0 0 0 0 0 0 0 0 0 0 6 81 100 100 100 100 100 100 85
99 100 100 100 100 100 100 100 100 100 100 54 4 0 0 0 0 0 0 0 0 0 0 0 0 0 0 0 0 0 0 0 0 0 29 100 100 100 100 100 100 100 98
74 100 100 100 100 100 100 100 100 100 100 5 0 0 0 0 0 0 0 0 0 0 0 0 0 0 0 0 0 0 0 0 0 0 29 99 100 100 100 100 100 100 97
100 100 100 100 100 100 100 100 100 98 5 0 0 0 0 0 0 0 0 0 0 0 0 0 0 0 0 0 0 0 0 0 0 0 5 100 99 100 100 100 100 100 100
100 100 100 100 100 100 100 100 97 9 3 0 0 0 22 9 71 38 0 0 0 0 0 0 0 0 0 0 0 0 0 0 0 0 1 1 2 100 100 100 100 100 100
100 100 100 100 100 100 100 99 54 1 0 0 0 0 36 5 42 9 23 0 0 0 0 0 0 0 0 0 0 0 0 0 0 0 0 2 0 10 61 84 100 100 100
100 100 100 100 100 100 96 11 29 0 0 0 0 0 0 0 2 0 2 0 0 0 0 0 0 0 0 0 0 0 0 0 0 0 0 0 0 0 0 62 95 100 100
100 100 100 100 100 5 4 4 0 0 0 0 0 0 0 0 0 0 0 0 0 0 0 0 0 0 0 0 0 0 0 0 0 0 0 0 0 2 5 4 99 100 100
100 100 100 88 29 0 0 0 0 0 0 0 0 0 0 0 0 0 0 0 0 0 0 0 0 0 1 0 0 0 0 3 0 0 0 0 0 0 4 6 5 62 100
100 70 4 0 0 0 0 0 0 0 0 0 0 0 0 0 0 0 0 0 0 0 0 4 3 2 0 0 0 0 0 0 0 0 0 0 0 0 0 1 5 5 49
10 51 29 94 0 0 0 0 0 0 1 0 0 5 5 2 0 5 0 0 2 5 5 5 5 5 4 0 2 0 0 0 0 0 0 0 5 3 0 0 0 5 5
47 74 100 100 26 0 0 3 0 4 5 5 5 5 0 5 5 5 5 5 5 3 11 36 33 5 9 5 4 0 0 0 3 3 2 1 0 3 0 0 0 0 5
11 94 61 26 0 0 5 0 4 0 5 6 53 5 5 5 5 5 5 5 5 5 5 4 6 5 3 0 0 5 5 5 5 5 5 5 12 1 3 0 0 0 0
19 6 39 54 1 66 5 5 5 5 5 53 71 5 5 5 5 5 5 5 27 5 4 0 4 0 2 5 5 5 5 16 7 5 5 4 4 5 1 4 4 0 0
0 0 0 5 75 42 5 5 72 84 100 83 95 34 13 31 65 97 22 10 65 5 5 2 0 1 5 5 5 36 99 98 31 12 5 5 5 5 40 38 4 2 2
0 0 2 11 61 79 23 66 94 100 77 93 70 60 58 5 10 58 58 51 60 85 51 0 5 0 3 3 3 20 48 47 74 65 46 16 23 34 12 19 39 8 5
0 5 76 100 100 100 52 25 87 79 86 77 84 100 94 87 100 96 66 2 0 0 1 3 6 0 23 100 100 100 99 79 73 92 98 100 100 100 100 100 100 95 8
78 100 100 89 66 78 100 29 56 16 87 100 32 10 5 5 20 45 79 81 44 7 5 5 5 5 5 6 32 30 5 5 22 16 84 98 61 29 50 92 100 100 91
54 100 97 58 5 5 5 76 47 43 11 17 17 50 100 100 100 100 86 42 33 41 76 61 91 100 100 81 14 10 5 1 2 5 5 2 2 3 1 100 100 70 100
17 8 72 6 5 5 8 82 94 100 100 100 100 100 100 100 100 100 100 100 100 100 100 100 89 100 79 94 100 100 52 46 100 100 91 16 49 2 0 2 99 78 100

GFSSE_prec_cloud_015.txt.gz
Cloud_Cover
10 5 4 54 5 7 5 100 12 4 0 1 5 0 5 4 3 5 39 93 97 100 33 0 0 8 4 3 0 0 0 0 16 68 5 16 100 100 100 100 100 100 100
40 38 7 7 5 86 88 5 5 5 1 0 0 3 5 44 85 100 100 100 94 2 0 0 0 0 0 0 0 0 0 0 0 5 0 1 89 100 100 100 100 100 100
5 38 56 13 5 5 4 5 5 3 2 1 5 10 100 100 100 100 100 79 0 0 0 0 0 0 0 0 0 0 0 0 0 0 0 0 17 80 100 100 100 100 100
14 24 26 16 32 5 5 4 4 5 2 5 85 59 100 100 100 92 33 5 0 0 0 0 0 0 0 0 0 0 0 0 0 0 0 0 0 1 76 100 100 100 100
19 93 83 6 13 5 5 5 5 5 7 64 100 100 100 100 100 20 2 4 0 0 0 0 0 0 0 0 0 0 0 0 0 0 0 0 0 0 93 100 100 100 99
99 83 18 23 15 5 61 39 50 95 100 100 100 100 100 100 100 5 3 0 0 0 0 0 0 0 0 0 0 0 0 0 0 0 0 0 0 2 26 7 89 90 100
97 89 76 95 77 99 100 94 100 100 100 100 100 100 100 94 5 0 0 0 0 0 0 0 0 0 0 0 0 0 0 0 0 0 2 5 52 100 100 89 100 100 100
98 76 100 100 89 91 100 100 100 100 100 100 100 100 100 100 0 4 0 0 0 0 0 0 0 0 0 0 0 0 0 0 0 0 5 72 100 100 100 100 100 100 100
99 100 100 99 100 100 100 100 100 100 100 100 100 100 100 40 4 0 0 0 0 0 0 0 0 0 0 0 0 0 0 0 0 0 26 100 100 100 100 100 100 100 100
100 100 100 100 100 100 100 100 100 100 100 100 100 100 57 0 0 0 0 0 0 0 0 0 0 0 0 0 0 0 0 0 0 0 10 100 100 100 100 100 100 100 100
100 100 100 100 100 100 100 100 100 100 100 100 85 18 0 0 0 0 0 0 0 0 0 0 0 0 0 0 0 0 0 0 0 0 5 100 100 100 100 100 100 100 100
100 100 100 100 100 100 100 100 100 100 55 0 0 0 0 0 0 0 0 0 0 0 0 0 0 0 0 0 0 0 0 0 0 0 2 80 100 100 100 100 100 100 100
100 100 100 100 100 100 100 100 100 33 0 0 0 0 0 0 0 0 0 0 0 0 0 0 0 0 0 0 0 0 0 0 0 0 0 0 52 100 22 100 100 100 100
100 100 100 100 100 100 100 100 28 4 0 0 0 0 0 0 0 0 0 0 0 0 0 0 0 0 0 0 0 0 0 0 0 0 0 0 0 3 75 100 98 100 100
100 100 100 100 100 100 100 83 3 0 0 0 0 0 0 0 0 0 0 0 0 0 0 0 0 0 0 0 0 0 0 0 0 0 0 0 0 2 3 44 72 100 100
100 100 100 100 100 100 100 81 42 19 2 0 0 0 0 3 5 4 0 0 0 0 0 0 0 0 0 0 0 0 0 0 0 0 0 0 0 0 0 2 11 18 11
100 100 100 100 100 100 100 100 100 100 5 0 0 0 1 5 5 5 5 0 0 0 0 0 0 0 0 0 0 0 0 0 0 0 0 0 0 0 0 0 0 4 6
99 100 98 68 100 100 100 100 98 87 2 0 0 0 0 3 5 4 5 3 0 0 1 1 1 0 0 0 0 2 0 0 1 5 2 5 7 4 0 0 0 0 4
25 2 39 4 11 100 100 98 53 5 5 5 5 5 5 5 4 5 5 5 5 11 5 5 5 5 3 5 5 5 7 5 5 5 5 5 5 3 0 3 0 0 0
4 0 0 0 0 4 5 4 5 5 5 5 5 23 5 5 5 71 86 40 61 24 69 34 3 4 1 4 5 10 93 84 13 5 5 5 45 12 5 5 4 0 0
5 5 4 2 0 7 0 5 63 16 64 29 5 76 83 83 11 78 6 5 5 4 0 0 1 5 5 5 5 5 16 45 6 7 17 5 7 12 6 100 74 55 5
5 6 60 36 60 6 5 5 19 64 9 82 90 76 83 56 37 5 1 0 0 0 2 5 4 4 5 5 5 5 5 5 6 5 5 24 8 27 88 32 88 100 93
0 4 41 100 99 59 5 25 38 10 5 36 85 61 89 92 92 4 4 3 0 0 0 0 4 3 2 4 4 1 17 32 3 92 73 63 98 92 98 99 98 79 72
4 5 5 17 100 81 71 8 5 34 25 62 89 45 50 74 50 34 9 5 5 3 5 5 5 5 5 5 29 61 56 71 100 11 91 100 100 100 100 100 100 100 100
0 0 5 5 5 14 4 31 88 94 95 54 84 100 71 7 52 41 7 40 93 100 100 97 100 98 68 73 100 100 100 100 94 5 5 15 43 25 5 3 3 22 17
0 4 4 2 0 0 3 4 59 97 98 100 100 100 100 100 100 100 99 75 14 5 5 5 5 4 5 37 84 100 100 100 99 100 34 5 37 5 0 0 0 2 8

GFSSE_prec_cloud_018.txt.gz
Cloud_Cover
97 12 5 5 3 4 3 52 18 1 0 0 1 0 1 0 0 0 0 0 9 100 98 3 5 0 0 0 0 0 0 0 0 14 3 4 56 100 100 100 100 100 100
83 56 2 5 5 5 4 5 0 0 0 4 1 3 0 0 0 4 29 88 94 60 74 4 0 0 0 0 0 1 0 0 0 0 0 0 30 100 100 100 100 100 100
90 5 8 14 10 5 5 5 5 0 6 1 1 4 6 4 7 62 37 21 100 100 14 0 0 0 0 0 0 0 1 0 0 0 0 0 0 59 30 100 100 100 100
71 99 97 18 5 5 5 5 6 5 4 9 14 24 8 9 69 13 90 98 100 2 0 0 0 0 0 0 0 0 0 0 0 0 0 0 0 0 0 96 100 100 100
100 100 89 27 25 16 5 49 9 9 13 32 5 36 60 5 11 100 100 93 62 2 0 0 0 0 0 0 0 0 0 0 0 0 0 0 0 0 0 79 100 100 100
99 99 80 99 91 95 8 99 19 28 5 50 93 96 13 100 100 100 100 100 0 0 0 0 0 0 0 0 0 0 0 0 0 0 0 0 0 0 0 87 100 100 100
98 100 90 97 100 79 92 66 7 100 100 98 100 100 100 100 100 70 100 13 3 0 0 0 0 0 0 0 0 0 0 0 0 0 0 0 0 0 0 92 100 100 100
100 100 100 13 91 92 100 100 80 100 100 100 100 100 100 100 100 100 100 96 3 0 0 0 0 0 0 0 0 0 0 0 0 0 0 0 4 0 6 97 100 100 100
100 100 77 97 100 100 69 92 100 100 100 100 100 100 100 100 100 100 100 55 0 0 0 0 0 0 0 0 0 0 0 0 0 0 0 3 87 13 100 100 67 79 100
100 14 19 33 100 99 100 100 100 100 100 100 100 99 100 100 100 100 80 0 0 0 0 0 0 0 0 0 0 0 0 0 0 0 0 0 73 100 100 100 100 100 100
75 99 71 84 100 100 100 100 100 100 100 100 100 100 100 94 74 17 0 0 0 0 0 0 0 0 0 0 0 0 0 0 0 0 0 0 64 100 100 100 100 100 100
100 100 100 100 100 100 100 100 100 100 100 100 100 100 100 75 77 0 0 0 0 0 0 0 0 0 0 0 0 0 0 0 0 0 0 0 5 92 100 100 100 98 97
100 100 100 100 100 100 100 100 100 100 100 100 100 97 13 0 4 4 0 0 0 0 0 0 0 0 0 0 0 0 0 0 0 0 0 0 2 55 77 100 100 100 96
100 100 100 100 100 100 100 100 100 100 100 97 32 9 34 6 5 0 0 0 0 0 0 0 0 0 0 0 0 0 0 0 0 0 0 0 0 1 10 100 100 100 100
100 100 100 100 100 100 100 100 100 100 100 100 100 100 83 20 4 0 0 0 0 0 0 0 0 0 0 0 0 0 0 0 0 0 0 0 0 0 5 53 96 100 65
100 100 100 100 100 100 100 100 100 94 100 100 100 100 87 60 3 0 1 0 0 0 0 0 0 0 0 0 0 0 1 0 0 0 0 0 0 0 0 2 14 72 79
100 100 100 100 100 83 77 92 100 98 88 47 100 83 5 1 5 5 2 4 5 5 4 1 4 4 0 0 1 5 5 5 4 2 0 0 0 0 0 0 0 0 5
82 80 88 63 65 100 6 90 100 100 100 99 87 53 4 5 5 4 1 5 4 5 5 5 5 0 0 0 2 5 5 5 5 5 5 5 1 0 0 0 0 0 0
5 50 12 100 100 96 70 0 72 8 2 56 39 5 5 5 5 5 5 5 6 11 5 4 0 0 0 2 5 5 5 6 18 12 33 53 57 7 33 5 2 0 1
5 13 12 47 100 100 97 5 5 0 62 38 6 5 5 31 93 82 95 81 68 5 2 0 0 0 4 5 5 5 5 9 23 51 77 33 38 66 46 52 17 21 6
5 5 5 56 18 12 74 69 4 4 37 49 6 21 82 100 53 22 59 26 5 5 0 0 0 0 0 1 5 5 68 100 100 96 92 92 94 9 20 46 100 88 15
68 72 1 0 5 61 21 27 22 28 86 98 100 97 78 97 95 18 62 15 5 2 0 0 0 0 0 1 1 0 4 28 30 84 79 32 82 96 98 26 5 27 89
3 0 0 1 0 12 66 99 98 100 100 69 18 42 87 100 79 29 1 4 5 5 1 0 2 4 0 1 3 11 29 14 40 71 46 8 5 5 6 25 5 5 12
0 0 0 5 24 41 14 21 97 99 100 99 95 8 5 5 18 5 5 5 5 5 5 3 0 2 5 28 4 6 68 95 100 70 7 5 5 5 0 0 1 4 5
0 0 0 0 0 1 5 60 67 100 84 49 57 86 100 100 100 100 98 30 5 5 2 0 0 0 5 5 9 5 19 89 74 91 53 50 4 0 0 0 0 0 2
0 0 0 0 1 3 5 54 100 100 100 100 100 100 100 100 96 46 31 15 5 5 2 2 3 24 24 69 64 54 29 30 5 82 81 49 61 35 4 0 0 1 8

GFSSE_prec_cloud_021.txt.gz
Cloud_Cover
42 97 76 50 5 5 2 0 5 5 7 4 0 0 1 0 0 0 0 0 0 0 0 0 2 0 0 0 0 5 4 0 0 0 0 0 29 100 82 100 100 100 100
55 100 100 68 40 4 1 5 5 1 6 6 1 5 0 0 0 0 0 0 1 0 2 5 0 0 1 0 0 0 3 0 0 0 0 0 0 0 8 96 92 100 100
53 12 47 28 5 20 50 8 5 10 88 3 3 2 0 0 0 0 0 6 2 0 5 4 4 12 0 0 0 0 0 0 0 0 0 0 0 0 0 0 99 47 100
76 82 100 96 16 12 5 5 14 6 4 10 8 1 3 0 0 0 3 5 0 4 5 5 19 6 0 0 0 0 0 0 0 0 0 0 0 0 0 0 2 90 100
96 95 100 100 99 79 97 64 5 4 2 8 5 5 4 3 3 5 4 5 23 22 93 4 92 4 3 0 0 0 0 0 0 0 0 0 0 0 0 0 0 0 100
100 100 99 98 100 46 5 12 31 4 82 20 5 5 5 5 58 5 5 5 77 43 100 88 0 0 0 0 0 0 0 0 0 0 0 0 0 0 0 0 0 0 20
100 90 94 98 100 100 100 100 69 55 5 5 5 13 19 6 10 36 5 28 58 100 19 14 0 0 0 0 0 0 0 0 0 0 0 0 0 0 0 0 0 12 4
100 94 100 100 100 100 100 100 90 86 6 23 34 98 100 53 60 5 53 90 90 79 43 1 0 0 0 0 0 0 0 0 0 0 0 0 0 0 53 70 27 100 26
100 100 99 98 100 100 100 100 100 89 96 100 100 72 57 39 83 61 96 23 100 97 25 0 0 0 0 0 0 0 0 0 0 0 0 0 0 0 50 100 32 100 99
90 100 100 100 100 100 92 84 100 100 100 100 95 100 100 100 100 7 40 31 23 76 0 0 0 0 0 0 0 0 0 0 0 0 0 0 0 0 3 100 100 100 100
100 100 100 100 100 100 100 100 100 100 100 100 100 64 100 100 100 100 62 24 4 0 0 0 0 0 0 0 0 0 0 0 0 0 0 0 0 0 0 12 100 95 100
100 100 100 100 100 100 100 100 100 100 100 100 100 100 100 100 100 100 13 2 0 0 0 0 0 0 0 0 0 0 0 0 0 0 0 0 0 0 0 0 57 100 88
100 100 100 100 100 100 100 100 100 100 100 100 100 100 100 100 100 81 6 4 0 3 3 0 0 0 0 0 0 0 0 0 0 0 0 0 0 0 0 0 0 95 100
100 100 100 100 100 100 100 100 100 100 100 100 100 100 100 71 94 52 2 15 5 6 3 0 0 0 0 0 0 0 0 0 0 0 0 0 0 0 0 0 0 4 54
100 100 100 100 100 100 100 100 100 100 100 100 100 100 60 9 76 27 11 16 8 73 1 4 5 4 0 0 0 0 0 0 0 0 0 0 1 1 0 0 0 0 10
100 100 100 100 100 100 100 100 100 100 100 100 100 100 100 100 60 62 38 8 5 3 0 4 2 0 0 0 0 0 0 0 0 0 0 4 5 5 5 2 3 0 4
100 100 100 100 94 100 68 88 36 35 100 100 100 100 100 100 86 1 25 10 2 0 0 0 0 0 0 0 0 0 0 0 0 0 0 0 1 5 5 5 5 0 2
74 8 82 90 100 100 100 100 69 66 82 8 1 1 30 36 13 5 1 5 4 5 5 1 1 0 0 0 0 0 0 0 0 0 0 0 0 2 5 5 5 5 4
24 37 83 100 100 100 100 100 100 27 11 5 5 3 5 5 9 5 5 5 34 9 6 5 4 0 0 0 0 0 0 0 0 1 0 3 2 1 0 3 5 5 4
86 71 100 100 100 100 100 100 99 80 57 58 26 20 86 84 92 97 93 41 5 5 5 5 0 0 0 0 0 4 5 5 5 5 4 5 5 5 5 5 5 4 4
5 100 100 100 100 100 100 97 80 5 43 14 90 100 100 100 100 93 5 5 11 5 5 0 0 0 0 0 0 3 5 5 5 5 5 19 14 5 5 5 5 5 5
99 82 55 32 100 99 78 6 10 76 78 100 97 79 95 91 86 82 35 5 3 0 2 2 0 0 0 0 0 5 5 5 5 5 5 5 7 46 29 5 17 59 100
5 4 3 2 1 3 5 5 23 25 5 5 34 11 5 5 2 1 5 8 20 5 5 5 0 0 0 0 0 2 12 7 5 5 2 2 4 3 5 5 5 60 93
5 5 5 5 5 4 5 44 68 63 12 5 5 5 5 5 19 24 5 100 76 26 5 5 5 0 0 0 1 0 4 5 54 33 8 1 0 0 0 0 0 0 0
86 7 10 5 1 1 5 8 99 100 100 75 29 24 100 99 76 76 100 98 81 67 3 0 0 5 5 6 16 25 6 72 31 98 97 82 42 21 1 5 4 0 3
84 41 35 13 5 7 5 16 63 91 94 100 100 100 100 100 99 79 25 4 2 0 0 2 9 36 4 5 5 7 16 53 63 96 100 100 100 100 94 5 5 5 16

GFSSE_prec_cloud_024.txt.gz
Cloud_Cover
100 100 86 72 82 99 89 5 0 0 0 0 0 0 0 0 3 0 0 1 0 0 0 0 0 0 0 0 0 0 1 0 0 0 0 0 0 0 0 0 2 10 100
63 69 44 100 100 100 20 4 1 2 0 0 0 0 2 6 1 0 0 0 0 0 0 0 0 0 0 0 0 0 0 0 0 0 0 0 0 0 0 0 0 81 44
43 67 92 76 13 5 5 5 5 45 2 2 0 5 3 2 0 0 0 0 0 0 0 0 0 0 0 0 0 0 0 0 0 0 0 0 0 0 0 0 0 3 0
76 100 76 98 100 19 5 6 27 13 5 2 5 10 3 2 5 0 0 0 0 0 0 0 0 0 0 0 0 0 0 0 0 0 0 0 0 0 0 0 0 0 0
100 99 69 81 43 16 5 54 5 65 5 42 6 52 5 5 2 1 4 2 0 0 0 0 0 14 0 0 0 0 0 0 0 0 0 0 0 0 0 0 0 0 0
100 100 100 90 74 79 75 6 58 100 49 8 79 5 58 14 5 5 5 5 5 2 5 5 5 5 4 0 0 0 0 0 0 0 0 0 0 0 0 0 0 0 0
99 100 86 100 95 67 36 93 100 44 100 82 42 100 32 30 33 20 5 12 8 56 5 5 5 3 0 0 0 0 0 0 0 0 0 0 0 0 0 0 1 0 5
100 100 96 85 46 43 100 100 56 99 95 100 100 86 94 11 8 6 15 68 100 5 5 26 10 16 0 0 0 0 0 0 0 0 0 0 0 0 0 0 1 5 0
100 100 100 90 100 100 100 100 100 90 53 75 99 100 94 43 47 96 100 98 32 5 8 18 5 5 0 0 0 0 0 0 0 0 0 0 0 0 0 0 0 1 8
100 100 100 100 100 100 100 95 100 100 100 99 100 63 88 100 100 88 100 100 39 47 67 5 7 0 0 0 0 0 0 0 0 0 0 0 0 0 0 0 0 0 4
100 100 100 100 100 100 100 91 80 100 100 100 100 100 100 100 100 100 95 99 100 81 71 5 1 3 0 0 0 0 0 0 0 0 0 0 0 0 0 0 0 0 0
100 100 100 99 91 100 100 100 100 100 100 100 100 100 100 100 100 100 99 98 45 47 5 5 4 0 0 0 0 0 0 0 0 0 0 0 0 0 0 0 0 0 0
100 95 95 100 100 100 100 100 100 100 100 100 100 100 100 100 100 100 82 34 24 68 1 2 0 0 4 0 0 0 0 0 0 0 0 0 0 0 0 0 0 0 0
100 100 100 98 100 100 100 100 100 100 100 100 100 100 100 100 83 60 33 31 5 5 5 5 5 0 0 0 0 0 0 0 0 0 0 0 0 0 0 0 0 0 0
42 100 100 100 100 100 100 100 100 100 100 100 99 100 78 95 75 43 8 23 91 20 23 12 5 0 0 0 0 0 0 0 0 0 0 0 0 0 0 0 0 0 0
100 100 100 100 100 100 100 100 100 100 93 92 65 51 6 5 5 8 58 56 20 11 5 6 0 0 2 0 0 0 0 0 0 0 0 0 0 0 0 0 0 0 2
100 100 100 100 100 100 100 100 100 100 100 84 91 94 28 72 37 5 5 5 5 5 8 5 5 5 5 4 0 0 0 0 0 0 0 0 0 0 0 0 0 0 0
97 99 100 94 100 100 100 100 100 100 100 72 92 95 21 82 6 5 5 37 20 100 88 26 5 5 5 0 0 0 0 0 0 0 0 0 0 0 0 0 0 0 1
98 95 100 100 100 100 100 100 100 100 100 98 93 100 100 42 66 100 82 100 88 76 17 5 5 5 2 0 0 0 0 2 5 5 5 5 1 0 0 0 1 5 1
96 54 25 100 100 100 100 100 100 98 100 100 100 100 92 48 100 29 79 40 5 5 5 5 5 1 0 0 0 0 1 4 5 5 5 5 10 8 13 4 1 1 1
53 48 100 100 100 100 100 100 100 100 100 100 32 8 69 9 5 3 5 5 5 5 2 1 5 3 0 0 0 0 0 0 4 5 5 5 5 5 5 5 5 5 5
49 100 42 50 21 30 52 74 34 17 12 10 5 2 0 0 3 13 77 30 5 3 5 5 12 5 5 3 0 2 5 5 5 4 5 5 5 5 5 5 4 5 2
21 27 67 79 45 5 5 2 0 0 0 0 0 0 0 5 5 5 5 5 36 5 5 4 0 0 0 0 0 1 1 4 12 3 0 1 1 0 0 0 0 0 0
69 78 45 8 72 46 0 0 0 0 0 0 0 4 21 44 5 12 59 24 5 3 0 0 0 0 0 4 5 26 37 90 73 32 22 5 7 5 2 2 5 5 4
85 95 90 99 88 86 59 6 0 5 5 5 4 52 99 99 98 85 8 5 4 0 0 0 2 5 1 3 1 2 5 5 5 68 6 6 6 22 47 2 5 6 27
92 100 73 64 92 94 97 95 88 7 2 2 9 57 25 27 5 4 2 5 3 3 4 5 5 5 5 5 3 5 7 60 21 65 88 70 89 90 81 99 5 66 69

GFSSE_prec_cloud_027.txt.gz
Cloud_Cover
100 100 100 100 100 98 17 42 5 5 3 1 0 0 0 0 0 0 0 1 0 0 0 0 0 0 0 0 0 0 0 0 0 0 0 0 0 0 0 0 0 0 0
100 100 100 100 93 37 5 5 5 5 5 3 0 4 5 0 0 1 10 3 0 0 0 0 0 0 0 2 0 0 0 0 0 0 0 0 0 0 0 0 0 3 0
100 100 100 100 100 71 17 5 5 5 5 4 5 5 2 1 4 48 0 0 0 0 0 0 0 0 0 4 0 0 0 0 0 0 0 0 0 0 0 0 0 0 0
100 100 100 100 100 97 45 93 90 5 5 5 5 14 15 4 0 5 1 0 0 4 2 2 0 1 5 5 4 0 0 0 0 0 0 0 0 0 0 0 0 0 0
100 100 100 100 75 95 76 5 5 5 12 5 5 38 3 0 4 7 4 2 2 2 1 0 0 5 5 5 0 5 2 0 0 0 0 0 0 0 0 0 0 0 0
100 100 100 97 50 29 89 21 5 5 6 40 96 3 5 34 81 2 5 64 64 4 15 2 5 27 25 34 67 5 1 0 0 0 0 0 0 0 0 0 0 0 0
100 100 94 100 91 93 96 100 100 100 92 53 5 33 90 5 5 5 96 5 9 7 73 13 52 86 74 80 6 4 0 0 0 0 0 0 0 0 0 0 0 0 0
100 100 100 100 100 100 100 100 100 100 10 76 68 65 5 5 53 82 94 5 14 5 100 99 95 58 6 32 5 0 0 0 0 0 0 0 0 0 0 0 0 0 0
100 100 100 100 100 100 100 100 57 90 100 97 27 92 70 100 100 94 48 86 17 100 59 56 68 5 5 5 5 0 0 0 0 0 0 0 0 0 0 0 0 0 0
100 100 100 100 100 72 100 78 69 100 100 48 81 99 100 100 100 100 60 100 55 18 48 5 60 5 5 6 3 0 0 0 0 0 0 0 0 0 0 0 0 0 0
100 100 100 100 95 100 100 100 100 100 47 100 100 100 100 100 75 92 86 67 100 75 5 16 4 5 4 0 0 0 0 0 0 0 0 0 0 0 0 0 0 0 0
100 100 100 100 100 100 100 100 97 98 96 100 100 100 100 100 100 87 100 55 34 5 5 5 0 1 0 0 0 0 0 0 0 0 0 0 0 0 0 0 0 0 0
100 100 100 100 100 100 100 68 98 100 99 100 100 100 100 100 100 100 54 8 22 5 0 2 2 5 75 3 0 0 0 0 0 0 0 0 0 0 0 0 0 0 0
100 100 99 100 100 97 100 100 100 100 100 100 100 96 52 73 63 100 69 6 12 5 5 5 5 4 0 0 0 0 0 0 0 0 0 0 0 0 0 0 0 0 0
100 100 100 100 100 100 100 100 100 100 100 100 100 72 88 66 55 47 5 5 5 5 5 4 5 5 5 0 0 0 0 0 0 0 0 0 0 0 0 0 0 0 0
99 100 100 96 100 100 98 100 100 100 100 100 100 98 6 8 5 5 5 5 5 5 5 4 2 5 0 0 0 0 0 0 0 0 0 0 2 0 0 0 0 0 0
84 100 92 97 45 100 100 100 100 100 100 100 100 100 100 93 49 19 6 46 92 22 5 82 5 6 0 0 0 0 0 0 0 0 0 0 0 0 0 0 0 0 0
29 88 96 100 100 100 100 100 100 100 100 100 100 100 100 100 100 99 100 89 89 48 100 17 4 1 5 5 5 7 6 5 4 0 0 0 0 0 0 1 0 0 0
100 94 100 100 100 100 100 100 100 100 100 100 100 100 100 100 100 77 35 50 26 3 3 5 14 26 56 65 6 5 65 7 5 0 0 0 0 1 0 5 5 5 2
100 100 93 100 98 100 100 100 100 100 100 100 100 100 100 100 82 5 3 0 3 5 6 74 84 70 11 5 4 4 2 3 0 0 0 0 0 5 5 5 5 5 5
90 85 100 66 100 100 100 100 100 100 100 100 100 100 98 2 0 0 4 5 5 4 2 1 3 1 1 2 0 0 0 0 0 1 5 5 15 21 12 5 5 5 5
23 40 68 70 76 100 100 100 80 36 60 100 93 28 0 0 0 0 2 1 5 5 5 4 0 0 0 0 0 0 0 0 5 4 4 5 5 5 4 5 5 5 5
5 5 28 27 12 30 70 22 0 0 0 0 0 0 2 5 2 37 65 11 5 4 4 4 5 5 1 2 1 3 2 1 5 0 1 3 5 5 4 3 5 5 5
30 5 35 8 22 69 5 3 5 5 45 19 5 0 2 15 4 5 5 5 5 5 5 3 0 0 3 0 2 5 5 5 5 5 64 80 50 5 5 5 5 16 46
34 5 5 28 26 25 87 20 14 5 5 2 0 0 0 4 28 10 5 5 3 0 0 5 5 5 5 2 5 5 5 5 76 99 82 68 30 58 46 71 12 10 22
5 83 97 96 82 95 84 29 5 5 5 5 5 4 4 1 0 0 0 0 0 5 5 5 5 44 5 5 4 5 2 5 5 44 65 62 5 5 5 5 14 29 16

GFSSE_prec_cloud_030.txt.gz
Cloud_Cover
100 100 100 100 100 100 100 100 100 49 74 20 5 4 26 2 4 2 0 2 0 1 0 0 0 0 0 0 0 0 0 0 0 0 4 0 0 0 0 0 0 82 0
100 100 100 100 100 100 100 100 100 100 100 71 6 5 8 1 0 0 0 0 2 1 0 0 1 0 0 0 0 0 4 0 0 5 6 0 0 1 0 0 0 7 0
100 100 100 100 100 100 100 100 100 76 93 80 42 4 5 0 0 6 4 5 0 0 2 4 1 0 0 0 5 3 1 4 3 24 5 20 71 0 0 0 0 0 0
100 100 100 100 100 100 100 100 100 100 71 21 5 5 3 4 23 14 24 5 5 20 5 5 0 0 0 3 4 7 3 4 5 5 0 17 100 0 0 0 0 0 0
100 100 100 100 100 100 90 89 100 100 12 5 5 5 5 45 98 98 61 21 13 5 2 2 28 15 3 8 5 4 5 5 5 3 0 1 46 9 0 0 0 0 0
100 100 100 100 100 100 89 100 100 90 42 5 5 9 73 100 24 5 7 8 5 5 5 5 7 50 5 5 5 5 5 22 5 5 0 1 43 0 0 0 0 0 0
100 100 100 96 97 75 99 24 79 83 15 100 98 98 40 5 11 5 5 5 23 5 40 8 7 62 5 88 32 8 81 5 5 0 0 0 0 0 0 0 0 0 0
100 100 100 100 100 100 100 76 99 92 100 95 100 75 77 91 9 5 87 31 54 99 88 62 82 13 82 30 79 93 28 3 2 0 0 0 0 0 0 0 0 0 0
100 100 100 100 100 80 89 100 100 100 100 100 100 100 90 20 6 66 100 84 53 100 100 100 52 76 49 81 8 5 4 0 0 0 0 0 0 0 0 0 0 0 0
100 100 100 100 100 100 100 100 100 100 100 100 100 54 24 18 87 100 100 100 100 100 93 87 100 56 25 99 3 0 0 0 0 0 0 0 0 0 0 0 0 0 0
100 100 100 100 100 100 100 100 100 100 100 100 89 100 100 100 97 100 100 100 99 85 98 89 30 81 46 14 0 0 0 0 0 0 0 0 0 0 0 0 0 0 0
100 100 100 100 100 100 100 100 100 100 100 100 100 100 100 100 100 100 100 94 5 5 5 11 5 5 2 0 0 0 0 0 0 0 0 0 0 0 0 0 0 0 0
100 100 100 100 100 100 100 100 100 100 100 100 100 100 100 100 100 12 5 5 7 5 18 5 7 0 0 0 0 0 0 0 0 0 0 0 0 0 0 0 0 0 0
100 100 100 100 100 100 100 100 100 100 100 100 100 100 100 72 6 5 4 5 2 0 5 5 0 4 0 0 0 0 0 0 0 0 0 0 0 0 0 0 0 0 0
100 100 100 100 100 100 100 100 100 100 100 100 100 100 100 95 36 67 10 52 100 91 12 7 40 5 5 2 0 0 0 0 0 0 0 0 0 0 0 0 0 0 0
100 100 100 100 100 100 100 95 81 82 100 100 100 100 100 100 100 100 100 100 66 5 46 100 71 41 22 2 0 0 0 0 0 0 0 0 0 0 0 5 2 0 0
100 100 100 98 84 80 59 69 100 100 100 100 100 100 100 100 100 100 100 100 100 100 100 100 85 5 3 0 2 0 3 1 0 0 0 0 0 0 0 0 1 5 2
80 97 100 68 98 61 99 100 100 100 100 100 100 100 100 100 100 100 100 100 100 98 100 100 100 19 0 2 5 5 6 5 5 4 0 0 0 0 0 0 0 3 5
100 100 79 79 78 99 100 100 100 100 100 100 100 100 100 100 100 100 100 100 100 100 100 100 21 0 0 0 5 24 85 75 12 5 2 2 0 0 0 0 0 0 0
95 88 97 100 96 100 100 100 100 100 100 100 100 100 100 100 100 100 100 100 100 100 76 14 0 0 0 0 4 5 4 3 1 4 1 1 2 5 4 2 2 4 4
62 98 100 99 100 100 100 100 100 100 100 100 100 100 100 100 100 100 98 24 1 0 2 2 0 0 0 3 3 0 1 4 25 32 87 86 87 90 82 40 5 5 2
41 85 67 57 90 18 73 93 97 90 100 100 96 99 100 100 78 0 0 2 0 0 1 3 6 10 5 5 5 5 4 3 2 93 28 5 5 10 5 5 5 5 9
97 100 97 53 20 29 90 93 91 63 23 70 45 11 5 3 0 1 0 0 4 16 44 20 12 5 5 5 5 5 7 3 5 4 72 76 82 5 12 5 5 6 16
21 92 35 5 5 32 77 70 5 5 5 5 5 5 5 5 4 0 1 1 1 1 0 0 4 5 5 5 5 6 77 82 94 71 95 97 99 5 4 3 30 5 5
5 5 5 40 68 28 6 5 5 5 5 5 5 80 87 63 5 4 0 0 0 0 0 4 5 6 5 6 5 16 98 100 100 100 98 100 26 64 76 39 5 5 47
5 5 5 5 5 5 5 5 5 5 17 5 28 100 98 18 5 3 0 0 2 5 3 30 71 76 100 93 96 100 100 100 100 100 100 80 10 3 50 65 58 52 6

GFSSE_prec_cloud_033.txt.gz
Cloud_Cover
96 10 5 64 100 100 75 97 100 100 100 100 100 100 100 100 17 78 66 5 5 5 5 4 0 0 0 0 0 0 0 0 0 0 0 0 0 0 0 0 2 67 0
83 61 26 94 99 77 13 31 20 29 100 100 100 100 100 55 15 37 10 4 4 1 1 4 0 0 0 0 0 0 0 0 0 5 0 0 1 0 0 0 0 0 0
76 40 91 100 100 90 62 88 100 99 98 100 100 100 71 34 7 47 76 5 5 5 5 6 5 6 0 2 0 0 0 0 0 0 40 100 49 0 0 0 0 0 0
100 88 99 100 100 95 5 16 94 94 100 100 61 100 90 26 5 5 99 72 9 46 5 5 16 5 1 2 13 1 24 5 3 4 55 62 70 1 0 0 0 0 0
100 100 100 100 100 99 100 5 24 28 99 71 52 7 67 13 5 5 16 59 5 10 56 9 10 4 5 3 5 100 23 10 5 6 78 9 48 1 0 0 0 0 0
100 100 100 100 100 100 100 100 91 38 55 13 5 5 5 86 98 5 8 5 5 5 5 5 5 8 80 100 5 85 5 8 5 5 19 33 2 6 2 0 0 0 0
100 100 100 100 100 100 100 100 92 100 76 18 12 97 100 100 100 100 88 64 5 5 5 6 99 93 5 34 12 5 67 8 9 25 1 2 0 0 0 0 0 0 0
100 100 100 100 100 100 100 100 100 100 100 98 99 100 100 100 100 100 89 91 100 5 5 63 94 100 100 74 80 68 95 22 4 5 1 0 0 0 0 0 0 0 0
100 100 100 100 100 100 100 100 100 100 100 100 100 100 100 100 100 79 58 100 100 100 100 100 86 100 83 27 30 40 24 5 3 0 0 0 0 0 0 0 0 0 0
100 100 100 100 100 100 100 100 100 100 100 100 100 100 100 100 100 100 100 100 100 61 76 100 100 8 14 47 5 46 18 5 2 0 0 0 0 0 0 0 0 0 0
100 100 100 100 100 100 100 100 100 100 100 100 100 100 100 100 100 100 100 100 100 100 99 6 34 8 5 5 5 4 0 0 0 0 0 0 0 0 0 0 0 0 0
100 100 100 100 100 100 100 100 100 98 100 100 100 100 100 100 100 100 100 100 100 100 98 5 6 4 0 0 0 0 0 0 0 0 0 0 0 0 0 0 0 0 0
100 100 100 100 100 100 100 100 100 100 100 100 99 100 100 100 100 100 100 100 100 99 9 4 0 5 22 3 2 0 3 0 0 0 0 0 0 0 0 0 0 0 0
100 100 100 100 100 100 100 100 100 100 100 100 100 100 100 100 92 100 100 76 13 47 22 92 8 5 9 59 100 100 94 1 5 0 0 0 0 0 0 0 0 0 0
100 100 100 100 100 100 100 100 100 100 100 100 100 100 100 100 100 100 100 78 69 88 41 6 56 95 100 98 76 100 60 38 4 0 0 0 0 1 0 0 0 0 0
100 100 100 100 100 100 100 100 100 100 100 97 100 100 100 100 100 100 100 86 88 100 100 100 84 100 100 87 93 49 25 98 5 5 5 0 0 0 0 0 0 0 0
100 100 100 100 100 100 100 100 100 100 100 100 100 96 99 100 100 100 100 100 100 100 100 100 100 100 100 100 100 100 100 42 5 48 86 7 0 0 0 0 0 0 0
14 99 99 100 100 100 100 99 100 100 100 100 100 100 100 100 100 100 100 100 100 100 100 100 91 99 96 100 100 99 5 0 3 7 4 5 19 3 0 3 0 0 0
100 100 91 73 84 80 98 100 100 100 100 100 100 100 100 100 100 100 89 71 88 58 47 100 86 63 98 46 2 26 5 5 5 2 0 10 14 17 10 1 5 2 0
100 99 100 100 100 98 86 94 94 100 100 100 100 100 100 100 100 100 100 100 85 94 99 79 56 6 2 0 0 0 0 0 0 5 7 38 84 68 74 77 46 36 15
100 100 100 100 84 32 77 76 95 44 82 100 100 40 57 68 100 100 100 100 100 100 100 100 7 0 0 0 0 0 0 0 3 5 5 99 75 59 23 93 61 76 79
97 100 100 97 73 97 83 22 5 13 46 76 4 49 62 62 2 5 5 4 25 3 0 0 2 3 0 3 3 5 5 5 5 4 39 50 71 65 93 82 58 97 98
97 100 100 100 41 98 78 24 47 80 57 5 14 61 71 5 5 5 5 5 5 0 0 4 5 4 5 5 6 5 5 2 14 5 3 24 61 38 28 40 15 76 98
100 100 80 56 55 9 5 5 5 5 82 38 5 14 5 5 15 20 5 2 0 3 1 5 5 5 5 9 12 42 30 35 84 5 72 12 49 67 32 10 32 50 31
4 7 78 14 5 5 5 5 5 5 5 5 10 17 16 35 7 5 4 4 2 5 5 5 8 54 5 27 62 58 31 7 8 97 100 99 30 56 77 65 52 5 24
2 5 25 5 6 2 5 5 5 5 5 10 76 5 47 56 38 16 5 4 5 5 5 5 62 5 96 20 97 96 82 89 90 68 100 100 76 7 75 46 6 33 17

GFSSE_prec_cloud_036.txt.gz
Cloud_Cover
99 93 86 25 5 5 5 5 5 10 50 85 97 56 58 9 5 9 90 94 57 100 5 16 24 0 0 0 0 0 1 0 0 0 0 0 2 0 0 0 0 0 0
100 81 48 5 5 30 99 6 5 5 62 97 100 92 73 89 24 18 49 73 13 78 5 37 5 0 0 0 0 0 0 0 0 0 0 74 16 0 0 0 0 0 0
100 100 91 92 64 98 100 100 100 81 15 75 100 91 6 5 68 45 9 12 5 2 5 4 4 0 1 0 0 0 0 0 2 94 50 100 8 0 0 0 0 0 0
48 77 100 82 100 100 100 100 100 100 84 82 75 50 39 18 5 4 19 5 5 11 10 5 4 3 3 0 0 0 1 0 5 73 69 46 6 0 0 0 0 0 0
64 78 89 69 100 100 100 100 100 100 94 79 69 100 98 82 11 9 5 5 92 96 99 50 31 5 2 13 4 13 65 89 11 99 30 2 0 0 0 0 0 0 0
28 70 67 45 100 100 76 99 100 100 84 100 100 100 100 86 10 5 100 100 100 100 100 100 100 100 26 7 78 100 81 100 5 7 5 5 2 0 0 0 0 0 0
96 100 77 100 100 100 100 100 100 97 100 100 100 100 100 100 100 100 100 100 100 100 57 100 100 74 100 98 100 100 68 8 4 4 5 5 5 4 0 0 0 0 0
100 100 100 100 100 100 100 100 100 99 100 100 100 100 100 100 100 100 100 100 100 100 100 100 100 100 100 100 100 100 86 15 5 39 5 5 0 0 0 0 0 0 0
100 100 100 100 100 100 100 100 100 100 100 100 100 100 100 100 100 100 100 100 100 100 100 100 100 100 100 100 100 30 84 23 2 5 0 1 0 0 0 0 0 0 0
100 100 100 100 100 100 100 100 100 100 100 100 100 100 100 100 100 100 100 100 100 100 100 100 100 100 98 100 12 6 5 0 4 0 0 0 0 0 0 0 0 0 0
100 100 100 100 100 99 100 100 100 100 100 100 100 100 100 100 100 100 100 100 100 100 100 100 61 94 100 48 5 3 4 0 0 0 0 0 1 0 4 5 0 1 10
100 100 100 100 100 100 100 100 100 100 100 100 100 100 100 100 100 100 100 100 100 99 90 100 100 35 4 8 5 4 1 0 0 21 80 91 12 4 0 0 0 0 1
100 100 100 100 100 100 100 100 100 100 100 100 100 100 100 100 100 100 100 100 100 100 100 100 96 31 5 5 3 0 3 0 3 100 100 1 0 0 0 3 0 0 0
100 100 100 100 100 100 100 100 100 100 100 100 100 99 73 98 100 100 100 100 100 100 100 100 61 8 37 74 100 68 12 6 68 37 90 74 5 5 0 0 0 0 0
100 100 100 100 100 100 100 100 100 100 100 100 100 100 100 99 100 100 100 79 96 79 46 5 10 55 86 100 100 100 100 100 100 100 66 2 94 5 5 5 0 0 0
100 100 100 100 100 100 100 100 100 100 100 100 100 100 100 100 100 100 100 99 95 100 71 63 100 100 80 100 100 100 97 100 0 12 0 4 4 1 0 5 4 3 0
100 100 100 100 100 100 100 100 100 100 100 100 100 100 100 100 100 100 100 92 90 100 100 100 100 100 100 100 98 8 3 1 5 17 78 2 0 4 5 5 5 5 0
100 100 100 100 100 100 100 100 100 100 100 100 100 100 100 99 70 88 87 100 100 100 100 100 100 87 18 87 100 100 99 89 14 0 0 0 0 3 2 3 5 3 3
100 100 100 100 100 100 100 100 100 100 100 100 100 100 100 93 100 100 100 100 98 81 100 100 100 100 100 100 2 3 7 12 0 0 0 0 4 19 41 7 34 5 5
97 31 58 47 33 68 52 69 69 99 99 81 39 5 6 49 93 94 100 98 58 71 84 97 50 32 19 0 0 0 0 0 2 3 3 44 7 75 100 80 6 5 5
100 100 100 100 100 100 100 100 100 93 45 21 5 5 2 0 0 0 0 0 0 0 0 0 0 0 0 0 0 0 0 2 5 0 0 1 5 61 100 77 5 5 5
95 100 100 100 87 100 100 38 7 5 5 5 2 0 1 5 5 5 0 3 1 5 3 0 0 0 0 0 0 0 1 2 0 0 0 0 5 69 94 92 13 24 5
100 100 100 100 100 76 100 30 6 3 0 0 3 5 5 5 5 0 4 5 5 5 4 0 0 0 3 0 0 0 0 0 2 0 1 0 1 2 3 0 5 45 22
100 100 100 78 73 27 100 5 4 0 0 0 0 0 5 5 2 5 5 5 5 5 0 0 0 2 0 3 4 5 0 4 5 5 2 0 1 5 5 5 2 0 0
100 100 94 22 6 92 29 2 0 57 98 83 5 18 54 19 5 5 3 5 5 5 2 3 2 21 78 34 5 5 3 3 33 12 0 0 0 0 0 5 4 5 5
21 1 0 16 80 11 5 6 4 3 5 5 5 5 23 15 74 6 5 5 5 0 0 1 3 6 5 4 5 5 10 64 100 88 40 3 5 0 0 0 0 0 5

GFSSE_prec_cloud_039.txt.gz
Cloud_Cover
98 86 100 100 100 96 99 71 13 5 5 5 5 5 7 32 36 5 7 6 35 28 4 0 0 0 0 0 0 0 0 1 3 1 0 0 0 0 0 0 0 0 0
62 69 100 100 100 100 91 100 100 98 6 14 6 7 81 93 100 64 27 5 4 9 1 0 0 0 0 5 5 0 0 0 1 0 0 0 2 4 0 0 0 0 0
87 59 99 100 100 100 100 100 84 81 59 82 100 74 89 100 95 91 89 18 5 4 2 0 4 4 8 89 5 0 37 12 5 0 10 76 38 5 5 0 0 0 0
97 80 62 78 100 84 95 100 99 100 100 100 100 99 100 98 100 100 100 100 99 73 9 2 5 5 57 6 4 5 5 66 30 42 18 92 92 78 0 0 0 0 0
43 56 85 100 97 74 100 100 100 90 100 100 99 100 100 100 100 100 100 98 100 100 6 60 58 82 57 5 5 96 100 19 4 84 100 83 92 1 0 0 0 0 0
98 96 100 100 100 100 100 100 100 100 100 78 100 100 100 100 100 100 100 100 98 79 89 97 96 100 94 91 100 100 5 100 100 100 45 5 6 56 0 0 0 0 0
100 100 100 100 100 100 100 100 100 100 100 100 100 100 100 100 100 100 91 92 98 83 100 100 100 100 100 82 100 100 93 100 100 89 95 86 16 3 0 0 0 0 0
100 100 100 100 100 100 100 100 100 99 99 100 100 100 100 100 100 100 100 100 100 100 100 100 100 77 100 100 85 80 89 100 100 87 5 23 19 0 0 0 0 0 0
100 100 100 100 100 100 100 100 100 100 100 100 100 100 100 100 100 100 100 100 100 100 99 99 100 86 98 80 56 100 100 70 37 100 95 43 5 0 0 0 0 0 0
100 100 100 100 100 100 100 100 100 100 100 100 100 100 100 100 100 100 100 100 100 100 100 100 99 72 86 51 100 100 100 88 93 21 15 3 0 0 0 0 0 4 21
100 100 100 100 100 100 100 100 100 100 100 100 100 100 100 100 100 100 100 100 100 100 100 100 100 100 45 80 100 100 96 78 80 5 0 0 0 0 1 4 34 3 36
100 100 100 100 100 100 100 100 100 100 100 100 100 100 100 100 100 100 100 100 100 100 100 100 68 99 100 100 100 99 5 28 4 3 1 13 74 61 47 4 100 48 91
100 100 100 100 100 100 100 100 100 100 100 100 100 100 100 100 100 100 100 100 100 100 100 100 94 100 100 100 84 9 5 2 2 0 4 69 19 100 100 93 27 28 50
100 100 100 100 100 100 100 100 100 100 100 100 100 100 100 100 100 100 100 100 100 94 95 100 100 17 99 95 8 51 56 10 21 15 96 96 41 58 0 4 0 0 0
100 100 100 100 100 100 100 100 100 100 100 100 100 100 100 100 100 100 100 100 100 100 100 100 95 78 100 100 100 100 80 100 100 100 100 41 4 47 10 5 5 5 0
100 100 100 100 100 100 100 100 100 100 100 100 100 100 100 100 100 100 100 100 100 85 100 100 38 63 98 93 95 100 100 100 100 100 54 44 100 99 2 5 39 1 0
100 100 100 100 100 100 100 100 100 100 100 100 100 100 100 100 100 100 100 100 100 100 100 100 97 80 95 8 42 5 5 96 80 48 73 10 4 0 3 5 0 0 0
100 100 100 100 100 100 100 100 100 100 100 100 100 100 100 100 88 98 100 94 36 10 26 4 37 4 2 4 18 56 8 2 2 0 0 0 0 0 0 3 5 5 5
100 100 100 100 100 100 100 100 100 100 100 100 100 99 100 100 79 65 63 5 5 4 0 1 0 0 0 0 0 0 0 0 0 0 0 0 1 5 12 35 43 69 21
100 100 100 100 100 100 100 100 100 100 100 100 83 67 76 81 95 100 17 5 5 1 0 0 0 0 0 0 0 0 0 0 0 0 0 0 5 5 5 33 87 70 57
100 100 100 36 75 93 100 100 100 92 100 100 100 100 100 100 100 88 5 0 0 0 0 0 0 0 0 0 0 0 0 0 0 0 0 0 0 5 46 88 99 83 81
100 100 100 71 100 93 90 100 100 100 100 63 43 31 7 5 5 5 5 0 0 0 0 1 0 0 0 0 0 0 0 0 0 0 0 0 0 0 3 5 78 99 88
86 52 92 100 100 100 48 52 73 100 100 38 6 5 3 5 2 5 5 0 0 0 0 5 0 0 0 0 0 0 0 0 4 5 5 5 2 0 0 0 0 4 5
100 100 100 100 100 100 100 100 100 87 17 4 0 0 5 5 4 5 4 4 5 0 0 3 0 0 0 0 0 5 5 5 5 5 5 5 4 0 0 0 0 0 3
71 64 88 100 92 79 20 59 11 0 0 0 0 0 0 0 3 5 24 91 75 5 2 3 5 5 1 5 4 26 26 5 0 5 5 2 3 5 4 0 0 0 0
5 96 100 98 5 3 1 76 10 1 0 0 0 14 58 97 75 66 22 17 11 7 0 0 0 0 0 1 0 4 4 5 14 66 24 5 5 4 0 0 0 0 0

GFSSE_prec_cloud_042.txt.gz
Cloud_Cover
100 82 84 69 56 92 100 99 98 97 71 12 32 29 40 62 54 9 5 5 5 5 5 4 2 0 0 0 0 0 0 0 0 3 13 0 0 0 0 0 2 0 1
100 79 48 35 60 52 100 100 100 89 73 81 29 82 90 92 100 100 8 5 5 59 5 8 4 4 0 2 0 0 0 2 2 0 0 0 5 1 0 0 85 25 8
100 95 35 27 60 100 100 100 100 82 75 75 58 68 100 81 100 100 98 100 94 94 26 8 11 5 3 0 2 5 3 8 6 0 11 52 30 6 16 5 13 53 1
100 99 56 12 66 29 96 95 96 100 96 100 90 93 100 100 100 100 100 100 100 100 100 98 100 76 4 0 0 98 91 71 48 7 48 55 95 88 8 45 79 77 5
100 65 70 99 94 66 100 100 100 100 97 99 98 100 100 100 99 100 100 100 100 99 100 100 100 5 5 0 32 100 100 60 14 54 62 13 5 8 98 100 59 9 4
100 90 97 100 46 49 100 100 100 100 96 100 100 100 100 100 100 100 100 100 100 88 100 100 39 5 78 43 100 100 26 42 8 76 79 6 46 100 100 100 100 99 4
98 99 100 100 100 100 100 100 100 100 100 100 100 100 100 100 100 100 100 100 100 100 100 100 24 63 87 83 89 62 14 100 100 83 99 54 24 95 100 86 0 0 0
100 100 100 100 100 100 100 100 100 100 100 100 100 100 100 100 100 100 100 100 100 100 99 67 69 100 100 100 58 75 100 100 100 100 100 5 40 40 5 5 0 0 0
100 100 100 100 100 100 100 100 100 100 100 100 100 100 100 100 99 100 100 100 100 100 66 100 100 100 100 100 100 100 100 98 100 99 12 95 100 28 5 5 5 1 48
100 100 100 100 100 100 100 100 100 100 100 100 100 87 100 100 100 100 100 100 100 100 100 100 99 100 100 100 100 98 99 100 100 76 5 17 12 11 5 5 0 10 11
100 100 100 100 100 100 100 100 100 100 100 100 100 100 100 85 100 100 100 100 100 99 87 100 100 100 100 100 100 99 22 29 80 5 24 5 6 96 17 0 0 23 99
100 100 100 100 100 100 100 100 100 100 100 100 100 100 100 100 100 100 100 100 100 100 100 100 100 100 100 100 100 27 35 5 50 16 23 40 5 2 2 1 0 25 26
100 100 100 100 100 100 100 100 100 100 100 100 100 100 100 100 100 100 100 100 73 100 100 100 100 100 100 100 100 94 99 96 11 5 57 49 96 3 31 89 98 99 18
100 100 100 100 100 100 100 100 100 100 100 100 100 100 100 100 100 100 100 100 100 100 100 94 100 100 100 100 100 100 100 19 9 74 16 14 24 95 85 90 87 54 98
100 100 100 100 100 100 100 100 100 100 100 100 98 100 100 100 100 100 93 100 100 88 100 100 100 100 100 100 100 53 10 4 3 2 2 2 9 2 0 2 11 70 89
100 100 100 100 100 100 100 100 100 100 100 100 100 100 100 100 100 100 100 98 100 100 100 100 100 100 100 81 37 12 1 0 0 0 0 0 0 0 0 0 2 1 0
100 100 100 100 100 100 100 100 100 100 100 100 100 100 100 100 100 100 100 100 100 100 100 100 100 26 12 13 4 5 0 0 0 0 0 0 0 0 0 0 4 4 5
100 100 100 100 100 100 100 100 100 100 100 100 100 100 100 100 100 100 100 100 100 100 100 93 76 6 18 5 4 0 0 0 0 0 0 0 0 0 0 5 5 5 27
100 100 100 100 100 100 100 100 100 100 100 100 100 100 100 100 100 100 100 100 100 100 100 100 17 5 3 1 0 0 0 0 0 0 0 0 0 1 5 5 5 5 5
100 100 100 100 100 100 100 100 100 100 100 100 100 100 100 100 100 100 100 100 84 66 41 6 5 0 0 0 0 0 0 0 0 0 0 0 0 1 4 5 8 7 5
99 100 100 100 100 100 100 100 100 100 100 100 100 100 100 86 100 100 94 100 71 5 4 2 0 0 0 0 0 0 0 0 0 0 0 0 0 0 0 4 10 22 54
46 12 25 93 100 94 100 100 100 100 95 57 66 64 100 78 65 32 21 31 5 5 0 2 0 0 2 0 0 0 0 4 5 5 5 5 5 1 2 0 0 0 0
76 69 96 100 100 100 100 100 95 100 86 100 100 100 94 96 44 90 24 1 4 6 49 76 14 5 5 0 0 0 0 0 4 5 5 5 5 5 5 5 0 0 0
100 100 100 100 100 60 100 98 98 100 100 100 100 100 100 76 12 0 5 5 5 66 10 59 97 60 81 8 3 0 0 3 5 5 5 5 5 5 4 0 0 0 0
99 99 100 58 78 100 100 99 70 56 39 5 5 2 0 0 1 5 5 5 16 70 91 100 100 98 95 59 6 0 1 5 5 5 5 5 5 4 2 5 5 5 3
70 76 61 91 100 100 100 48 34 5 5 5 0 0 4 5 5 5 5 7 98 15 88 75 46 82 85 18 5 5 5 5 5 6 23 5 5 3 5 5 5 62 44

GFSSE_prec_cloud_048.txt.gz
Cloud_Cover
93 74 84 53 11 16 5 2 5 5 5 75 87 65 5 5 5 5 7 51 5 3 5 5 5 5 1 1 0 0 0 0 0 0 2 0 0 0 0 1 5 2 1
100 63 7 5 15 10 5 5 5 5 41 94 88 5 5 20 100 48 74 14 5 5 5 5 5 5 5 5 0 2 3 4 5 5 5 0 0 0 0 0 0 2 6
100 83 66 5 29 0 2 5 5 5 5 100 100 95 42 44 84 14 5 5 6 6 5 5 2 4 5 0 0 0 3 1 2 95 77 66 5 5 5 0 0 0 1
95 81 27 6 67 9 5 37 41 88 65 100 100 91 5 40 5 92 66 11 62 25 16 39 6 6 6 6 3 2 3 4 25 66 83 28 54 7 15 5 4 37 100
99 93 12 12 100 26 62 100 100 100 94 89 89 98 63 42 26 71 70 99 14 6 16 6 5 21 49 8 5 5 1 4 42 100 45 28 5 4 4 11 99 100 100
100 100 98 100 100 98 100 100 100 91 100 91 32 7 91 79 100 97 25 5 26 5 5 4 5 5 5 5 5 5 5 4 5 13 6 3 2 15 100 100 100 98 28
100 100 100 100 100 100 99 100 82 100 100 100 100 99 100 100 100 88 23 98 5 27 5 5 11 5 5 5 25 5 3 5 5 8 66 98 100 99 94 81 3 3 16
100 100 100 100 100 100 100 100 98 100 100 99 100 100 100 100 100 88 100 99 14 13 6 98 10 5 5 7 5 25 9 21 100 100 100 100 100 75 0 5 5 4 0
100 100 100 100 100 100 100 100 100 100 100 100 100 100 100 100 100 100 100 58 57 55 100 24 28 5 5 5 4 60 98 100 100 100 100 33 5 7 5 2 4 5 37
100 100 82 100 100 100 100 100 100 100 100 100 100 100 100 100 100 100 100 61 11 73 65 5 5 5 5 9 98 100 100 100 99 100 5 5 2 3 10 5 2 4 5
100 100 100 100 100 100 100 100 100 100 100 100 100 100 100 100 100 100 100 100 100 100 79 54 12 100 100 100 97 3 10 7 5 5 5 4 44 45 27 8 5 3 0
92 100 100 100 100 100 100 100 100 100 100 100 100 100 100 100 100 100 99 100 100 100 90 86 100 91 100 13 13 35 90 5 2 5 30 62 30 8 12 23 3 0 0
99 100 100 100 100 100 100 100 100 100 100 100 100 100 100 100 100 100 100 100 100 100 100 100 100 100 77 42 15 2 2 5 5 5 6 4 66 34 9 6 3 1 0
100 100 100 100 100 100 100 100 100 100 100 100 100 100 100 100 100 100 100 100 100 100 100 94 75 8 100 28 5 19 7 82 7 47 44 11 4 0 1 12 14 38 7
100 100 100 100 100 100 100 100 100 100 100 100 100 100 100 100 100 100 100 100 100 100 100 100 100 94 13 53 27 12 99 15 100 13 5 5 11 5 2 5 18 61 28
100 100 100 100 100 100 100 100 100 100 100 100 100 100 100 100 100 100 100 97 68 100 81 95 98 100 62 100 98 26 13 84 7 5 5 9 16 0 0 0 0 12 6
100 100 100 100 100 100 100 100 100 100 100 100 100 100 100 100 100 100 100 100 100 100 100 99 71 76 7 65 7 71 17 10 100 94 5 6 0 0 0 0 0 0 5
100 100 100 100 100 100 100 100 100 100 100 100 100 100 100 100 100 100 100 100 100 100 100 19 52 100 100 100 98 99 11 27 54 5 5 0 0 0 0 0 2 3 5
82 96 87 100 100 100 100 100 100 100 100 100 100 100 100 99 100 100 100 100 100 100 100 100 100 100 100 90 45 7 33 25 2 0 0 0 0 0 0 0 0 0 0
39 65 95 100 100 100 100 100 100 100 100 100 100 100 100 100 100 100 100 98 49 94 95 100 98 25 88 25 8 5 5 0 0 0 5 1 0 0 0 0 0 0 0
99 24 50 98 100 100 100 100 100 100 100 100 100 100 100 100 100 100 100 100 100 100 100 96 100 74 7 42 7 0 0 0 0 4 5 5 5 4 0 0 0 0 0
100 100 100 29 30 5 61 98 97 100 94 100 100 100 99 100 100 100 100 100 100 88 65 31 6 6 5 5 1 5 2 0 1 5 59 67 79 14 1 0 3 1 1
100 100 100 100 100 100 100 72 66 100 100 100 100 100 100 100 99 100 90 99 67 85 58 7 5 0 5 5 20 18 5 5 13 59 8 33 33 57 42 5 5 5 5
100 100 100 100 100 100 100 92 98 89 100 100 99 97 100 100 100 100 99 96 26 18 5 5 5 60 96 76 69 25 48 35 6 5 5 5 5 5 5 5 5 5 5
100 100 100 100 100 100 100 100 100 100 100 99 98 76 96 100 100 100 44 4 2 5 16 10 100 88 99 100 26 43 77 66 72 46 8 5 5 7 57 73 79 45 49
100 100 100 100 100 100 100 100 100 100 92 8 32 85 93 95 47 5 18 36 50 97 80 70 100 100 100 66 100 91 97 5 5 84 19 5 5 6 27 100 91 100 99

GFSSE_prec_cloud_051.txt.gz
Cloud_Cover
82 65 100 86 88 7 5 5 6 83 97 64 44 6 5 5 4 4 0 5 8 22 5 0 0 0 0 0 0 0 0 0 0 0 0 0 0 0 0 0 0 33 1
92 57 74 22 5 33 17 5 2 5 5 5 5 5 5 5 5 4 5 30 100 42 1 2 0 3 0 0 0 0 0 0 0 0 0 0 0 5 29 5 5 5 5
89 94 25 54 20 5 4 2 4 5 5 58 83 65 8 5 5 5 4 5 5 5 5 5 5 1 2 0 0 0 4 0 0 1 0 0 12 7 37 69 54 5 1
92 84 40 54 37 5 5 5 5 45 85 49 14 69 31 5 8 5 5 5 12 27 5 5 5 2 0 0 0 0 0 0 0 0 0 0 2 95 100 9 4 47 17
90 68 46 99 100 81 100 70 97 98 71 5 58 64 5 5 11 11 5 73 78 5 5 5 5 5 2 0 0 0 0 0 0 0 0 0 0 39 74 29 66 86 19
83 78 13 74 100 100 82 95 100 100 72 62 92 25 5 76 41 75 50 98 61 38 10 24 5 5 3 0 0 0 2 0 0 0 0 1 2 77 57 7 91 96 91
100 100 100 99 100 100 100 100 100 36 95 100 99 100 100 100 85 57 39 99 95 48 5 5 8 3 7 5 5 2 0 0 0 0 0 0 3 4 2 3 1 7 78
100 100 100 100 100 100 100 100 100 96 100 100 100 100 100 100 100 82 77 94 91 5 24 3 5 5 5 3 4 3 4 0 0 2 2 17 88 75 68 0 67 0 0
100 100 100 100 100 100 100 100 100 100 100 100 100 100 100 100 100 99 76 85 95 24 1 1 5 5 11 5 5 4 4 96 93 46 2 0 0 0 2 4 0 0 2
100 100 100 100 100 100 100 100 100 100 100 100 100 100 100 100 100 100 100 80 100 58 39 100 75 48 6 5 5 99 96 57 53 14 5 4 1 1 1 0 0 0 0
100 100 100 100 100 100 100 100 100 100 100 100 100 100 100 100 100 100 100 100 100 5 15 72 20 5 100 98 80 77 100 24 9 23 14 5 1 20 89 1 1 2 5
98 100 100 100 100 100 100 100 100 100 100 100 100 100 100 100 100 100 100 100 100 46 100 64 97 77 99 100 100 100 75 94 100 99 17 1 20 35 38 7 5 0 4
100 100 100 100 100 100 100 100 100 100 100 100 100 100 100 100 100 100 100 100 100 54 79 100 100 100 100 100 84 82 16 13 5 5 5 0 3 7 13 15 18 6 0
100 100 100 100 100 100 100 100 100 100 100 100 100 100 100 100 100 100 100 100 100 100 51 87 100 100 48 24 46 87 58 5 5 4 6 5 57 65 7 10 18 25 2
98 100 100 100 100 100 100 100 100 100 100 100 100 100 100 100 100 100 100 100 96 100 100 100 79 93 99 90 76 87 41 24 54 65 73 5 16 9 5 5 14 19 17
94 89 100 100 100 100 100 100 100 100 100 100 100 100 100 100 100 100 100 100 100 100 94 100 99 100 88 61 38 100 97 58 15 5 18 3 5 5 5 5 0 0 6
99 100 100 100 100 100 100 100 100 100 100 100 100 100 100 100 100 100 100 100 98 84 100 100 66 61 73 100 76 99 89 1 5 30 5 5 5 5 4 0 0 0 3
100 100 100 100 100 100 100 100 100 100 100 100 100 100 100 100 100 100 100 100 100 100 100 100 100 100 91 92 11 5 43 11 7 59 84 37 4 0 0 0 0 0 0
100 100 100 100 100 100 100 100 100 100 100 100 100 100 100 100 100 56 100 100 100 100 100 100 76 56 79 33 7 55 42 8 19 5 4 0 0 0 0 0 0 0 0
100 100 100 100 100 100 100 100 100 100 100 100 100 100 100 100 100 100 100 97 100 100 100 68 61 87 98 63 47 43 9 5 5 0 0 0 0 0 0 0 0 0 0
92 53 96 97 100 100 100 100 100 100 100 100 100 100 100 100 100 100 100 100 100 95 100 69 6 20 46 91 47 64 4 3 0 0 0 0 0 3 4 0 0 0 0
100 100 28 59 58 100 100 100 100 100 100 100 100 100 100 100 100 100 93 37 64 100 100 27 38 5 5 11 13 5 14 6 1 5 5 5 1 0 0 1 1 0 0
100 100 100 20 5 12 64 84 79 92 100 100 99 100 100 100 63 96 96 50 99 70 11 9 5 5 23 29 5 9 5 5 8 5 5 2 0 5 5 2 0 0 0
100 78 21 86 100 82 52 66 100 91 97 93 100 100 100 100 100 94 99 100 98 67 14 5 5 37 52 75 96 100 66 87 6 13 5 5 0 0 3 5 5 5 5
100 100 90 100 100 100 100 73 70 94 17 85 100 100 100 98 100 100 97 75 31 5 30 53 65 97 100 98 100 27 8 5 5 5 0 5 4 3 0 5 5 5 5
100 100 100 100 100 100 83 66 97 100 100 100 97 82 56 100 99 92 74 26 74 93 82 96 99 100 100 100 54 5 5 5 5 5 5 4 5 4 34 5 5 5 5

GFSSE_prec_cloud_054.txt.gz
Cloud_Cover
92 75 8 76 100 100 100 88 34 47 68 87 100 41 5 5 5 0 0 2 0 1 0 7 4 0 0 0 0 0 0 0 0 0 0 0 0 0 0 0 6 59 25
59 64 4 15 100 100 100 91 8 59 53 99 100 95 8 5 3 5 2 0 0 0 0 0 0 0 0 0 0 0 0 0 0 0 0 0 0 0 0 0 4 4 10
88 48 16 7 97 95 2 0 3 4 2 5 5 5 5 5 5 5 5 2 0 0 5 0 0 0 0 0 0 0 0 0 0 0 0 0 0 0 0 0 0 72 100
74 89 59 70 5 18 5 5 5 5 5 5 4 5 5 26 5 5 5 0 0 0 39 4 3 0 0 1 0 0 0 0 0 0 0 0 0 0 0 0 5 29 100
100 100 100 86 99 6 36 26 5 5 13 5 5 5 28 83 5 5 5 22 4 5 5 5 4 4 3 4 4 4 0 0 0 0 0 0 0 0 0 4 1 6 4
43 93 100 100 100 83 55 72 5 65 96 91 8 26 74 77 79 11 83 80 60 28 6 50 5 6 5 5 4 0 1 0 2 0 0 0 0 0 0 0 70 76 1
64 100 78 100 100 100 100 96 66 86 100 100 100 100 100 99 100 100 97 74 98 70 66 88 27 5 6 2 0 0 0 0 0 0 0 0 0 1 0 3 0 3 100
100 97 84 100 100 100 100 100 100 100 100 100 100 100 100 100 100 100 100 88 100 100 90 100 67 71 7 1 0 4 2 0 0 0 0 0 8 2 0 0 0 0 0
100 100 100 100 100 100 100 100 100 100 99 100 100 100 100 100 100 100 100 98 100 90 100 96 100 53 5 27 12 4 0 0 3 4 6 1 4 0 2 0 1 0 0
100 100 100 100 100 100 100 100 100 100 100 100 100 100 100 100 100 100 100 100 100 100 100 100 100 83 88 8 5 4 5 5 6 38 12 98 96 1 5 0 0 0 0
100 100 100 100 100 100 100 100 100 100 100 100 100 100 100 100 100 100 100 100 100 100 100 100 100 100 100 96 37 5 15 61 100 100 91 6 16 53 44 4 5 5 0
100 100 100 100 100 100 100 100 100 100 100 100 100 100 100 100 100 100 100 100 100 100 100 100 100 100 100 100 23 76 100 100 91 89 50 87 17 41 83 12 5 3 1
100 100 100 100 100 100 100 100 100 100 100 100 100 100 100 100 100 100 100 100 100 100 100 100 48 100 100 73 98 100 100 77 14 90 94 99 57 15 37 28 18 0 0
100 100 100 100 100 100 100 100 100 100 100 100 100 100 100 100 100 100 100 100 100 100 100 100 100 100 100 100 99 95 67 100 100 94 98 88 89 65 4 25 17 19 0
100 100 100 100 100 100 100 100 100 100 100 100 100 100 100 100 100 100 100 100 100 100 100 100 100 100 100 98 41 88 84 18 32 89 100 78 19 1 8 5 3 0 0
100 100 100 100 100 100 100 100 100 100 100 100 100 100 100 100 100 100 100 100 100 100 100 100 100 100 100 100 98 100 27 20 98 8 7 3 0 2 3 5 7 19 16
82 64 100 100 100 100 100 100 100 100 100 100 100 100 100 100 100 100 100 100 100 100 100 100 100 100 100 9 39 17 97 99 6 22 5 5 1 5 5 1 0 0 0
71 100 100 94 100 100 100 100 100 100 100 100 100 100 100 100 100 100 100 100 100 100 39 100 100 90 5 51 100 100 75 20 31 5 5 5 4 3 2 0 0 0 0
100 100 100 100 100 100 100 100 100 100 100 100 100 100 100 100 100 100 100 94 100 100 99 72 100 70 97 100 100 71 18 5 5 22 4 1 0 0 0 0 0 0 0
100 100 100 100 100 100 100 100 100 100 100 100 100 100 100 100 100 96 100 100 100 90 100 100 100 100 100 31 16 16 5 5 5 5 3 0 0 0 0 0 0 0 0
100 100 100 95 100 100 100 100 100 100 100 100 100 100 100 100 100 100 100 100 100 100 100 100 100 39 33 38 16 5 5 5 2 0 0 0 0 0 0 0 0 0 0
100 100 99 81 80 96 100 100 100 100 100 100 100 100 100 100 100 100 100 100 100 100 99 100 100 7 5 5 8 28 39 7 6 4 0 4 5 1 1 4 3 5 5
100 100 100 96 60 70 96 100 100 100 100 100 100 100 100 100 100 100 100 100 85 43 58 100 82 6 38 5 47 21 48 50 5 5 4 4 5 5 5 2 5 5 5
100 100 90 76 69 100 100 93 99 62 42 82 100 100 100 100 100 100 100 100 99 92 100 99 25 8 5 5 44 97 100 78 5 5 5 5 2 5 5 23 72 74 7
100 100 99 55 29 97 100 100 100 100 99 71 79 97 100 100 100 100 100 100 100 100 90 88 21 5 42 100 100 100 100 24 34 60 5 5 4 68 91 98 54 4 5
100 100 100 100 38 69 57 98 94 92 97 60 100 100 100 100 100 100 100 100 100 100 100 100 65 100 91 98 100 100 100 100 79 38 6 5 5 9 60 26 67 39 16

GFSSE_prec_cloud_057.txt.gz
Cloud_Cover
97 93 80 100 100 100 100 95 98 99 58 89 100 99 70 84 13 37 5 5 5 1 5 0 3 0 0 0 0 0 0 0 0 0 0 0 0 0 0 0 4 63 74
72 64 100 100 100 100 100 88 11 7 7 29 20 14 60 7 5 4 1 0 5 1 0 0 0 0 0 0 0 0 0 0 0 0 0 0 0 0 0 0 0 5 31
100 100 58 100 100 40 76 16 5 5 4 4 5 5 5 5 5 4 0 0 0 0 4 2 0 0 0 0 0 0 0 0 0 0 0 0 0 2 4 12 20 2 13
91 69 24 100 100 100 33 20 0 5 5 5 5 5 5 5 5 5 4 4 0 0 0 0 3 3 5 4 0 0 0 0 1 2 15 0 0 27 99 17 33 59 87
91 100 72 100 100 100 81 5 5 5 5 5 87 6 5 5 5 5 5 5 5 5 5 5 5 5 5 5 4 10 15 1 3 3 0 0 0 1 0 0 8 0 5
100 100 60 75 100 66 88 5 5 5 5 87 64 5 5 5 5 20 5 5 5 25 14 65 100 5 94 21 5 3 1 0 2 0 0 0 0 0 0 0 0 0 1
49 100 100 97 100 92 93 100 5 12 78 81 100 94 86 88 100 72 76 96 100 95 100 87 100 21 100 43 23 4 1 2 1 4 0 0 0 0 0 0 2 0 25
100 100 100 100 100 100 99 49 78 100 100 100 100 100 100 100 100 100 98 100 99 97 100 100 55 100 72 29 5 5 2 4 0 4 0 1 0 0 0 0 0 4 1
100 100 100 100 100 100 100 100 100 100 100 100 100 95 100 100 100 100 100 100 100 100 100 100 100 100 72 79 24 95 72 5 4 4 11 2 0 2 2 0 0 3 1
100 100 100 100 100 100 100 100 100 100 100 100 100 100 100 100 100 100 100 100 100 100 100 100 100 98 100 100 100 57 24 16 5 5 5 5 5 5 18 100 78 5 6
100 100 100 100 100 100 100 100 100 100 100 100 100 100 100 100 100 100 100 99 100 100 100 100 100 100 100 100 91 99 82 41 14 5 14 48 99 54 43 30 35 4 5
100 100 100 100 100 100 100 100 100 100 100 100 100 100 100 100 100 100 100 100 100 100 100 100 100 100 100 100 100 97 76 68 80 100 100 100 100 54 98 48 50 51 17
100 100 100 100 100 100 100 100 100 100 100 100 100 100 100 100 100 100 100 100 98 100 100 100 94 100 100 66 83 72 82 100 100 100 100 100 20 62 16 62 34 2 5
100 100 100 100 100 100 100 100 100 100 100 100 100 100 100 100 100 100 100 100 100 100 100 81 100 97 100 100 77 100 100 97 100 93 58 100 28 51 100 100 29 0 0
100 100 100 100 100 100 100 100 100 100 100 100 100 100 100 100 100 100 100 100 100 97 100 100 100 100 68 84 100 100 100 100 100 100 55 56 25 80 100 22 7 4 0
100 100 100 100 100 100 100 100 100 100 100 100 100 100 100 100 100 100 100 100 100 100 100 100 100 100 100 100 100 100 100 100 57 11 66 67 100 94 13 5 2 3 5
100 100 100 100 100 100 100 100 100 100 100 100 100 100 100 100 100 100 100 100 100 100 100 100 100 100 100 100 19 92 62 83 96 99 100 100 21 5 0 0 0 0 0
97 100 100 100 100 100 100 100 100 100 100 100 100 100 100 100 100 100 100 100 100 100 100 100 100 100 100 100 73 42 8 65 100 82 13 5 6 8 4 0 0 0 0
46 27 13 74 93 100 100 100 100 100 100 100 100 100 100 100 100 100 100 100 100 100 100 100 100 100 98 66 90 93 100 82 96 33 5 5 1 0 0 0 0 0 0
96 67 97 100 100 100 100 100 100 100 100 100 100 100 100 100 100 100 100 100 100 100 100 100 96 100 100 99 100 100 100 62 44 15 5 5 3 0 0 0 0 0 0
97 100 100 100 100 100 100 100 100 100 100 100 100 100 100 100 100 100 100 100 100 100 100 100 100 100 100 98 100 29 60 34 5 5 5 3 1 5 5 5 4 2 4
100 100 99 100 100 53 100 100 100 100 100 100 100 100 100 100 100 100 100 100 100 100 100 100 100 100 100 80 39 28 17 83 70 17 5 3 5 5 4 5 2 5 5
99 100 100 99 97 100 100 100 100 100 100 100 100 100 100 100 100 100 100 100 100 100 100 100 71 83 100 91 12 5 14 87 69 78 6 7 4 5 5 5 5 22 66
44 100 100 100 100 100 100 98 92 59 100 100 100 100 100 100 100 100 100 100 100 100 93 99 100 100 98 94 100 34 74 98 99 52 92 17 5 1 5 5 21 17 30
52 91 100 66 100 42 61 35 23 58 76 74 26 66 99 99 98 95 100 100 100 100 100 100 100 99 100 100 95 100 98 100 87 95 98 100 95 39 69 61 13 51 5
100 87 26 100 32 58 12 8 15 94 100 100 100 100 100 100 100 100 98 98 100 100 100 100 100 100 100 100 100 91 100 100 100 99 98 35 15 51 25 20 16 5 27

GFSSE_prec_cloud_063.txt.gz
Cloud_Cover
24 100 100 100 90 66 100 100 59 69 25 61 100 100 76 34 9 5 24 41 29 5 5 4 1 0 0 0 0 0 0 0 0 0 1 0 1 0 23 63 100 60 46
99 98 100 100 100 100 98 16 94 100 71 17 100 100 78 35 60 95 100 16 5 5 0 0 0 0 0 0 0 0 0 0 0 0 0 56 52 4 1 0 0 100 100
4 65 100 100 100 100 100 92 12 5 12 66 14 10 100 98 98 69 8 1 0 0 0 0 0 0 0 0 0 0 0 0 2 0 0 4 8 40 16 0 5 100 100
100 100 100 100 100 100 100 100 100 100 86 52 81 64 1 16 5 0 0 0 0 0 0 0 0 0 0 0 0 0 3 5 5 5 4 0 21 49 96 54 72 77 100
100 100 100 100 100 100 100 100 100 100 100 99 11 5 5 15 5 5 0 0 0 0 0 0 0 0 2 5 4 5 5 5 5 5 3 0 0 3 0 0 94 100 100
100 100 100 100 72 100 100 100 100 100 100 100 70 84 55 8 5 5 5 0 4 3 5 0 5 5 5 78 74 96 20 52 5 5 5 3 0 0 0 4 0 22 99
100 100 61 99 100 100 100 100 100 100 83 7 5 27 37 94 48 14 8 5 5 5 26 5 99 96 100 100 97 97 22 5 13 5 5 3 1 0 0 0 0 0 5
100 100 100 100 100 100 100 100 100 100 100 100 100 100 100 93 96 100 49 5 5 50 100 100 100 100 100 95 32 100 70 5 5 5 3 5 2 0 0 0 0 0 0
100 100 100 100 100 100 100 100 100 100 84 100 100 100 100 100 100 100 100 100 100 100 100 100 100 100 100 95 91 94 98 6 5 5 5 4 4 4 2 4 0 0 0
100 100 100 100 100 100 100 100 100 100 100 100 100 100 100 100 100 100 100 100 100 100 100 100 100 100 100 100 29 85 100 100 8 46 5 26 55 94 54 5 5 5 0
100 100 100 100 100 100 100 100 100 100 100 100 100 100 100 100 100 100 100 100 100 100 100 100 100 100 100 95 100 72 48 59 99 50 99 71 32 4 5 5 10 5 15
100 100 100 100 100 100 100 100 100 100 100 100 100 100 100 100 100 100 100 100 100 100 100 100 100 100 91 71 96 100 100 41 26 5 5 5 64 36 5 5 10 83 100
100 100 100 100 100 100 100 100 100 100 100 100 100 100 100 100 100 100 100 100 100 100 100 100 94 100 54 38 44 79 49 6 5 5 5 12 2 5 24 74 96 100 100
100 100 100 100 100 100 100 100 100 100 100 100 100 100 100 100 100 100 100 98 100 100 100 98 96 99 92 87 46 49 97 74 5 6 50 73 100 100 100 100 100 18 5
100 100 100 100 100 100 100 100 100 100 100 100 100 100 100 100 100 99 100 100 100 100 81 100 95 38 68 15 10 72 28 72 81 100 82 100 100 100 100 100 100 100 83
100 100 100 100 100 100 100 100 100 100 100 100 100 100 100 99 100 100 95 100 100 100 100 100 98 90 57 89 65 100 100 100 100 100 100 100 100 100 100 100 100 100 100
100 100 100 100 100 100 100 100 100 100 100 100 100 100 100 88 83 100 95 100 100 100 100 100 72 86 100 100 100 100 99 100 100 100 100 100 100 100 100 100 90 94 5
100 100 100 100 100 100 100 100 100 100 100 100 100 100 94 77 83 100 100 98 100 100 100 100 100 100 100 100 100 100 100 100 100 100 100 100 100 100 100 90 90 18 5
100 100 100 100 100 100 100 100 100 100 100 100 100 100 100 100 100 100 100 100 100 100 100 100 100 100 100 100 100 100 100 100 94 100 100 100 100 100 100 100 62 50 33
75 58 55 100 100 100 100 100 100 100 100 100 100 100 100 100 100 100 100 100 100 100 100 100 100 100 100 100 100 100 100 100 100 100 100 100 100 100 98 96 6 86 100
100 19 35 98 100 100 100 100 100 100 100 100 100 100 100 100 100 100 100 100 100 100 100 100 100 100 100 100 100 100 100 100 100 97 100 100 99 42 5 5 36 10 5
91 85 44 6 100 100 100 100 100 100 100 100 100 100 100 100 100 100 100 100 100 100 100 100 100 100 100 100 100 100 100 100 100 100 99 71 68 100 96 100 78 47 5
32 30 50 92 98 98 88 90 100 100 100 100 100 100 100 100 100 100 100 100 100 100 100 100 100 100 100 100 100 100 100 100 100 100 100 100 96 100 96 89 7 5 67
46 22 40 28 4 3 5 44 98 100 7 44 92 100 100 100 100 98 100 100 100 92 100 100 100 100 100 100 100 100 100 100 100 99 69 92 97 81 69 37 5 62 77
89 100 100 97 80 100 99 100 100 100 79 44 16 8 5 82 100 100 100 100 100 100 100 100 100 100 100 100 100 100 100 100 100 100 100 100 100 100 78 48 49 5 5
89 100 100 100 100 100 100 100 100 100 100 91 80 71 79 58 73 65 65 95 100 100 100 100 100 100 100 100 100 100 100 100 100 100 100 100 100 100 100 52 66 5 61

GFSSE_prec_cloud_066.txt.gz
Cloud_Cover
95 100 100 100 100 100 94 100 100 85 81 8 7 43 100 99 45 13 5 38 47 23 5 22 18 0 1 0 0 0 0 0 0 9 1 13 19 91 99 100 47 0 25
99 48 52 34 100 99 100 62 99 98 90 30 5 10 7 51 24 17 5 2 26 37 5 4 0 0 0 2 0 0 0 0 0 6 22 98 100 100 78 96 100 100 25
52 59 71 100 79 100 100 100 100 100 100 100 100 100 100 56 99 36 6 11 40 72 8 0 0 0 0 0 7 27 0 0 0 0 2 52 84 100 17 100 100 100 100
100 37 83 100 49 100 100 100 100 100 100 100 100 100 100 57 6 4 74 23 4 5 4 0 2 0 0 0 0 0 0 0 0 7 5 10 48 52 100 94 100 100 100
100 15 100 86 100 100 100 100 100 100 100 100 100 100 100 100 85 100 86 5 20 84 5 4 0 0 0 0 0 5 2 5 25 99 64 5 3 2 22 85 100 100 100
10 72 100 100 100 100 100 100 100 100 100 100 100 100 100 100 100 100 100 100 100 15 5 0 5 0 0 5 5 38 5 99 100 100 34 3 1 0 0 0 88 100 100
87 100 100 100 100 100 100 100 100 100 100 100 97 100 100 100 92 77 29 30 96 40 3 33 2 1 94 100 100 100 100 100 60 16 5 5 0 0 1 5 92 98 100
99 100 100 100 100 100 100 100 100 100 100 100 100 100 100 100 100 100 43 7 34 69 62 51 2 93 100 100 100 67 98 97 100 68 12 6 1 1 1 61 70 98 100
100 100 100 100 100 100 100 100 100 100 100 100 100 100 100 100 100 100 97 100 100 100 64 97 100 100 100 100 88 88 22 30 70 79 99 18 5 4 2 4 8 26 5
100 100 100 100 100 100 100 100 100 100 100 100 100 100 100 100 100 100 100 100 100 100 100 100 100 100 100 100 99 11 45 6 74 96 78 42 6 4 5 5 5 5 1
100 100 100 100 100 100 100 100 100 100 100 100 100 99 100 100 93 100 100 100 100 100 100 99 100 100 93 100 90 46 85 54 90 73 100 100 6 5 0 4 5 70 44
100 100 100 100 100 100 100 100 100 100 100 100 100 100 100 100 100 100 100 98 97 100 100 100 76 97 87 96 100 100 86 33 5 49 68 5 5 2 2 5 2 5 5
100 100 100 100 100 100 100 100 100 100 100 100 100 100 100 100 100 100 100 100 100 100 100 100 98 86 58 84 95 26 97 41 68 5 15 96 9 5 5 44 31 99 37
100 100 100 100 100 100 100 100 100 100 100 100 100 100 100 100 100 100 100 100 100 98 50 94 100 100 10 77 100 11 12 55 78 54 56 12 65 96 100 100 95 38 100
100 100 100 100 100 100 100 100 100 100 100 100 100 100 100 100 100 100 100 90 100 69 40 83 99 98 94 74 82 94 15 77 50 94 100 100 100 100 100 100 100 100 96
100 100 100 100 100 100 100 100 100 100 100 100 100 100 100 100 100 100 100 99 90 70 55 97 100 100 100 100 78 93 46 82 90 100 98 99 100 100 70 36 54 100 100
100 100 100 100 100 100 100 100 100 100 100 100 100 100 100 100 100 100 100 88 6 6 66 84 18 60 100 100 95 79 100 99 35 81 100 100 100 100 100 95 100 100 100
100 100 100 100 100 100 100 100 100 100 100 100 100 100 100 100 100 100 100 95 69 96 62 76 93 90 63 81 84 99 100 100 100 69 99 100 100 100 100 100 100 100 100
100 100 100 100 100 100 100 100 100 100 100 100 100 100 100 100 100 100 100 100 100 88 100 100 99 80 79 100 100 100 69 90 100 100 100 100 100 100 100 100 100 100 75
100 100 100 100 100 100 100 100 100 100 100 100 100 100 100 100 100 100 100 100 100 95 100 100 100 100 100 100 100 98 92 100 100 100 100 100 100 100 100 100 100 77 100
100 100 100 100 100 97 100 100 100 100 100 100 100 100 100 100 100 85 97 100 100 100 100 100 100 100 100 100 97 100 100 100 100 100 100 100 100 100 47 100 100 100 100
93 97 91 77 18 45 100 100 100 100 100 100 100 100 100 100 100 100 100 100 100 100 100 100 100 100 100 100 100 100 100 100 100 100 100 100 72 100 100 99 89 90 12
38 47 34 5 2 1 9 90 100 100 100 100 100 100 100 100 100 100 100 100 100 100 100 100 100 100 100 100 100 100 100 98 100 100 100 100 100 59 100 100 99 97 36
35 20 33 48 19 34 100 10 100 100 100 100 100 100 100 100 100 100 100 100 100 100 100 100 100 100 100 80 100 100 100 100 100 100 100 100 100 71 97 100 100 93 88
3 46 100 100 100 100 100 100 26 100 100 100 100 100 100 100 100 100 100 100 100 100 100 100 83 99 75 100 100 100 100 100 100 100 100 100 100 99 100 100 100 100 100
5 13 89 100 100 100 100 97 81 100 97 100 100 100 100 100 100 98 70 100 100 100 100 62 100 70 95 95 100 100 100 100 100 100 100 100 100 100 100 100 100 100 100

GFSSE_prec_cloud_069.txt.gz
Cloud_Cover
99 100 96 5 100 100 7 66 100 84 100 100 100 6 5 100 53 4 5 5 31 51 50 5 2 4 4 2 11 0 0 0 21 23 35 79 99 100 86 0 0 3 15
100 36 11 8 34 9 92 21 98 100 100 100 86 16 40 48 8 1 88 98 94 100 91 57 30 5 5 0 0 0 0 0 0 21 96 100 98 80 100 77 0 2 9
84 22 98 90 93 21 99 69 100 100 100 99 100 97 100 100 89 82 18 5 6 100 100 87 99 100 35 0 2 1 0 0 0 3 76 99 100 100 100 100 100 80 50
86 75 100 40 32 95 100 100 100 100 100 100 100 100 100 100 100 100 74 56 98 100 100 100 100 99 100 20 5 0 0 0 0 0 8 57 93 100 100 100 100 100 100
68 100 90 23 92 96 100 99 99 100 100 100 100 100 100 100 100 100 100 100 100 100 100 100 100 100 80 22 1 0 0 0 0 1 4 14 68 83 100 100 100 100 66
94 100 100 100 100 100 100 100 100 100 100 100 100 100 100 100 100 78 79 98 67 73 100 100 100 99 6 2 0 0 2 5 5 13 48 57 28 7 100 100 81 95 9
38 64 36 84 100 100 100 100 100 100 100 100 100 100 100 99 100 87 65 40 67 29 99 85 74 7 4 5 0 56 19 71 81 80 99 57 58 46 93 100 100 21 100
82 64 71 93 100 100 100 100 100 100 100 100 100 94 100 55 66 100 92 74 100 38 75 87 62 7 5 4 65 57 81 94 78 5 19 23 81 93 93 54 100 81 84
100 100 100 100 100 100 100 100 100 100 100 100 100 100 100 94 58 85 93 66 41 99 100 100 100 95 96 98 100 92 56 88 51 23 5 5 5 17 35 24 79 48 3
100 100 100 100 100 100 100 100 100 100 100 100 100 100 100 100 88 100 100 94 7 82 100 100 56 51 84 5 67 100 100 99 22 6 31 6 39 5 5 5 4 0 1
100 100 100 100 100 100 100 100 100 100 100 100 100 100 100 100 99 100 100 100 99 78 15 100 100 93 100 100 100 96 32 8 46 100 56 8 11 5 5 2 0 0 4
100 100 100 100 100 100 100 100 100 100 100 100 100 100 100 100 100 100 100 100 96 32 96 100 100 99 40 47 52 93 5 11 93 6 24 5 6 5 4 5 56 13 76
100 100 100 100 100 100 100 100 100 100 100 100 100 100 100 100 100 100 100 100 100 74 70 92 94 100 85 94 52 42 5 5 5 5 5 14 5 5 5 6 22 19 18
100 100 100 100 100 100 100 100 100 100 100 100 100 100 100 100 100 100 100 96 100 94 100 100 24 100 99 95 56 5 17 5 5 5 5 17 5 5 5 5 5 95 72
100 100 100 100 100 100 100 100 100 100 100 100 100 100 100 100 100 100 99 100 91 100 89 36 5 76 98 78 35 43 49 69 5 5 17 8 10 16 84 5 92 100 45
100 100 100 100 100 100 100 100 100 100 100 100 100 100 100 100 100 100 100 100 100 100 5 38 22 29 100 96 100 99 18 5 66 45 68 92 94 95 100 100 100 83 82
100 100 100 100 100 100 100 100 100 100 100 100 100 100 100 100 100 100 100 100 100 100 98 98 66 66 100 99 88 5 45 98 71 96 100 100 100 100 100 100 100 100 100
100 100 100 100 100 100 100 100 100 100 100 100 100 100 100 100 100 100 100 100 100 100 100 85 78 60 100 100 100 99 87 100 100 100 100 100 100 100 100 100 100 100 100
100 100 100 100 100 100 100 100 100 100 100 100 100 100 100 100 100 100 100 100 100 100 100 100 100 100 100 100 100 100 100 100 97 100 100 100 100 100 100 100 100 100 100
100 100 100 100 100 100 100 100 100 100 100 100 100 100 100 100 100 100 100 100 100 100 100 100 100 100 100 100 100 100 100 100 100 100 100 100 100 100 100 100 100 100 100
100 100 100 100 100 100 100 100 100 100 100 100 100 100 100 100 100 100 100 100 100 100 100 100 100 100 100 100 100 100 100 100 100 100 100 100 100 100 100 100 100 53 94
100 100 100 100 100 100 100 100 100 100 100 100 100 100 100 100 100 100 100 100 100 100 100 100 100 100 100 100 100 100 100 100 100 100 100 100 98 95 83 94 100 80 91
100 99 83 100 100 100 100 100 100 100 100 100 100 100 100 100 100 100 100 100 100 100 100 100 100 100 100 100 100 100 100 100 100 100 100 100 100 100 100 100 81 95 100
90 96 45 65 61 61 100 100 100 100 100 100 100 100 100 100 100 100 100 100 100 100 100 100 100 100 100 100 100 100 100 100 100 100 100 100 100 100 100 100 86 97 99
84 36 23 50 7 14 93 99 100 100 100 100 100 100 100 100 100 100 100 100 100 100 100 100 100 100 100 100 100 100 99 100 63 100 100 100 100 100 100 100 100 100 100
16 9 38 98 12 4 5 5 5 5 13 12 68 60 70 59 100 100 100 100 100 100 100 100 100 100 100 100 88 52 27 99 100 100 100 100 100 100 100 100 100 96 100

GFSSE_prec_cloud_072.txt.gz
Cloud_Cover
16 85 49 100 2 92 98 86 11 4 87 100 100 100 91 67 100 45 100 34 48 64 100 98 61 89 56 29 68 5 3 54 100 100 100 100 97 21 21 21 9 58 65
79 97 84 94 41 50 100 28 43 24 92 100 100 100 100 16 0 8 95 100 100 90 7 7 6 16 96 90 30 74 8 1 6 0 13 17 100 76 18 23 0 27 51
100 97 99 8 57 90 99 99 99 45 53 100 97 100 93 10 10 5 5 60 69 94 71 96 9 59 13 92 85 100 56 4 50 95 100 100 94 44 10 17 12 86 50
100 100 73 57 56 91 98 76 32 12 4 9 100 89 58 20 68 100 100 100 100 100 100 100 97 94 83 100 100 100 99 17 0 6 58 74 98 100 88 45 35 47 82
99 76 100 96 100 100 100 100 100 93 91 72 87 83 100 91 100 100 100 100 100 96 100 100 100 100 92 100 19 22 5 1 0 1 60 100 100 100 100 8 55 97 66
100 95 65 48 100 100 100 83 100 100 100 99 100 100 100 100 100 100 100 100 100 100 100 100 100 70 69 10 4 3 0 0 0 5 10 12 100 100 91 98 85 2 96
81 100 100 100 100 100 100 99 100 63 100 100 100 100 100 100 100 100 100 100 100 67 80 88 59 35 5 5 5 2 0 3 39 29 10 35 100 100 86 100 89 41 90
53 66 100 94 100 100 100 100 100 100 100 100 100 100 100 100 100 100 100 100 100 99 100 45 6 5 5 5 3 5 3 96 91 61 93 90 99 17 94 99 22 72 3
97 64 94 98 100 100 100 100 100 100 100 100 100 100 100 100 100 100 100 100 100 100 67 62 61 68 96 34 86 94 100 98 100 24 14 7 6 11 5 5 5 5 2
100 100 100 100 100 100 100 100 100 100 100 100 100 100 100 100 100 100 100 100 100 100 59 63 32 100 100 5 81 75 28 6 6 5 5 13 16 6 5 5 5 5 5
100 100 100 100 100 100 100 100 100 100 100 100 100 100 100 100 100 100 100 100 100 100 100 57 96 100 100 100 100 94 97 97 50 22 18 5 5 5 5 5 5 5 0
100 100 100 100 100 100 100 100 100 100 100 100 100 100 100 100 100 100 100 100 100 100 100 100 100 97 100 89 72 92 100 93 100 95 24 5 5 5 4 5 4 2 4
100 100 100 100 100 100 100 100 100 100 100 100 100 100 100 100 100 100 100 100 100 100 100 84 100 100 79 35 47 66 100 94 69 84 85 89 61 77 62 79 28 5 25
100 100 100 100 100 100 100 100 100 100 100 100 100 100 100 100 100 100 100 100 100 100 100 97 96 100 99 35 64 97 98 100 97 99 100 100 100 100 100 100 100 100 100
100 100 100 100 100 100 100 100 100 100 100 100 100 100 100 100 100 100 100 100 100 100 100 100 100 99 91 88 75 23 89 99 99 100 100 100 100 100 100 100 100 100 100
100 100 100 100 100 100 100 100 100 100 100 100 100 100 100 100 100 100 100 100 100 100 100 100 86 77 92 55 68 74 60 72 99 100 100 100 100 100 100 100 100 100 100
100 100 100 100 100 100 100 100 100 100 100 100 100 100 100 100 100 100 100 100 100 100 100 100 100 100 99 86 100 98 81 97 100 100 100 100 100 100 100 100 100 100 100
100 100 100 100 100 100 100 100 100 100 100 100 100 100 100 100 100 100 100 100 100 100 100 100 100 100 100 96 85 72 87 94 100 85 100 100 100 100 100 100 100 100 100
100 100 100 100 100 100 100 100 100 100 100 100 100 100 100 100 100 100 100 100 100 100 100 100 100 98 100 99 100 100 100 100 99 95 100 100 100 100 100 100 100 100 100
100 100 100 100 100 100 100 100 100 100 100 100 100 100 100 100 100 100 100 100 100 100 100 100 100 100 100 100 100 100 100 100 100 100 100 100 100 100 100 100 100 100 95
100 100 100 100 100 100 100 100 100 100 100 100 100 100 100 100 100 100 100 100 100 100 100 100 100 100 100 100 100 100 100 100 100 100 100 100 100 100 100 100 100 100 100
100 86 98 100 100 100 100 100 100 100 100 100 100 100 100 100 100 100 100 100 100 100 100 99 100 100 100 100 100 100 100 100 100 100 100 100 100 100 100 100 100 100 100
95 70 62 100 100 100 100 100 100 100 100 100 100 100 100 100 100 100 100 100 100 100 100 100 100 100 100 100 100 100 100 100 100 100 100 100 100 100 100 92 100 100 100
98 69 100 100 90 90 100 100 100 100 100 100 100 100 100 100 100 100 100 100 100 100 100 100 100 100 100 100 100 100 100 100 100 100 100 99 100 100 100 100 100 100 100
100 100 73 90 53 27 94 100 100 100 100 100 100 100 100 100 100 100 100 100 100 100 100 100 100 100 100 100 100 100 100 100 100 100 100 100 64 100 100 100 99 100 100
100 100 95 34 74 82 60 99 100 100 100 100 100 99 100 100 100 100 100 100 100 100 100 100 100 100 100 100 100 100 100 95 100 89 95 100 84 100 100 100 100 100 100

GFSSE_prec_cloud_075.txt.gz
Cloud_Cover
58 12 0 3 2 4 96 88 15 5 70 6 12 82 95 100 90 70 20 36 82 52 83 23 100 100 100 100 100 100 16 5 5 5 3 46 59 42 58 6 96 100 100
54 63 35 20 4 7 18 10 36 70 73 37 100 66 96 100 100 100 100 100 100 100 100 100 67 99 100 57 72 100 21 12 35 54 24 8 32 74 98 6 34 99 100
49 52 8 5 2 4 14 42 36 80 30 18 77 99 100 57 100 100 100 100 100 97 86 86 100 99 100 16 24 99 5 5 56 61 6 16 76 100 95 0 17 32 54
93 67 53 4 4 0 4 22 85 42 10 5 5 71 99 79 80 100 100 67 72 12 91 100 100 94 100 100 38 5 24 100 52 2 10 48 79 76 94 58 68 3 16
100 99 67 83 78 100 5 50 63 51 25 5 5 17 100 100 66 100 100 100 100 100 44 81 23 35 10 5 32 5 16 5 2 0 72 89 76 25 7 50 89 90 57
100 79 57 27 100 100 100 60 100 78 98 100 66 6 17 100 100 100 100 100 100 100 100 88 87 68 11 73 95 5 1 0 0 0 62 100 100 99 5 38 100 37 46
57 98 77 28 68 48 100 100 84 90 99 98 93 6 58 90 100 100 100 100 100 63 63 90 88 55 71 81 5 5 1 2 3 5 90 100 92 21 32 100 2 16 5
96 100 100 100 85 100 100 100 100 94 100 100 100 97 100 98 100 100 100 100 100 100 94 100 99 100 48 29 16 5 5 3 0 5 72 94 57 94 47 11 26 0 0
100 96 98 100 100 100 100 100 100 100 100 100 100 100 100 100 100 100 100 100 100 100 95 100 87 41 92 37 5 6 100 99 5 76 99 55 92 7 16 4 5 3 4
100 100 100 100 100 100 100 100 100 100 100 100 100 100 100 100 100 100 100 100 100 99 5 5 98 43 7 90 71 6 28 100 71 98 77 54 20 5 4 4 5 5 5
100 100 100 100 100 100 100 100 100 100 100 94 100 100 100 100 100 100 100 100 100 100 5 5 41 53 84 72 90 65 87 96 92 19 85 85 32 20 25 5 5 5 5
100 100 100 100 100 100 100 100 91 98 100 100 100 100 100 100 100 100 100 96 100 59 61 64 97 67 97 78 95 85 55 57 94 100 99 96 94 24 95 39 6 6 5
100 100 100 100 100 100 100 100 99 100 100 100 100 100 100 100 100 100 100 100 38 6 67 62 89 69 18 87 100 89 54 50 91 97 98 100 100 100 100 80 84 77 91
100 100 100 100 100 100 100 100 100 100 100 100 100 100 100 100 100 100 100 100 100 93 97 49 70 96 90 100 96 100 99 92 40 100 100 100 99 100 100 100 100 100 100
100 100 100 100 100 100 100 100 100 100 100 100 100 100 100 100 100 100 100 100 100 100 66 74 93 70 100 79 92 84 100 97 90 74 68 100 99 100 100 100 100 100 100
100 100 100 100 100 100 100 100 100 100 100 100 100 100 100 100 100 100 100 100 100 100 98 100 100 78 98 98 100 99 88 85 68 89 40 97 100 100 100 100 100 100 100
100 100 100 100 100 97 100 100 100 100 100 100 100 100 100 100 100 100 100 100 100 100 99 100 97 79 82 78 100 100 96 100 100 100 100 100 100 100 100 100 100 100 100
97 100 100 100 100 100 100 100 100 100 100 100 100 100 100 100 100 100 100 100 100 100 100 100 100 100 100 100 95 98 99 100 100 98 100 100 100 100 100 100 100 100 100
100 94 100 100 100 100 100 100 100 100 100 100 100 100 100 100 100 100 100 100 100 100 100 100 100 100 100 100 100 93 100 100 100 100 100 100 100 100 100 100 100 100 90
100 97 100 100 100 100 100 100 100 100 100 100 100 100 100 100 100 100 100 100 100 100 100 100 100 100 100 100 100 100 88 100 100 100 100 100 100 100 100 100 100 96 99
100 100 100 100 100 100 100 100 100 100 100 100 100 100 100 100 100 100 100 100 100 100 100 100 100 100 100 100 100 100 100 100 100 100 100 100 100 100 100 100 100 100 100
100 100 100 100 100 100 100 100 100 100 100 100 100 100 100 100 100 100 100 100 100 100 100 100 100 100 100 100 100 100 100 100 100 100 100 100 100 100 100 100 100 94 87
100 100 100 100 100 100 100 100 100 100 100 100 100 100 100 100 100 100 100 100 100 100 100 100 100 100 100 100 100 100 100 100 100 100 100 100 100 100 100 99 100 100 100
96 100 80 100 100 100 100 100 94 100 100 100 100 100 100 100 100 100 100 100 100 100 100 100 100 100 100 100 100 100 100 100 100 100 100 100 100 100 100 100 100 100 100
100 100 100 89 100 100 100 98 100 100 100 100 100 100 100 100 100 100 100 100 100 100 100 100 100 100 100 100 100 100 100 100 100 100 100 98 52 80 100 100 99 100 100
100 97 100 98 95 69 100 98 97 100 100 100 100 100 100 100 100 100 100 100 100 100 100 100 100 100 100 100 100 100 100 100 100 96 91 98 87 100 63 100 100 100 100

GFSSE_prec_cloud_078.txt.gz
Cloud_Cover
69 40 0 0 1 2 16 3 100 100 44 6 50 12 76 37 100 100 100 100 98 60 86 68 99 99 22 48 49 100 94 92 18 6 29 56 83 55 46 7 72 87 70
73 60 24 0 5 2 0 4 77 79 6 5 5 97 95 89 100 88 84 100 99 90 14 100 100 58 94 88 95 100 81 98 6 6 5 100 100 100 63 13 19 76 96
62 39 6 0 5 5 4 2 4 94 75 70 91 96 96 100 100 100 96 100 35 99 100 100 100 100 100 100 7 5 5 5 5 1 10 100 83 100 82 100 100 100 100
83 85 80 11 0 0 0 0 2 2 94 99 5 47 100 100 100 100 100 100 45 100 100 100 100 100 100 81 5 5 0 5 4 24 45 100 100 90 100 100 91 77 40
95 99 78 0 0 2 63 49 8 18 7 67 5 10 45 96 100 100 100 100 100 100 100 98 67 28 16 5 4 5 4 5 5 44 81 66 61 86 66 16 6 2 0
92 82 65 52 99 33 100 99 100 100 94 30 53 71 69 100 100 100 94 98 100 100 100 100 35 59 5 5 73 5 55 5 4 8 50 0 5 39 10 36 5 5 3
51 98 17 100 100 100 100 99 100 100 100 95 52 8 98 100 99 96 100 100 100 100 94 21 96 58 48 95 100 35 26 5 4 5 0 5 70 97 15 7 5 5 5
99 100 100 100 97 100 100 100 100 100 100 100 100 100 75 100 100 100 63 100 100 100 69 88 86 98 49 93 80 22 5 5 5 2 2 93 96 48 5 58 5 6 5
99 100 100 100 100 100 100 100 82 100 97 100 100 100 100 100 100 100 100 100 100 43 95 100 100 100 90 83 26 100 100 99 73 55 5 48 100 68 66 87 9 5 7
100 100 100 100 100 100 100 100 100 74 100 100 100 100 100 100 100 100 100 100 100 100 100 100 95 98 78 12 84 44 92 50 79 95 42 62 100 32 63 11 14 9 17
100 100 100 100 100 100 100 100 100 100 71 100 100 100 100 100 100 100 100 93 100 100 100 100 74 100 98 97 51 56 97 92 77 100 63 90 100 100 97 100 31 99 82
100 100 100 100 100 100 100 100 86 100 100 100 100 100 100 100 100 100 100 100 100 100 100 100 100 81 63 36 60 64 69 97 71 18 91 64 58 92 100 100 92 99 98
96 100 100 100 100 100 100 100 100 100 100 100 100 100 100 100 100 100 100 100 100 100 100 100 100 51 20 9 40 78 100 97 23 68 99 44 96 100 100 100 100 100 100
100 100 100 100 100 100 100 100 100 100 100 100 100 100 100 100 100 100 100 100 100 100 100 96 35 49 63 6 13 58 47 56 98 72 100 46 99 77 100 100 100 100 100
76 87 100 100 100 100 100 100 100 100 100 100 100 100 100 100 100 100 100 100 100 100 100 81 98 98 94 50 40 83 32 48 99 100 79 38 52 100 99 100 100 100 98
70 56 99 100 100 100 100 100 100 100 100 100 100 100 100 100 100 100 100 100 100 100 100 92 100 50 100 82 70 62 8 27 95 83 20 92 100 100 82 100 100 100 100
33 74 66 100 100 100 100 100 100 100 100 100 100 100 100 100 100 100 100 100 100 100 100 100 71 96 95 99 93 100 38 100 100 23 73 100 100 100 100 100 100 100 100
67 46 48 81 100 100 100 100 100 100 100 100 100 100 100 100 100 100 100 100 100 100 100 100 100 100 100 100 100 100 100 36 14 70 91 78 69 100 100 100 100 100 100
19 66 62 100 100 100 100 100 100 100 100 100 100 100 100 100 100 100 100 100 100 100 100 100 100 100 100 100 100 100 95 46 7 56 82 100 100 100 100 100 100 100 100
12 85 95 100 100 100 100 100 100 100 100 100 100 100 100 100 100 100 100 100 100 100 100 100 100 100 100 100 100 100 82 100 95 78 97 100 100 100 100 100 100 100 100
41 86 78 100 100 100 100 100 100 100 100 100 100 100 100 100 100 100 100 100 100 100 100 100 100 100 100 99 100 100 100 100 100 100 100 100 100 100 100 100 100 100 100
54 86 87 100 100 100 100 100 100 100 100 100 100 100 100 100 100 100 100 100 100 100 90 100 92 80 95 98 100 100 100 100 100 100 100 100 100 100 100 100 100 100 100
72 99 100 100 100 100 100 100 100 100 100 100 100 100 100 100 100 100 100 100 100 100 100 100 100 100 100 100 100 100 100 100 100 100 100 100 100 100 100 100 100 100 100
5 93 100 100 100 100 100 100 100 100 100 100 100 100 100 100 100 100 100 100 100 100 100 100 100 100 100 100 100 100 100 100 100 100 100 100 100 100 100 100 100 100 100
3 97 99 98 94 100 100 100 100 100 100 100 100 100 100 100 100 100 100 100 100 100 100 100 100 100 100 100 100 100 100 100 100 100 100 100 100 100 100 100 100 61 100
0 35 96 100 100 100 100 100 86 92 100 100 100 100 100 100 100 100 100 100 100 100 100 100 100 100 100 100 100 100 100 100 100 100 100 100 100 100 100 100 100 100 100

GFSSE_prec_cloud_081.txt.gz
Cloud_Cover
0 0 0 0 0 16 31 4 10 0 24 51 24 2 5 5 5 12 87 46 34 73 67 97 9 100 100 100 87 53 11 87 27 27 43 74 100 91 36 15 74 92 90
3 27 19 0 0 0 0 0 0 0 0 100 97 5 5 5 16 57 100 72 71 90 100 100 100 79 96 100 82 22 82 94 25 4 10 60 100 83 16 7 8 83 15
0 92 8 2 0 4 4 0 0 0 2 99 96 95 69 79 5 53 98 93 19 52 100 100 100 100 57 90 100 100 82 100 10 4 22 96 87 86 40 10 11 93 100
0 61 64 5 0 0 0 0 0 0 0 3 41 93 72 100 75 66 36 33 50 100 100 91 83 100 100 100 100 100 95 84 21 5 92 92 50 95 98 100 100 100 100
20 18 36 0 0 0 0 0 0 5 2 5 82 100 52 100 79 91 100 100 100 100 96 100 100 81 38 85 100 100 98 9 19 90 90 63 100 100 100 39 78 95 37
7 38 40 4 5 3 5 90 9 57 100 100 100 100 100 71 100 100 100 98 95 51 96 53 100 100 100 100 50 52 89 100 100 90 20 72 78 100 38 5 15 9 20
18 11 61 19 98 19 81 100 100 100 100 100 100 100 100 72 93 100 100 100 99 40 50 100 100 100 97 97 54 96 98 100 25 94 69 16 89 51 11 6 34 8 5
18 29 28 59 98 98 100 100 100 100 100 100 100 100 100 100 77 97 100 100 100 99 36 100 100 100 46 98 61 100 92 22 3 1 2 6 15 5 5 80 18 30 12
6 52 100 79 97 99 100 100 100 100 100 100 100 100 100 100 100 100 100 100 90 98 89 95 96 63 72 96 92 59 9 5 2 8 36 42 21 5 28 6 86 5 24
60 52 99 68 100 100 100 100 100 100 100 100 100 100 100 100 100 100 100 100 100 89 100 100 82 100 100 100 16 93 14 84 100 88 99 7 5 5 69 30 95 100 100
92 100 95 96 100 100 100 100 100 100 100 100 100 100 100 100 100 100 100 100 100 76 100 100 100 100 100 100 99 68 84 57 35 47 91 97 78 76 59 91 83 96 100
85 97 88 82 100 100 100 96 78 100 100 100 100 100 100 100 100 100 100 98 100 100 100 100 100 100 100 100 100 91 79 58 84 68 96 99 100 74 26 96 98 100 100
96 71 100 100 100 100 100 100 100 100 100 100 100 100 100 100 100 100 100 100 99 52 100 100 100 100 100 100 57 17 6 46 96 59 68 82 99 98 100 100 100 100 100
97 93 76 65 100 100 100 89 94 94 100 100 100 100 100 100 100 100 100 100 100 100 100 100 100 100 100 55 33 12 5 28 95 88 99 67 95 100 100 100 100 100 100
56 96 82 80 81 100 100 100 94 100 100 100 100 100 100 100 100 100 100 100 100 100 100 100 100 100 100 100 33 75 28 60 100 96 98 100 100 95 100 100 49 99 100
5 31 100 98 100 98 100 97 68 100 100 100 100 100 100 100 100 100 100 100 100 100 100 100 100 92 98 65 100 98 95 31 51 61 95 81 6 100 100 100 99 100 76
1 6 88 77 100 75 93 100 100 100 100 100 100 100 100 100 100 100 100 100 100 100 99 100 99 100 100 59 100 100 86 85 100 99 100 47 100 100 59 99 74 98 100
0 0 86 100 67 100 100 100 100 100 100 100 100 100 100 100 100 100 100 100 100 100 100 100 100 100 100 100 100 82 100 100 88 65 70 37 35 59 84 100 100 100 100
0 1 97 85 79 91 100 97 100 100 100 100 100 100 100 100 100 100 100 100 100 100 100 100 100 100 100 100 99 92 100 100 92 100 94 58 70 57 85 99 100 100 100
0 1 99 56 44 66 100 100 100 100 100 100 100 100 100 100 100 100 100 100 100 100 100 100 100 100 100 100 100 100 100 100 98 100 98 100 100 94 86 100 100 100 100
0 11 100 68 99 100 100 100 100 100 100 100 100 100 100 100 100 100 100 100 100 100 100 100 100 100 100 100 100 100 100 100 100 100 100 100 100 100 100 100 100 100 100
0 20 98 95 99 100 100 100 100 100 100 100 100 100 100 100 100 100 100 100 100 100 100 100 100 100 100 100 100 100 100 100 100 100 100 100 100 100 100 100 100 100 100
1 9 89 90 100 100 100 100 100 100 100 100 100 100 100 100 100 100 100 100 100 100 100 100 100 100 100 100 100 100 100 100 100 100 100 100 100 100 100 100 100 100 100
0 2 52 63 100 100 100 100 100 100 100 100 100 100 100 100 100 100 100 100 100 100 100 100 100 100 100 100 100 100 100 100 100 100 100 100 100 100 100 100 100 100 100
0 0 73 97 100 100 100 100 91 100 100 100 100 100 100 100 100 100 100 100 100 100 100 100 100 100 100 100 100 100 100 100 100 100 100 100 100 100 100 100 100 100 100
0 0 5 83 75 100 97 100 38 99 100 100 100 100 100 100 100 100 100 100 100 100 100 100 100 100 100 100 100 100 100 100 100 100 100 100 100 100 100 100 100 100 98

GFSSE_prec_cloud_084.txt.gz
Cloud_Cover
3 0 0 0 0 0 0 0 0 0 0 1 3 5 1 4 0 63 5 5 1 5 5 5 5 5 24 5 68 86 42 87 83 41 8 100 100 44 10 11 80 44 6
0 0 0 0 0 0 0 0 0 0 0 0 5 5 5 5 5 10 5 5 5 5 5 71 68 16 100 9 19 60 100 100 100 44 63 100 100 94 69 100 100 37 6
5 0 0 0 0 0 0 6 34 0 0 0 0 2 16 13 5 5 5 5 5 81 30 100 97 100 91 40 98 100 100 100 100 100 95 94 96 100 98 35 7 74 100
8 8 11 0 0 0 4 5 4 3 1 0 3 5 100 96 74 5 5 5 5 69 96 100 100 100 100 100 100 100 100 100 94 100 100 100 100 100 100 100 100 100 100
0 2 34 0 0 0 0 0 0 0 3 33 5 17 100 100 100 52 5 1 5 92 70 100 100 100 80 62 67 100 100 100 100 100 95 100 100 100 100 100 100 90 10
0 26 25 0 0 0 0 8 21 55 55 76 96 96 100 100 100 100 100 5 5 94 61 100 100 100 100 99 100 100 100 97 100 100 100 92 100 100 100 100 99 77 90
0 16 16 0 0 3 9 100 100 100 100 100 100 100 100 100 100 100 100 52 40 92 100 100 100 100 92 69 100 100 97 100 100 99 90 81 100 100 100 100 92 100 32
0 7 33 10 5 5 22 100 100 100 100 100 100 100 100 100 100 100 100 99 98 100 100 100 100 77 74 100 98 77 84 82 95 12 5 90 100 100 99 87 98 6 7
0 39 98 29 5 84 97 98 100 100 100 100 100 100 100 100 100 100 100 100 100 100 100 100 100 100 100 51 100 30 99 100 89 5 5 96 100 100 54 96 18 78 78
63 99 100 82 45 92 67 100 100 100 100 100 100 100 100 100 100 100 100 100 100 100 100 100 100 100 100 75 99 100 100 99 18 98 10 93 100 98 16 5 5 37 60
70 100 74 100 8 96 100 100 75 100 100 100 100 100 100 100 100 100 100 100 100 100 100 100 99 100 100 100 100 100 100 81 90 65 33 92 100 90 46 87 57 10 22
3 100 100 47 78 97 100 100 100 100 100 100 100 100 100 100 100 100 100 99 100 100 99 94 100 100 100 100 100 100 100 100 81 11 5 20 100 64 36 85 44 74 98
0 99 94 93 34 100 100 100 100 100 100 100 100 100 100 100 100 100 100 98 95 100 96 90 99 100 100 100 100 100 100 100 90 63 92 60 10 7 66 100 53 98 100
0 46 100 52 90 49 100 99 99 100 100 100 100 100 100 100 100 100 100 100 100 88 100 98 100 100 100 100 100 100 100 100 100 40 100 100 23 59 76 100 6 81 100
0 44 37 90 53 50 5 87 100 100 100 100 100 100 100 100 100 100 100 100 100 100 100 91 100 100 100 100 100 100 100 87 83 72 90 66 17 100 100 100 96 89 58
0 0 7 51 97 64 59 65 69 100 100 100 100 100 100 100 100 100 100 100 100 100 100 100 100 100 100 100 100 100 100 100 97 100 85 96 95 94 100 96 100 100 100
0 2 8 0 100 100 58 100 96 92 92 99 100 100 100 100 100 100 100 100 100 100 100 100 100 100 100 100 100 100 100 100 100 100 98 84 100 95 89 100 27 92 99
0 31 0 0 99 100 100 53 95 100 100 96 100 100 100 100 100 100 100 100 100 100 84 100 100 100 100 100 100 69 100 100 100 91 95 100 100 100 93 99 89 99 100
0 0 0 0 99 82 100 99 100 100 100 100 100 100 100 100 100 100 100 100 100 100 100 100 100 100 100 100 100 100 100 100 100 74 96 86 100 78 89 100 100 100 100
0 0 0 0 60 95 88 100 100 100 100 100 100 100 100 100 100 100 100 100 100 100 100 100 100 100 100 100 100 100 100 100 98 94 100 100 100 99 90 97 100 100 100
0 0 0 1 68 42 100 100 100 100 100 100 100 100 100 100 100 100 100 100 100 100 100 100 100 100 100 100 100 100 100 100 100 100 100 100 74 98 100 100 100 100 100
0 0 0 7 82 100 95 98 99 100 100 100 100 100 100 100 100 100 100 100 100 100 100 95 100 100 100 100 100 100 100 100 100 100 100 100 100 100 100 100 100 100 100
0 0 0 89 56 68 100 99 100 100 100 100 100 100 100 100 100 100 100 100 100 100 100 100 100 100 100 100 100 100 100 100 100 100 100 100 100 100 100 100 100 100 100
0 0 0 100 82 81 100 100 100 100 100 100 100 100 100 100 100 100 100 100 100 100 100 100 100 100 100 100 100 100 100 100 100 100 100 100 100 100 100 100 100 100 100
0 0 0 100 86 100 100 91 100 100 100 100 100 100 100 100 100 100 100 100 100 100 100 100 100 100 100 100 100 100 100 100 100 100 83 99 100 100 100 100 100 100 100
0 0 0 100 100 100 80 100 85 100 100 100 100 100 100 100 100 100 100 100 100 100 100 100 100 100 100 100 100 100 100 100 100 100 100 100 100 100 100 100 100 100 100

GFSSE_prec_cloud_087.txt.gz
Cloud_Cover
0 7 0 0 0 0 0 0 0 0 0 0 1 0 5 0 0 0 4 5 5 5 5 5 5 100 100 4 0 0 2 5 4 54 98 100 100 90 42 23 17 51 83
0 0 0 0 0 0 0 19 52 0 0 0 0 5 5 5 5 1 1 5 5 5 5 10 37 100 99 17 5 3 5 28 98 76 100 100 100 52 100 100 16 6 70
3 5 5 4 0 0 0 0 24 0 0 0 0 5 5 5 5 5 5 4 7 77 52 78 80 100 96 57 18 5 84 92 18 64 98 99 84 100 78 24 75 100 100
0 0 0 0 0 0 0 1 4 2 1 2 3 2 5 33 92 100 9 5 94 79 91 100 100 98 96 53 100 100 95 57 91 99 88 91 57 100 100 100 100 100 100
0 0 0 0 0 0 0 0 2 4 4 5 5 5 22 19 55 98 96 18 5 12 90 88 100 5 99 100 100 99 83 96 100 83 98 100 100 100 100 100 100 66 99
0 0 0 0 0 0 0 0 0 38 41 5 98 100 99 78 97 9 100 100 100 90 50 69 24 67 56 100 100 21 52 99 100 99 100 100 100 100 100 87 54 67 100
0 0 0 0 0 0 0 0 2 22 36 100 100 100 100 100 100 100 100 100 100 100 83 99 84 77 99 91 100 100 100 100 88 64 89 100 100 100 100 100 100 100 100
0 0 68 13 0 0 0 0 1 60 76 100 100 100 100 100 100 91 100 100 100 100 100 100 92 15 100 100 100 100 99 98 94 99 32 100 100 100 100 100 98 100 75
0 1 31 100 15 0 0 1 97 79 100 100 89 100 100 100 100 100 100 100 100 98 100 100 87 81 100 100 92 100 100 100 95 56 94 100 100 100 100 100 100 93 88
0 0 55 60 100 53 0 13 95 100 100 100 100 100 100 100 100 100 100 100 100 100 100 100 95 99 73 100 100 100 100 100 100 100 100 95 100 100 100 5 99 81 92
0 0 86 100 100 12 17 84 100 100 100 100 100 100 100 100 100 100 100 100 100 100 100 100 100 98 100 100 96 100 100 100 100 100 100 100 100 96 100 83 83 58 16
5 0 82 100 100 15 24 87 100 100 100 100 100 100 100 100 100 100 100 98 98 100 100 96 95 100 98 100 100 100 100 100 100 96 100 100 100 100 80 100 96 95 98
0 0 91 54 82 100 22 96 99 100 100 100 100 100 100 100 100 100 100 100 98 100 73 83 78 97 100 49 100 100 100 100 100 100 100 100 100 90 11 52 92 100 100
0 0 0 52 100 100 92 85 100 100 100 100 100 100 100 100 100 100 100 100 100 100 98 99 66 79 31 66 100 100 100 100 100 100 100 100 100 100 88 100 100 100 18
0 0 0 2 54 54 74 89 100 100 100 100 100 100 100 100 100 100 100 100 100 100 83 90 70 93 94 100 100 100 100 100 100 100 100 100 99 66 96 100 100 100 96
0 0 0 0 5 70 50 1 85 100 100 100 100 100 100 100 100 100 100 100 100 100 90 100 100 100 87 100 99 100 100 100 100 100 100 100 100 97 57 100 100 100 100
0 0 0 0 0 54 100 95 63 32 100 100 100 100 100 100 100 100 100 100 100 100 93 79 99 61 100 100 99 100 100 100 100 100 92 100 100 86 97 100 100 100 100
0 0 0 0 0 26 46 82 56 27 98 100 100 100 100 100 100 100 100 100 100 100 100 90 90 96 100 100 100 100 100 100 100 100 100 100 100 95 100 100 100 100 99
0 17 20 0 0 2 100 99 89 80 92 100 97 100 100 100 100 100 100 100 100 100 100 100 98 100 100 100 100 100 100 100 100 100 100 100 100 100 100 100 100 96 92
0 0 0 0 0 42 100 100 100 100 100 100 93 100 100 100 100 100 100 100 100 100 100 100 100 99 100 100 100 100 100 100 100 100 100 100 100 100 100 100 100 99 100
0 2 0 0 35 87 100 100 100 100 100 100 100 100 100 100 100 100 100 100 100 100 100 100 100 100 100 100 100 100 100 100 100 100 100 100 100 100 100 100 100 100 100
0 0 0 0 15 80 100 100 100 100 100 100 100 100 100 100 100 100 100 100 100 100 100 100 100 97 100 100 100 100 100 99 100 100 100 100 100 100 100 100 100 100 100
0 0 0 0 0 85 100 100 100 100 100 100 100 100 100 100 100 100 100 100 100 100 100 100 100 99 100 99 100 100 100 100 100 100 100 100 100 100 99 86 99 100 100
11 7 0 0 0 93 100 100 100 100 100 100 100 100 100 100 100 100 100 100 100 100 100 100 100 100 100 100 100 100 100 100 100 100 100 100 100 100 100 100 100 100 100
0 0 0 0 0 45 100 100 99 66 100 100 100 100 100 100 100 100 100 100 100 100 100 100 100 100 100 100 100 100 100 100 100 100 100 100 100 100 100 100 100 100 100
5 0 0 35 0 100 100 100 100 100 96 94 96 100 100 100 100 100 100 100 100 100 100 100 100 100 100 100 100 100 100 100 100 100 100 100 100 100 100 100 100 97 100

GFSSE_prec_cloud_090.txt.gz
Cloud_Cover
40 73 0 0 0 0 0 0 0 0 0 0 0 0 0 0 0 0 0 0 5 54 37 5 5 0 4 42 0 0 0 0 1 8 89 100 100 99 97 92 94 66 18
2 46 0 0 5 5 3 0 3 1 0 0 0 0 2 0 1 0 0 0 0 5 73 58 61 97 100 14 5 5 5 0 0 5 43 65 83 100 93 67 100 91 35
0 8 20 4 3 1 0 0 0 13 24 4 0 0 3 4 5 2 4 4 0 6 90 69 99 100 100 8 5 5 31 36 7 82 100 100 98 100 77 98 83 100 100
0 0 2 0 0 0 0 0 0 0 98 3 5 5 5 5 5 5 5 5 3 3 18 91 94 96 64 5 18 6 50 92 100 100 100 100 100 100 100 100 100 100 100
0 0 0 0 0 0 0 0 32 1 1 1 0 2 5 3 5 81 12 75 48 5 7 90 65 50 16 5 5 10 48 98 100 100 73 99 100 100 76 100 100 100 100
0 0 0 0 0 0 0 0 2 30 96 4 2 0 5 64 100 100 78 11 86 99 6 98 92 76 11 5 100 100 100 100 30 95 100 100 100 100 100 100 100 100 100
0 0 0 0 0 17 17 0 0 6 5 19 80 18 100 100 100 100 100 100 32 12 5 80 100 100 93 94 100 100 100 90 98 100 100 100 100 100 100 100 100 100 98
3 0 0 0 0 11 26 29 2 39 2 30 100 100 100 100 100 100 100 100 100 72 100 100 100 100 100 100 100 100 66 93 99 100 100 100 100 100 100 100 100 100 100
4 8 71 97 60 0 5 46 65 59 29 100 100 100 100 100 100 100 100 100 100 97 93 100 98 100 96 98 100 14 100 100 100 100 100 100 100 100 100 100 100 100 100
0 0 34 8 99 78 47 55 31 12 18 100 100 100 100 100 100 100 100 100 100 99 56 98 100 47 5 88 100 100 100 100 99 100 100 100 100 100 100 100 100 100 100
0 1 56 24 21 98 95 13 0 0 95 100 100 100 100 100 100 100 100 100 100 89 99 10 21 76 11 40 100 100 91 100 100 98 100 100 100 99 100 100 100 100 71
0 0 15 34 8 96 51 86 17 4 100 100 100 100 100 100 100 100 100 100 100 100 87 64 6 50 87 100 100 100 98 100 100 100 100 100 100 100 100 100 100 100 99
0 0 8 27 16 98 47 33 31 33 100 100 100 100 100 100 100 100 100 100 100 100 74 62 90 36 96 100 100 83 98 100 100 100 100 100 100 100 100 100 83 100 99
7 1 9 20 32 88 93 20 26 32 100 100 100 100 100 100 100 100 100 100 100 100 93 67 82 78 100 100 98 74 91 100 100 100 100 100 97 100 100 100 100 100 100
1 4 10 19 3 23 100 100 47 30 100 100 100 100 100 100 100 100 100 100 100 91 63 91 15 29 70 100 100 49 98 100 100 100 100 100 100 100 100 100 100 100 100
0 0 6 11 2 12 10 68 100 43 100 100 100 100 100 100 100 100 100 100 100 93 100 100 66 98 76 80 100 77 94 100 100 100 100 100 100 100 100 99 99 100 100
0 0 12 8 4 1 0 23 35 40 100 100 100 100 100 100 100 100 100 100 100 100 100 99 77 75 52 100 100 100 98 100 100 100 100 100 100 100 100 100 100 33 100
0 0 0 1 11 1 0 42 100 35 84 100 100 100 100 100 100 100 100 100 100 100 100 99 87 76 99 100 100 65 100 100 100 100 100 100 100 100 100 100 100 97 95
0 2 11 18 19 19 27 22 79 100 88 99 100 100 100 100 100 100 100 100 100 100 100 100 70 100 97 100 100 100 100 97 100 100 100 100 100 100 100 100 100 69 100
1 8 29 26 26 89 99 77 83 100 96 46 79 100 100 100 100 100 100 100 100 100 100 100 100 100 99 100 100 100 100 100 100 100 100 100 100 100 100 100 100 100 100
45 50 47 40 97 100 100 100 100 100 100 100 96 73 100 100 100 100 100 100 100 100 100 100 100 100 100 90 100 100 100 100 100 100 100 100 100 100 100 100 100 100 100
52 39 40 43 100 100 57 60 88 97 100 100 85 88 100 100 100 100 100 100 100 100 100 100 100 100 100 96 100 100 100 100 100 100 100 100 100 100 100 100 100 100 96
46 43 39 94 100 98 4 98 99 100 100 100 100 100 100 100 100 100 100 100 100 100 100 100 100 100 100 100 100 100 100 100 100 100 100 100 99 100 100 100 100 100 100
9 12 36 77 87 90 17 100 100 100 100 100 100 100 100 100 100 100 100 100 100 100 100 100 100 100 100 100 100 100 100 100 100 100 100 100 100 100 100 100 100 100 100
11 31 44 60 65 90 15 100 100 100 79 100 100 100 100 100 100 100 100 100 100 100 100 100 100 100 100 100 100 100 100 100 100 100 100 100 100 100 100 100 100 100 100
47 20 50 50 40 71 31 100 100 100 81 64 100 100 100 100 100 100 100 100 100 100 100 100 100 100 100 100 100 100 100 100 100 100 100 100 100 100 100 100 100 100 100

GFSSE_prec_cloud_093.txt.gz
Cloud_Cover
29 45 0 0 1 0 0 0 0 0 3 21 14 1 0 0 0 0 0 0 0 3 5 5 4 4 0 3 10 0 0 0 0 4 83 94 100 100 26 1 9 25 49
9 73 3 0 0 0 0 0 0 0 52 3 36 1 0 0 0 0 0 0 0 2 5 20 33 5 98 56 2 0 0 0 0 0 10 88 66 70 72 99 98 98 82
38 70 23 0 0 0 0 0 0 0 4 97 93 19 0 0 0 1 0 0 0 47 56 23 96 62 100 30 7 8 30 15 8 93 51 98 83 100 100 100 100 100 97
19 68 36 0 0 3 0 0 0 0 42 23 14 41 5 2 4 37 28 4 4 94 64 5 5 15 100 100 96 18 33 5 5 43 62 100 93 100 100 100 95 70 100
3 47 53 0 0 0 0 0 0 62 100 44 50 7 3 5 60 89 96 81 61 5 3 0 50 95 18 100 100 30 5 70 80 16 89 80 100 100 100 100 100 100 100
0 0 4 4 0 0 0 0 9 98 14 97 90 40 84 9 5 5 5 8 80 93 6 5 5 100 100 100 100 93 26 96 95 100 75 100 96 100 100 100 100 100 100
0 0 0 5 15 5 0 4 14 6 86 63 86 100 18 18 43 10 58 100 100 100 67 5 5 96 100 100 100 100 43 100 100 100 100 94 100 100 100 100 100 100 100
5 1 0 0 7 45 16 10 9 37 54 27 43 72 81 100 100 100 100 100 100 100 100 65 5 74 100 100 100 82 91 100 96 78 100 99 100 100 100 100 100 100 100
8 5 2 0 0 42 35 15 32 100 92 0 17 99 100 100 100 100 100 100 100 100 87 100 100 100 100 100 64 89 100 100 100 100 100 100 100 100 100 100 100 100 100
29 10 21 18 14 27 22 44 82 90 100 46 48 100 100 100 100 100 100 100 100 100 100 93 99 100 100 100 99 99 88 100 100 100 100 93 100 100 100 100 100 100 99
40 24 24 27 22 26 68 72 98 100 100 66 46 80 94 100 100 100 96 100 100 100 100 59 94 100 87 22 36 47 34 100 100 100 100 100 100 100 100 100 100 100 100
20 55 100 35 27 26 32 100 100 100 97 100 100 100 81 100 100 100 100 100 100 100 100 100 100 100 98 60 20 79 100 82 99 100 100 100 100 100 100 100 100 100 100
0 8 98 54 22 19 25 100 100 100 39 36 100 100 100 100 100 100 100 100 100 100 100 100 100 98 99 100 87 100 26 100 100 100 100 100 100 100 100 100 100 100 100
4 5 24 71 57 32 71 65 82 80 87 97 100 100 100 100 100 100 100 100 100 100 100 100 86 96 87 97 96 80 77 100 100 100 100 100 100 100 100 100 100 100 100
4 5 13 46 48 61 100 93 38 48 100 100 100 100 100 100 100 100 100 100 100 100 100 100 100 90 100 100 100 100 100 100 93 100 100 100 100 100 100 100 100 100 100
4 5 11 25 31 32 40 79 97 66 99 100 100 100 100 100 100 100 100 100 100 100 100 100 71 100 100 98 99 100 100 95 77 99 100 100 100 98 100 100 100 100 100
32 10 20 40 25 23 20 12 100 100 98 100 100 100 100 100 100 100 100 100 100 100 100 100 100 100 100 54 100 65 100 95 100 97 100 100 100 100 100 100 100 100 100
41 5 20 51 39 29 23 23 27 100 92 100 100 100 100 100 100 100 100 100 100 100 100 100 54 100 100 100 98 98 97 100 100 100 100 100 100 100 100 100 100 100 100
65 5 41 43 38 31 24 34 33 33 86 96 100 100 100 100 100 100 100 100 100 100 100 100 99 100 100 100 100 98 99 97 84 100 100 100 92 100 100 100 100 100 100
49 5 23 57 51 41 91 81 64 50 44 100 95 100 100 100 100 100 100 100 100 100 100 100 100 100 100 100 100 100 100 99 83 100 99 100 100 100 100 100 100 100 100
6 27 66 100 100 100 100 100 100 100 73 75 100 70 100 100 100 100 100 100 100 100 100 100 92 100 100 100 100 100 89 100 100 99 100 100 100 100 100 100 100 100 100
47 66 100 100 100 100 100 100 98 100 64 98 53 68 82 100 100 100 100 100 100 100 100 100 100 100 100 100 100 100 97 100 100 100 100 100 100 100 100 100 100 100 100
78 100 100 100 100 100 99 80 92 92 94 93 70 100 59 92 100 100 100 100 100 100 100 100 100 100 100 100 100 100 100 100 100 100 100 100 100 100 100 100 100 100 99
100 97 89 100 100 100 44 39 78 61 100 92 68 100 100 100 98 100 100 100 100 100 100 100 100 100 100 100 100 100 100 100 100 100 100 100 100 100 100 100 100 100 100
100 90 91 100 100 100 49 10 25 44 69 35 88 100 100 100 100 100 100 100 100 100 100 100 100 100 100 100 100 100 100 100 100 100 100 100 100 100 100 100 100 100 100
100 97 100 100 100 100 39 9 1 29 99 80 88 100 100 100 100 100 100 100 100 100 100 100 100 100 100 100 100 100 100 100 100 100 100 100 100 100 100 100 100 100 100

GFSSE_prec_cloud_096.txt.gz
Cloud_Cover
0 39 76 19 3 2 0 0 0 12 3 0 0 0 19 63 3 0 0 0 0 0 0 2 5 5 5 12 1 0 0 2 17 13 1 13 66 100 72 12 5 5 100
7 37 0 0 8 0 0 0 0 3 21 0 36 30 75 86 22 1 0 0 0 0 0 5 5 5 26 27 5 0 2 0 0 0 0 96 98 40 34 44 8 98 100
0 65 30 5 1 0 0 0 0 3 21 28 46 85 94 94 98 0 2 0 0 1 0 0 22 12 100 20 6 5 5 2 0 32 16 27 38 61 100 100 100 100 100
4 88 43 0 0 0 0 0 0 0 57 76 28 98 20 81 5 1 0 5 5 4 5 4 4 39 100 88 100 100 99 67 100 99 15 68 20 97 79 42 100 84 100
38 82 35 4 2 1 0 0 0 0 0 32 71 20 100 3 78 5 3 5 1 5 5 5 35 20 99 100 100 100 100 68 52 23 82 100 100 31 42 81 38 100 100
40 96 97 2 4 8 2 0 0 0 37 97 4 99 31 57 98 99 6 5 5 5 5 9 11 6 92 43 99 100 100 100 100 98 33 70 72 34 100 100 100 100 100
18 20 37 8 0 7 1 0 0 6 1 2 69 86 34 100 100 100 81 32 20 100 73 72 43 19 24 45 48 100 100 100 100 69 61 99 69 100 100 100 100 100 100
3 4 1 33 12 15 3 0 0 0 0 0 1 35 100 9 100 100 100 100 100 100 100 100 100 32 9 99 98 100 100 100 100 95 74 98 100 100 100 100 100 100 100
2 14 10 5 37 47 13 1 15 50 20 0 3 5 30 18 79 100 100 100 100 100 100 100 100 99 21 100 100 61 89 100 85 87 84 70 100 100 100 100 100 100 100
29 12 19 17 19 40 49 66 48 100 99 20 23 23 5 63 85 93 100 100 100 100 100 100 100 100 100 100 99 100 100 100 100 100 56 100 100 100 100 100 100 100 100
78 27 24 30 29 25 27 91 99 100 100 95 75 51 21 23 98 100 100 100 100 100 100 100 100 78 92 61 68 100 100 100 99 83 55 100 100 100 100 100 100 100 100
100 95 60 31 35 41 47 99 85 100 100 97 57 100 100 87 89 96 97 100 100 100 100 100 100 17 94 42 58 97 99 77 82 8 100 100 100 100 100 100 100 100 100
59 51 100 70 33 38 68 81 100 99 100 100 100 100 100 100 100 100 100 100 100 100 100 100 100 83 98 100 100 100 100 89 75 100 79 100 100 100 100 100 100 100 100
6 7 100 98 41 28 36 52 73 100 100 100 100 100 100 96 100 100 100 100 100 100 100 100 100 100 79 59 98 100 100 100 100 98 96 100 100 100 100 100 100 100 100
0 0 60 100 95 45 30 28 74 100 100 90 75 71 100 100 100 100 100 100 100 100 100 100 100 90 98 84 71 99 95 96 92 96 100 100 100 100 100 100 100 100 100
0 0 10 100 100 100 74 30 31 62 100 99 86 99 100 100 100 100 100 100 100 100 100 100 100 100 100 59 95 92 79 59 100 100 100 97 100 100 100 100 100 100 100
0 0 8 56 99 99 59 45 53 63 100 100 100 100 100 100 100 100 100 100 100 100 100 100 100 100 100 99 62 100 99 100 95 100 80 100 100 100 100 100 100 100 100
0 0 0 25 86 74 45 40 46 87 97 98 99 100 100 100 100 100 100 100 100 100 100 100 100 100 100 100 85 98 100 88 100 98 70 100 100 100 100 100 100 100 100
0 0 5 65 100 82 34 31 28 38 100 100 100 98 100 100 100 100 100 100 100 100 100 100 100 100 100 100 97 48 99 100 89 99 55 100 100 100 100 100 100 100 100
0 0 6 94 100 63 68 81 72 77 89 100 100 100 100 100 100 100 100 100 100 100 100 100 100 100 100 100 68 100 100 100 100 88 80 100 100 100 100 100 100 100 100
4 58 34 99 100 98 100 100 100 100 100 81 100 100 91 100 100 100 100 100 100 100 100 100 100 100 100 100 100 83 91 91 69 100 100 99 100 100 100 100 100 100 100
23 99 39 92 100 100 100 100 100 100 100 77 40 51 100 100 100 100 100 100 100 100 100 100 100 100 100 100 100 100 100 100 97 100 100 78 97 100 99 100 100 100 100
33 100 49 88 99 100 100 100 100 100 100 90 82 56 72 78 100 100 100 100 100 100 100 100 100 100 100 100 100 98 100 100 100 100 100 96 95 100 100 100 100 100 100
58 98 79 95 99 100 100 100 100 100 93 100 59 23 50 13 96 100 100 100 100 100 100 100 100 100 100 100 100 100 100 100 100 100 100 100 100 100 100 100 100 100 100
52 99 96 100 100 100 100 100 100 40 3 38 13 62 100 78 14 100 100 100 100 100 100 100 100 100 100 100 100 100 100 100 100 100 100 100 100 100 100 100 100 100 100
77 100 100 100 100 100 100 80 13 15 98 96 69 100 100 100 100 97 100 100 100 100 100 100 100 100 100 100 100 100 100 100 100 100 100 100 100 100 100 100 100 100 100

GFSSE_prec_cloud_099.txt.gz
Cloud_Cover
0 0 83 100 0 0 0 0 0 0 0 0 0 0 0 0 0 54 10 0 0 4 20 4 1 0 86 65 1 0 0 0 0 0 0 4 36 72 35 5 13 41 13
0 0 100 100 30 0 0 0 0 0 0 0 0 0 41 40 6 92 0 0 0 0 16 0 2 5 19 3 3 3 3 3 0 0 0 94 98 99 45 22 20 93 38
0 0 34 100 10 0 0 0 16 10 0 0 0 0 8 90 62 3 98 2 1 0 1 3 4 23 30 12 5 5 5 5 5 0 0 95 71 73 22 100 100 100 23
0 2 12 6 0 0 0 0 0 18 21 0 0 9 3 86 12 100 49 2 2 3 1 1 6 9 23 5 65 5 5 34 23 5 69 100 99 68 100 97 90 29 86
0 0 16 1 0 1 0 0 0 0 50 7 0 28 1 75 82 35 52 17 0 0 1 2 8 15 29 100 72 52 24 95 99 74 100 99 92 100 31 5 35 5 7
0 0 25 14 2 0 0 0 0 0 18 86 53 52 2 22 5 77 99 100 98 4 0 0 10 5 21 39 67 5 5 83 100 99 83 64 79 61 5 80 100 23 90
8 14 28 1 8 28 3 0 0 0 7 100 70 74 1 31 98 100 100 100 100 52 25 18 20 21 4 81 100 5 51 81 94 100 99 100 56 26 66 89 84 100 98
0 32 26 11 3 8 67 10 0 0 0 0 0 5 57 21 34 100 100 100 100 100 100 100 100 100 100 100 100 20 5 91 100 76 55 27 37 65 57 98 100 100 100
0 10 34 40 20 20 0 0 0 0 0 0 0 0 28 0 22 94 89 99 100 100 100 100 100 100 100 100 100 100 8 94 11 46 67 60 59 100 89 100 100 100 100
1 0 1 44 68 58 48 12 5 0 1 0 0 1 5 4 34 100 100 96 100 100 100 100 100 100 100 100 5 100 36 52 100 24 85 85 70 72 92 100 100 100 100
64 10 18 22 41 56 56 82 79 99 100 56 2 3 7 1 0 57 47 100 100 100 100 100 100 100 100 100 100 89 82 32 100 82 88 23 46 99 100 100 100 100 100
100 94 44 41 55 50 54 100 100 99 100 100 82 39 34 60 77 82 85 100 100 100 100 100 100 100 100 76 80 41 98 94 94 100 93 84 26 100 100 100 100 100 100
92 100 87 83 56 38 69 100 100 100 92 100 100 100 98 100 100 100 99 100 100 100 100 100 100 100 100 97 74 100 83 86 100 93 64 28 54 100 100 100 100 100 100
82 99 100 90 61 47 44 100 100 100 100 100 100 100 100 100 100 100 98 100 100 100 100 100 100 94 100 98 72 100 93 57 78 86 67 79 100 100 100 100 100 100 97
5 15 90 100 74 37 35 41 82 98 98 99 100 100 100 100 100 98 100 96 100 100 100 100 100 100 100 100 100 84 99 100 44 73 99 100 44 100 100 100 100 100 96
5 0 44 100 100 59 32 39 32 55 100 100 100 100 100 99 94 100 100 100 100 100 100 100 100 100 100 100 74 94 100 100 70 70 61 100 45 100 100 100 100 100 100
2 0 5 100 100 100 98 35 38 44 97 100 94 100 100 100 77 100 100 100 100 100 100 100 100 100 100 51 84 98 40 72 72 69 97 76 100 100 95 100 100 100 100
5 5 0 51 100 100 100 66 63 98 100 99 98 54 85 96 87 100 100 100 100 100 100 100 100 100 100 100 100 100 86 90 100 99 100 99 95 100 100 100 100 100 100
4 1 0 6 100 100 97 68 66 100 100 100 97 100 100 99 83 100 100 100 100 100 100 100 100 100 100 100 100 98 95 74 91 48 99 100 90 90 99 100 100 100 100
5 5 2 4 93 100 99 83 90 100 100 100 99 99 100 100 100 100 100 100 100 100 100 100 100 100 100 100 100 94 92 100 97 94 100 96 100 84 100 100 100 100 100
5 0 0 6 100 100 100 100 100 100 100 100 100 100 100 100 100 100 100 100 100 100 100 100 100 100 100 100 100 100 100 99 100 100 100 100 100 91 97 77 100 100 100
2 0 0 0 100 98 100 100 100 94 100 87 100 100 84 100 100 100 100 100 100 100 100 100 100 100 100 100 100 97 100 100 100 100 100 98 99 86 98 100 100 100 98
3 0 0 0 68 90 100 100 100 100 100 100 100 100 100 100 100 100 100 100 100 100 100 100 100 100 100 100 100 100 100 100 100 100 100 97 92 89 91 98 86 98 100
0 0 0 4 56 73 100 100 100 34 99 100 100 70 30 50 87 100 100 100 100 100 100 100 100 100 100 100 98 100 100 100 100 100 100 100 100 100 93 92 95 100 100
0 0 19 35 81 100 100 99 100 100 100 74 80 36 25 36 21 76 100 100 100 100 100 100 100 100 100 100 100 100 100 100 100 100 100 100 100 100 99 100 99 100 100
0 9 47 79 94 100 100 97 100 100 25 24 53 32 38 89 100 57 92 100 100 100 100 100 100 100 100 100 100 100 100 100 100 100 100 100 100 100 100 100 100 100 100

GFSSE_prec_cloud_105.txt.gz
Cloud_Cover
0 0 0 0 0 0 0 0 0 0 0 0 0 0 0 0 0 0 0 0 5 0 2 12 0 5 3 0 0 0 0 0 0 0 0 2 5 0 0 0 4 25 4
0 0 6 0 0 0 0 0 0 0 0 0 0 6 0 0 0 0 1 100 5 0 51 5 0 33 100 8 0 0 0 0 0 0 0 0 0 0 2 0 1 19 5
0 0 1 0 0 0 0 0 0 0 0 0 0 22 0 0 0 0 0 4 0 0 0 5 0 0 7 5 0 0 0 0 0 0 0 31 43 7 5 1 0 5 5
0 0 0 0 0 0 0 0 0 0 0 0 0 6 0 0 0 3 1 3 0 1 0 0 0 18 14 5 2 4 0 0 0 0 30 64 70 29 6 16 32 6 5
0 0 0 0 0 0 0 0 0 0 0 0 0 0 0 0 0 0 3 2 5 54 6 100 88 88 32 5 5 5 0 2 2 13 26 99 81 93 83 100 88 7 11
0 0 40 0 0 0 0 0 0 3 0 0 0 2 0 0 5 2 4 21 71 100 100 100 100 100 100 100 61 5 5 5 5 64 51 45 80 98 97 7 8 52 5
0 0 0 0 0 0 0 0 0 8 1 54 58 23 0 0 33 100 99 10 99 95 100 100 100 100 100 100 96 96 26 5 9 97 74 75 34 6 10 70 5 0 5
0 0 0 13 0 0 0 0 0 0 2 100 100 16 11 96 75 89 89 30 93 100 100 100 100 100 100 100 100 31 84 94 77 93 31 44 48 25 97 20 5 0 0
0 4 0 9 3 40 0 0 0 0 0 2 39 0 0 1 1 11 6 4 6 96 100 100 100 100 100 100 100 43 100 100 100 100 34 99 10 64 61 90 58 73 89
3 2 0 2 16 21 4 7 0 0 0 0 0 0 0 2 0 11 76 47 0 41 96 100 100 100 100 100 100 100 100 100 100 58 100 50 51 6 100 100 100 98 96
4 5 4 0 2 1 100 19 53 26 1 9 3 2 67 0 0 0 22 14 0 12 100 100 95 100 100 100 100 100 100 70 100 100 100 97 88 46 59 100 100 100 100
1 1 0 0 0 1 100 75 38 94 19 19 6 0 0 7 9 4 3 0 32 22 34 100 100 100 100 100 100 100 100 100 74 100 100 81 100 23 75 100 100 100 100
0 4 0 5 5 16 8 38 10 18 93 100 45 43 6 7 6 26 5 4 12 0 4 96 100 100 100 100 100 100 100 100 100 100 18 91 98 100 100 100 99 99 100
5 4 5 5 5 2 1 16 66 32 33 34 80 48 21 13 6 5 44 20 22 0 44 40 100 100 100 100 100 100 97 100 100 100 96 100 89 64 100 98 100 78 78
5 5 5 5 5 1 0 10 1 11 58 20 81 90 38 60 69 31 29 32 46 31 37 49 100 100 100 100 100 100 100 100 100 58 81 100 86 100 100 100 97 22 9
18 5 5 4 0 0 0 6 2 23 77 45 35 99 60 45 48 74 35 82 86 87 22 88 100 100 100 100 100 100 100 100 100 100 98 100 100 96 83 87 100 91 46
100 5 5 0 6 4 3 5 4 8 18 35 97 95 100 76 55 97 74 66 100 41 29 100 97 100 100 100 100 100 100 100 100 100 100 100 92 70 100 46 100 86 58
100 1 1 5 6 2 5 5 4 0 11 31 100 100 68 65 77 62 98 71 92 18 56 89 100 100 100 100 100 100 100 100 100 100 100 100 100 96 95 100 100 100 60
90 5 5 16 8 11 5 4 0 2 2 5 84 90 90 53 44 82 34 63 100 100 92 100 100 100 100 100 100 100 100 100 100 100 100 100 99 99 99 98 100 100 98
9 23 51 74 9 22 14 0 0 20 39 1 8 61 100 56 18 99 98 97 92 91 100 100 91 100 100 100 100 100 100 100 100 100 100 100 84 100 100 100 100 100 100
20 100 43 5 62 19 62 0 1 31 47 100 89 78 38 50 72 98 73 97 94 100 100 100 100 100 100 100 100 100 100 100 100 100 100 76 100 100 100 100 100 100 100
99 93 92 34 5 8 60 36 4 17 94 18 38 83 20 17 16 96 98 94 100 100 100 100 100 100 100 100 100 100 100 100 100 100 100 65 100 100 100 100 99 100 100
99 74 100 100 100 96 36 2 10 47 93 64 87 83 46 12 69 100 97 89 100 100 100 100 100 100 100 100 100 100 100 100 100 100 100 87 100 100 100 100 100 84 100
72 25 8 5 5 5 6 0 4 0 24 12 49 98 78 90 96 74 83 32 100 100 100 100 100 100 100 100 100 100 100 100 100 100 100 100 100 100 96 100 100 100 98
21 5 25 5 5 5 1 1 2 6 7 1 12 52 94 88 100 100 48 87 82 100 100 100 100 100 100 100 100 100 100 100 100 100 100 100 100 99 98 100 100 100 100
32 33 13 3 5 2 5 5 0 19 0 0 0 42 85 10 100 100 91 98 75 100 100 100 100 100 100 100 100 100 100 100 100 100 100 100 100 100 96 100 100 100 100

GFSSE_prec_cloud_108.txt.gz
Cloud_Cover
0 0 0 0 0 0 0 0 0 0 0 0 0 0 0 0 0 0 0 0 0 0 7 10 0 0 0 0 0 0 0 3 5 5 4 5 4 5 7 5 14 23 5
0 0 0 0 0 0 0 0 0 0 0 0 0 0 0 0 0 0 0 0 0 0 11 0 0 0 0 0 0 0 0 0 0 0 0 3 0 0 0 17 1 6 1
0 0 0 0 0 0 0 0 0 0 0 0 0 0 0 0 0 0 0 0 5 0 4 5 0 0 0 0 0 0 0 0 0 0 0 0 0 4 0 1 5 0 4
0 0 0 0 0 0 0 0 0 3 0 0 0 0 0 0 0 0 0 0 0 0 0 7 73 58 5 18 3 0 0 0 0 0 0 0 43 16 5 6 67 58 59
0 0 0 0 0 0 0 0 0 3 8 0 0 0 0 0 0 0 0 1 1 2 5 19 80 100 100 100 100 100 74 6 0 16 0 17 20 48 41 38 100 100 100
2 0 24 0 0 0 0 0 0 0 54 0 0 0 0 0 0 0 0 0 98 5 5 96 100 100 100 100 100 100 100 100 61 58 7 80 100 100 100 100 100 100 100
18 0 0 0 0 0 0 0 7 11 0 0 0 0 0 0 0 2 5 4 100 70 6 100 100 100 100 100 100 100 100 89 5 58 60 90 5 34 95 100 100 99 97
24 5 4 5 0 0 0 0 0 7 0 38 98 25 2 0 0 4 96 9 52 12 64 100 100 100 100 100 100 100 6 5 70 59 21 24 5 4 25 8 5 5 93
6 5 21 0 0 0 0 0 0 0 0 83 100 50 0 0 0 0 5 10 45 5 27 100 100 100 100 100 100 100 18 14 58 53 100 100 26 8 62 11 59 27 64
100 5 68 5 5 5 0 7 0 0 0 0 6 0 0 0 0 0 0 2 0 0 1 91 100 100 100 100 100 100 95 14 99 78 96 93 38 100 82 91 92 100 100
100 5 34 9 0 5 0 0 43 4 1 8 1 2 67 0 0 0 0 0 0 1 0 5 43 100 100 100 100 100 100 27 99 95 62 96 100 100 100 100 100 100 98
100 5 9 53 5 1 0 0 0 0 0 0 0 0 0 0 0 3 24 0 4 1 2 70 23 28 100 100 100 100 100 95 100 100 100 93 100 100 100 100 100 91 97
100 17 20 12 5 3 2 0 0 0 0 45 0 0 0 0 0 0 100 95 5 5 6 35 6 4 100 100 100 100 100 100 99 100 100 96 100 100 99 100 100 100 100
100 100 57 25 5 2 0 0 0 0 0 0 0 1 0 0 0 0 7 11 5 23 4 34 0 2 100 100 100 100 100 100 99 100 100 66 12 100 99 100 100 100 100
100 100 100 17 5 3 1 0 0 0 6 0 0 0 0 0 0 0 3 4 4 33 4 2 0 21 34 100 100 100 100 100 70 100 95 100 84 100 100 100 74 100 87
100 100 100 59 8 0 0 0 1 4 0 0 0 80 0 0 0 0 3 0 2 3 0 0 7 39 80 100 100 100 100 100 59 100 96 54 27 100 100 77 28 72 97
100 100 100 47 22 43 4 5 5 5 2 0 0 98 100 12 0 0 1 0 0 0 0 5 9 36 99 97 100 100 100 100 100 100 100 68 95 94 97 100 42 95 100
100 100 21 61 16 28 5 5 1 0 3 0 0 40 100 68 16 9 51 100 10 0 16 28 4 97 99 100 100 100 100 100 100 100 100 100 100 100 55 100 100 100 100
100 100 5 91 100 100 63 5 2 1 1 0 0 0 100 71 2 32 13 9 25 43 20 23 54 64 100 100 100 100 100 100 100 100 100 100 100 100 100 100 98 100 100
100 100 97 100 100 100 70 17 2 5 0 0 3 3 4 44 2 0 10 20 60 91 100 77 88 94 100 100 100 100 100 100 100 100 100 100 100 100 100 100 100 95 100
100 100 100 100 100 100 69 5 8 5 5 31 31 5 2 37 0 0 1 86 100 79 100 100 100 100 100 100 100 100 100 100 100 100 100 100 100 100 100 100 95 98 100
100 100 100 100 100 100 6 5 4 29 100 9 5 4 5 5 0 0 3 97 46 100 100 100 100 100 100 100 100 100 100 100 100 100 100 100 100 100 100 100 100 100 89
100 100 100 100 100 100 64 5 24 58 11 11 9 1 5 3 1 0 5 93 41 100 100 100 100 100 100 100 100 100 100 100 100 100 100 100 100 100 100 100 100 100 100
85 100 100 100 100 100 100 14 14 5 20 8 5 53 22 1 0 0 6 100 80 99 71 100 100 100 100 100 100 100 100 100 100 100 100 100 100 100 100 100 100 100 99
100 100 100 100 100 100 100 100 11 25 6 5 5 8 28 5 0 0 100 92 83 100 57 98 100 100 100 100 100 100 100 100 100 100 100 100 100 100 100 100 100 100 100
100 100 100 81 87 33 42 59 5 4 4 5 5 12 5 26 76 81 36 94 100 100 68 97 100 100 100 100 100 100 100 100 100 100 100 100 100 100 100 100 100 100 100

GFSSE_prec_cloud_111.txt.gz
Cloud_Cover
0 0 0 0 0 0 0 0 0 0 0 0 0 0 0 0 0 0 0 0 0 0 0 0 0 0 0 0 0 0 0 1 0 1 4 5 7 100 100 100 100 100 99
0 0 0 0 0 0 0 0 0 0 0 0 0 0 0 0 0 0 0 0 0 0 2 0 0 0 0 0 0 0 0 0 0 0 0 3 3 8 16 64 94 99 19
0 0 0 0 0 0 0 0 0 0 0 0 0 0 0 0 0 0 0 0 0 0 0 0 0 0 17 2 0 0 0 0 0 0 0 0 0 29 11 5 5 5 17
0 0 0 0 0 0 0 0 0 0 0 0 0 0 0 0 0 0 0 0 0 1 0 0 0 0 1 5 10 6 25 1 0 0 0 0 26 47 61 22 5 7 20
0 0 0 2 2 0 0 0 0 2 0 0 0 0 0 0 0 0 0 0 0 0 0 4 5 4 23 49 78 100 100 100 97 4 0 9 17 93 48 27 25 74 68
0 0 2 19 52 3 0 0 3 85 41 0 0 0 0 0 0 0 0 0 0 0 0 92 100 3 100 100 100 100 99 100 100 100 51 31 73 22 100 100 100 100 100
1 5 5 42 100 10 0 0 0 61 95 0 0 0 0 0 0 0 0 2 0 0 4 72 19 41 100 100 100 100 96 100 56 100 16 19 100 99 98 88 99 100 100
6 5 5 46 64 4 0 0 0 0 0 4 5 0 0 0 0 0 0 2 0 30 81 5 5 100 100 100 100 100 100 97 16 6 98 98 100 100 99 78 67 49 54
18 5 20 59 98 100 4 5 12 6 0 70 69 76 0 0 0 0 0 3 2 5 5 4 2 100 98 100 100 100 100 93 88 100 100 100 100 100 57 5 6 86 99
98 57 36 80 100 100 16 0 0 0 0 0 10 85 0 0 0 0 0 0 4 4 0 0 0 0 85 100 100 100 100 100 99 40 99 100 100 100 100 100 100 80 100
100 100 92 95 100 100 89 6 1 0 0 0 0 0 52 0 0 0 0 0 0 1 1 0 18 8 28 100 100 100 100 100 100 80 26 100 100 100 100 100 63 100 100
100 100 100 100 100 100 97 11 20 9 37 23 4 8 13 4 1 0 0 0 0 10 89 24 5 5 5 80 100 100 100 100 100 98 26 98 100 100 100 100 100 100 100
100 100 96 10 100 100 100 95 16 27 26 22 4 12 10 5 3 0 1 0 2 11 100 59 62 20 11 28 16 100 100 100 100 100 100 100 90 100 100 100 100 100 100
100 100 75 99 100 100 100 100 8 0 3 3 0 0 8 19 10 0 23 12 2 7 76 61 43 19 84 6 5 100 100 100 100 100 100 97 92 100 100 100 100 100 100
100 100 85 31 100 100 100 100 26 0 0 0 0 0 0 4 1 0 9 14 6 16 11 18 7 11 28 3 1 100 100 100 100 100 100 100 95 100 100 100 100 100 100
27 100 100 19 100 100 100 100 38 5 5 1 0 2 0 5 3 2 4 3 11 5 6 3 6 24 22 10 8 46 100 100 100 100 100 93 86 100 100 100 100 100 93
5 25 100 100 69 100 100 100 95 93 56 5 5 0 5 0 1 5 7 6 1 8 11 17 38 37 43 30 3 75 100 100 100 100 100 85 100 42 99 100 95 100 100
100 47 97 92 100 100 100 100 100 100 100 24 4 5 0 4 4 5 7 3 15 21 10 29 80 100 97 90 47 98 100 100 100 100 100 81 100 100 99 99 100 100 100
100 100 11 33 100 100 100 100 100 100 100 99 6 5 4 65 38 5 0 3 90 54 33 33 82 84 100 100 98 95 100 100 100 100 100 90 100 100 100 96 77 100 100
100 94 34 4 85 100 100 100 100 100 100 75 5 3 4 7 95 7 60 30 53 80 36 86 94 99 100 82 100 100 100 100 100 100 100 100 100 100 100 100 100 100 100
78 82 5 5 65 100 100 100 100 5 100 100 97 4 4 4 30 5 24 12 13 26 100 100 100 100 100 94 100 100 100 100 100 100 100 100 100 100 100 100 100 100 100
100 100 96 99 100 100 100 32 10 88 100 100 37 5 5 5 1 5 18 15 16 37 89 100 100 100 100 92 100 100 100 100 100 100 100 100 100 100 100 100 100 100 100
79 79 92 100 100 100 100 94 32 75 100 90 27 30 51 5 2 5 5 6 52 100 46 97 100 100 100 100 88 100 100 100 100 100 100 100 100 100 100 100 100 100 100
99 100 99 27 86 100 100 100 81 80 99 100 26 7 78 5 5 5 5 12 13 18 32 100 100 83 100 100 100 100 100 100 100 100 100 100 100 100 100 100 100 100 100
14 98 100 100 100 100 100 100 100 100 100 100 79 20 11 7 31 59 23 32 37 21 76 100 100 100 100 100 100 100 100 100 100 100 100 100 100 100 100 100 100 100 100
79 37 100 100 100 100 100 100 100 100 100 47 5 9 29 4 30 47 37 28 34 70 100 100 100 100 100 100 100 100 100 100 100 100 100 100 100 100 100 100 100 100 100

GFSSE_prec_cloud_114.txt.gz
Cloud_Cover
0 0 0 0 0 0 0 0 0 0 0 0 0 0 0 0 0 0 0 0 0 0 0 0 0 0 0 0 0 0 0 3 21 4 10 14 66 56 52 100 100 100 100
0 0 0 0 0 0 0 0 0 0 0 0 0 0 0 0 0 0 0 0 0 0 0 0 0 0 0 0 0 0 0 5 5 5 5 6 86 100 99 94 100 100 100
0 0 0 0 0 0 0 0 0 0 0 0 0 0 0 0 0 0 0 0 0 0 0 0 0 10 0 0 0 1 2 0 0 4 5 4 4 100 80 92 87 88 100
0 0 0 0 0 0 0 0 0 0 0 0 0 0 0 0 0 0 0 0 0 0 0 0 8 8 0 5 0 0 25 94 4 2 0 0 28 100 38 26 4 7 53
0 0 0 0 0 0 0 5 5 1 0 0 0 0 0 0 0 0 0 0 0 0 0 23 21 1 2 70 4 25 62 96 100 91 35 0 99 100 21 22 9 84 10
7 5 43 5 3 0 0 5 7 10 0 0 0 0 0 0 0 0 0 0 0 0 0 4 24 0 5 91 66 100 100 100 100 100 47 80 60 98 85 41 100 96 100
30 100 100 83 1 0 0 15 7 6 14 0 0 0 0 0 0 0 0 0 0 0 0 0 94 17 0 82 100 100 100 66 95 100 50 98 56 100 100 100 100 100 100
100 76 29 34 5 4 6 16 5 49 38 0 0 0 0 0 0 0 0 0 0 0 0 2 3 4 5 88 100 100 100 100 98 86 95 100 100 100 100 100 100 100 98
100 28 71 100 86 10 16 17 20 84 5 6 0 0 0 0 0 0 0 0 1 0 0 0 0 5 5 44 99 100 100 100 100 56 100 100 100 100 100 100 100 94 80
100 100 100 100 100 72 43 23 86 100 34 0 5 9 0 0 0 0 0 0 0 5 0 0 0 3 4 5 22 100 100 100 100 98 59 95 100 100 100 100 100 100 100
25 100 100 98 86 100 56 57 100 100 83 0 0 10 19 3 0 0 0 0 0 0 0 0 4 5 3 8 45 100 100 100 100 100 81 98 80 100 100 100 100 100 100
87 71 100 100 100 100 86 84 100 100 98 4 2 10 26 14 7 0 0 0 0 0 0 0 18 65 41 23 23 95 100 100 100 100 100 99 100 100 100 100 99 100 100
100 100 100 100 100 100 100 100 100 100 100 55 30 32 30 26 27 18 18 6 6 0 30 39 66 36 47 17 13 97 99 100 100 100 100 100 98 100 100 100 100 100 100
100 100 100 100 100 100 100 100 100 100 100 70 47 30 46 48 40 28 19 19 3 6 83 98 98 23 5 20 86 99 84 5 100 100 100 100 100 100 100 100 100 100 100
100 100 83 100 100 89 24 100 100 100 100 98 28 29 33 48 44 17 18 15 15 19 51 100 64 27 14 13 92 82 67 26 100 100 100 100 100 100 100 100 100 100 100
98 100 68 87 72 100 90 57 100 100 100 100 67 6 16 8 10 20 26 19 18 7 28 36 38 29 16 14 6 25 10 5 100 100 100 100 100 100 100 100 100 100 100
57 100 100 100 62 40 96 41 100 100 100 100 100 30 6 60 5 8 16 39 12 18 22 34 35 35 34 17 8 10 9 5 100 100 100 100 100 100 100 100 98 100 100
84 10 94 99 100 69 87 80 99 100 100 100 100 100 92 78 5 47 59 14 22 38 25 44 83 81 42 50 29 34 27 42 97 100 100 100 100 100 100 100 100 100 100
14 5 19 100 97 100 22 27 98 100 100 100 100 100 100 80 8 100 78 13 12 40 57 72 100 100 100 100 96 66 62 66 100 100 100 100 100 100 100 100 91 100 97
36 12 0 8 99 100 96 46 47 74 100 100 100 100 100 30 33 100 91 41 17 100 97 88 100 100 100 100 100 92 78 98 98 100 100 100 100 100 100 100 100 100 100
5 29 0 0 98 100 100 100 100 5 79 100 100 100 73 9 76 58 55 20 40 100 100 100 100 100 100 100 100 100 100 100 100 100 100 100 100 100 100 100 100 100 100
33 0 2 0 25 100 100 100 100 18 45 100 93 70 9 65 10 83 42 18 45 100 100 97 100 100 100 100 100 100 100 100 100 100 100 100 100 100 100 100 100 100 100
4 5 5 5 76 100 100 100 100 100 100 100 100 100 9 47 94 72 69 20 41 36 100 100 85 100 100 100 100 100 100 100 100 100 100 100 100 100 100 100 100 100 100
2 5 5 8 100 100 100 100 100 10 27 100 100 100 92 100 100 100 84 22 32 58 82 100 67 100 100 100 100 100 91 100 100 100 100 100 100 100 100 100 100 100 100
6 14 55 36 89 94 56 100 93 62 95 69 100 100 100 100 100 83 19 27 36 36 15 44 81 100 100 100 100 98 100 100 100 100 100 100 100 100 100 100 100 100 100
100 100 5 6 10 86 100 100 100 100 100 100 100 100 100 100 97 95 44 35 30 28 13 18 87 100 100 97 97 68 100 100 100 100 100 100 100 100 100 100 100 100 100

GFSSE_prec_cloud_117.txt.gz
Cloud_Cover
1 8 0 0 0 0 0 0 0 0 0 0 0 0 0 0 0 0 0 0 0 0 6 0 0 0 0 0 0 0 0 0 0 23 76 100 81 14 25 9 53 98 100
0 10 0 0 0 0 0 0 0 0 0 0 0 0 0 0 0 0 0 0 0 0 0 0 0 0 0 0 0 0 0 2 7 79 77 100 100 100 50 5 13 18 27
0 9 0 0 0 0 0 0 0 0 0 0 0 0 0 0 0 0 0 0 0 0 3 0 0 0 0 0 0 0 0 0 5 8 82 100 100 100 34 5 5 5 20
0 8 4 0 0 0 0 0 0 0 0 0 0 0 0 0 0 4 1 0 0 0 10 3 10 0 0 0 0 5 4 0 5 51 99 12 100 100 31 12 9 3 5
0 1 1 0 0 0 3 0 0 0 0 0 0 0 0 0 0 7 0 0 0 0 11 39 89 4 0 0 0 7 10 43 5 78 100 51 100 100 12 6 3 3 5
0 0 1 0 5 6 97 20 0 0 0 0 0 0 0 0 0 0 0 0 0 0 6 78 12 0 2 1 0 2 28 35 100 84 57 77 100 100 66 38 100 70 71
10 3 3 5 8 16 3 5 17 1 0 0 0 0 0 0 0 0 0 0 0 0 0 0 0 0 0 1 3 3 32 97 100 35 100 100 100 100 100 100 100 100 100
96 24 84 33 3 5 5 18 30 10 0 0 5 4 0 0 0 0 0 0 0 0 0 0 0 0 4 1 0 11 74 100 100 86 96 100 100 100 100 100 100 100 100
100 100 100 30 13 10 21 100 95 5 7 0 5 5 0 0 0 0 0 0 0 0 0 0 2 1 5 5 5 5 42 97 100 97 100 84 100 100 100 100 100 100 100
100 100 100 56 57 54 100 100 100 38 22 11 7 5 5 0 0 0 0 0 0 0 0 0 1 5 2 59 3 6 100 100 100 100 98 68 100 100 100 100 100 100 100
100 100 100 100 79 97 100 100 44 14 14 12 11 9 22 5 0 0 0 0 0 0 0 0 2 0 15 99 54 9 18 99 76 100 100 98 100 100 100 100 100 100 100
100 100 100 100 100 89 100 100 100 100 93 74 42 37 56 25 17 0 0 0 2 0 0 0 0 15 53 81 38 12 23 90 97 100 100 100 100 100 100 100 100 100 100
100 100 100 100 100 100 74 100 100 100 100 99 15 40 94 40 36 29 33 27 12 0 27 31 59 58 29 32 24 10 5 49 100 100 100 100 100 100 100 100 100 100 100
100 100 100 100 100 100 89 100 100 100 100 96 48 38 95 84 62 44 31 31 30 33 38 41 93 31 11 0 3 5 12 32 57 100 100 100 100 100 100 100 100 100 100
100 100 100 87 100 100 100 100 82 100 100 100 100 82 100 100 99 65 33 31 27 36 82 99 100 31 16 3 2 5 66 69 5 69 97 100 100 100 100 100 100 100 100
100 100 100 12 5 18 97 100 71 44 100 100 100 100 90 100 100 100 41 40 91 23 81 100 100 34 25 18 21 65 66 28 5 10 87 100 100 100 100 100 100 100 100
6 5 100 14 5 1 15 100 100 100 83 100 100 66 72 100 100 100 87 100 100 26 30 38 45 36 36 28 14 22 92 37 5 5 46 100 100 100 100 100 100 100 100
1 5 63 99 13 4 78 83 32 56 18 100 100 100 89 100 100 100 99 94 52 80 36 44 76 100 58 34 31 28 25 15 7 14 22 52 100 100 100 100 100 100 100
5 85 56 96 100 28 15 13 11 37 36 100 100 100 100 100 100 100 87 100 100 99 83 79 98 98 100 90 76 39 40 63 20 28 59 81 100 100 100 100 100 100 100
54 5 5 100 66 90 88 15 36 85 32 96 98 100 100 100 100 55 32 95 100 98 100 100 100 100 100 100 100 100 53 83 92 54 100 100 100 100 100 100 100 100 100
78 0 0 5 64 23 77 100 100 100 83 56 99 100 100 100 100 40 46 96 81 88 100 100 100 100 100 100 100 100 100 91 100 76 100 100 100 100 100 100 100 100 100
4 5 0 7 9 69 100 100 100 100 100 38 54 100 100 81 68 55 97 100 88 100 100 100 100 100 100 100 100 100 100 100 100 100 100 100 100 100 100 100 100 100 100
2 5 3 6 94 73 100 66 92 100 62 98 100 100 100 100 100 100 100 96 99 100 100 100 100 85 100 100 100 100 100 100 100 100 100 100 100 100 100 100 100 100 100
5 5 5 7 96 98 90 89 99 80 84 100 100 100 100 91 91 100 100 100 100 100 100 94 100 99 73 100 100 100 100 100 100 100 100 100 100 100 100 100 100 100 100
26 7 88 18 59 100 100 85 80 100 100 99 95 100 100 100 92 73 100 100 100 99 100 100 100 100 96 100 100 100 100 100 98 100 100 100 100 100 100 100 100 100 100
100 100 100 100 68 100 100 100 97 100 100 100 100 100 100 100 100 100 100 100 100 99 100 100 100 99 100 100 100 100 100 100 88 99 100 100 100 100 100 100 100 100 100

GFSSE_prec_cloud_120.txt.gz
Cloud_Cover
0 7 0 23 0 0 0 0 0 0 0 0 6 0 0 0 0 0 0 0 0 0 5 0 0 0 0 0 0 0 1 4 2 2 80 53 48 47 32 57 100 100 99
0 7 0 22 0 0 0 0 0 0 0 0 0 0 0 0 0 0 1 0 0 0 1 0 0 0 0 0 0 0 0 1 3 0 5 59 24 100 62 98 97 100 14
0 1 2 17 5 0 0 0 0 0 0 0 0 0 0 0 0 0 0 0 0 0 3 0 0 0 0 0 0 0 0 0 2 5 65 80 43 100 64 75 86 99 24
0 1 16 20 7 0 0 0 0 5 0 0 0 0 0 0 0 0 0 0 0 0 12 8 1 0 0 0 0 0 0 0 1 1 4 100 100 100 88 19 5 5 5
12 29 19 14 3 4 0 0 2 4 12 0 0 0 0 0 1 5 0 0 0 0 8 97 21 0 0 0 0 0 0 0 2 5 4 42 100 100 100 99 5 10 5
5 94 12 4 5 1 0 0 1 0 0 0 0 0 0 7 8 5 0 0 13 0 89 100 49 0 0 0 0 0 1 0 2 17 83 51 100 100 100 100 99 91 100
25 100 81 8 41 5 5 5 4 0 0 0 0 0 0 12 7 0 0 0 0 1 0 0 0 0 0 0 0 0 0 0 2 97 56 98 99 100 100 100 100 100 100
26 100 100 62 100 71 5 35 5 1 5 4 4 0 0 3 5 0 0 0 0 0 0 0 0 0 0 0 0 0 0 1 5 78 97 81 75 100 100 100 100 100 100
47 100 100 100 100 75 12 93 11 5 5 6 94 0 0 0 4 5 0 0 0 0 0 0 0 0 1 1 5 5 5 5 14 100 73 66 100 100 100 100 100 100 100
88 100 100 100 100 99 100 100 100 93 5 6 5 4 0 0 0 5 5 0 0 0 0 0 0 0 0 0 2 5 0 0 5 36 8 49 100 100 100 100 100 100 100
68 100 100 100 88 98 100 100 100 100 85 100 78 5 15 6 2 5 34 4 0 0 0 0 1 2 30 20 0 0 2 3 5 6 24 98 100 100 100 100 100 100 100
100 100 100 100 100 100 100 100 67 75 100 100 100 81 35 25 20 7 60 5 4 0 0 0 0 7 100 100 61 10 15 3 2 18 10 100 100 100 100 100 100 100 100
15 100 100 100 100 100 100 100 100 100 100 100 100 97 85 39 32 35 58 41 17 4 37 30 51 99 63 80 45 37 20 4 6 18 29 58 79 100 100 100 100 100 100
16 10 100 100 100 100 99 100 100 100 100 100 100 98 100 98 82 47 49 68 89 34 37 63 98 53 24 18 10 4 1 6 14 14 99 26 51 100 100 100 100 100 100
0 8 18 100 100 98 100 100 100 100 100 100 100 92 100 100 100 79 37 100 100 98 65 48 84 41 25 56 45 0 0 0 4 86 79 100 97 100 100 100 100 100 100
0 0 5 79 100 100 81 90 100 100 100 100 100 100 100 100 100 100 74 100 100 100 97 86 100 48 35 90 81 10 1 0 0 44 95 99 100 100 100 100 100 100 100
0 0 1 5 22 100 28 39 94 100 100 100 100 100 100 100 100 100 100 100 100 100 100 100 100 50 35 75 31 34 42 39 88 0 81 65 100 96 100 100 100 100 100
0 0 0 10 11 32 87 53 92 57 79 84 87 100 100 100 100 97 100 100 100 100 100 99 100 100 64 45 38 32 53 33 0 0 8 14 18 13 100 100 100 100 100
36 20 2 26 100 42 22 68 19 81 42 100 97 51 97 100 82 100 100 96 95 100 100 100 99 97 100 100 52 33 42 37 17 13 22 24 22 18 30 100 100 100 100
0 0 0 12 100 43 8 23 30 72 100 99 37 25 79 92 100 100 100 79 72 99 100 100 100 100 100 98 100 100 65 35 47 48 32 36 53 79 50 100 100 100 100
8 0 0 12 93 53 76 83 99 100 99 99 93 35 79 100 99 99 100 65 98 100 100 100 100 100 100 100 100 100 100 100 56 100 100 58 67 100 100 100 100 100 100
41 5 1 6 100 63 61 96 97 100 98 91 100 88 100 100 56 73 100 98 100 100 100 100 99 100 100 99 100 100 100 100 100 100 62 92 90 100 99 100 100 100 93
5 5 0 77 100 90 36 100 100 89 88 100 100 100 92 47 46 93 100 93 100 100 100 100 98 100 99 100 74 84 96 76 100 100 100 98 100 100 100 100 100 100 99
4 0 62 100 100 100 100 100 100 100 100 100 98 96 60 60 100 100 100 100 100 100 100 90 100 100 100 100 100 88 75 100 100 100 97 83 100 99 100 100 100 100 100
2 11 87 100 100 100 100 100 100 100 99 100 82 96 96 100 100 100 100 100 100 100 100 71 100 100 92 100 100 98 100 100 100 99 100 100 100 100 99 100 100 100 100
89 50 100 100 100 100 100 100 100 100 91 96 88 100 78 100 100 100 100 100 100 100 100 100 100 100 91 87 99 34 100 84 100 100 100 100 100 100 100 100 100 100 100

GFSSE_prec_cloud_123.txt.gz
Cloud_Cover
0 0 4 8 0 0 0 0 0 0 2 0 0 0 0 0 0 0 0 0 0 0 0 0 0 0 0 0 0 0 0 0 4 5 3 42 100 99 100 88 73 99 83
0 0 11 2 0 0 0 0 0 0 11 2 0 0 0 0 0 0 0 0 0 0 1 0 0 0 0 0 0 0 0 1 5 3 69 97 48 53 65 64 74 60 99
0 0 1 2 3 4 0 0 0 0 0 0 0 0 0 0 0 0 0 0 0 0 7 0 0 0 0 0 0 0 0 0 0 2 5 59 65 39 16 95 56 100 51
0 0 0 12 1 1 0 0 0 0 1 0 0 0 0 0 6 0 0 0 0 0 0 0 0 0 0 0 0 0 0 0 0 0 30 29 48 54 57 100 72 76 6
0 0 0 4 0 1 5 3 0 0 0 0 0 0 0 0 7 0 0 0 0 0 0 6 12 0 0 0 0 0 0 0 0 14 52 45 36 20 96 58 100 100 60
0 0 33 10 4 0 5 5 2 5 0 0 0 0 0 0 2 0 3 0 0 0 48 46 10 0 0 0 0 0 0 0 0 43 52 83 45 13 24 100 100 100 100
0 0 2 8 11 1 2 1 5 5 5 5 5 0 0 1 4 2 5 6 0 0 100 20 0 0 0 0 0 0 0 0 30 41 41 41 42 97 100 100 100 100 100
3 10 1 19 18 9 0 5 15 80 36 52 5 1 0 8 6 0 5 4 3 0 0 0 0 0 0 0 0 0 0 0 5 10 9 7 96 100 100 100 100 100 100
25 20 35 99 28 18 5 4 16 100 100 98 5 9 4 1 0 0 0 0 5 4 0 0 0 0 0 0 0 3 4 2 4 0 4 27 31 86 100 100 100 100 100
25 25 27 69 41 45 30 16 70 100 100 91 100 91 5 7 5 0 0 0 3 83 3 0 0 0 0 0 0 0 0 4 20 1 5 26 8 60 100 100 100 100 100
40 28 47 41 51 96 74 45 41 96 100 100 100 97 71 58 41 5 3 4 5 6 29 3 0 0 0 6 0 0 0 0 0 2 5 5 28 99 100 100 100 100 100
3 30 22 27 28 39 100 98 92 98 58 97 100 18 62 100 29 40 5 5 5 85 25 5 5 51 74 61 21 13 0 0 0 0 10 5 97 100 100 100 100 100 99
6 22 41 35 24 29 27 82 100 100 100 100 100 56 55 95 100 52 52 29 31 98 37 23 73 18 95 100 42 23 1 0 0 0 2 2 97 100 100 100 100 100 100
0 0 25 84 64 72 46 74 78 97 100 100 100 100 100 89 100 98 58 71 65 98 40 97 100 100 22 11 10 16 7 0 0 0 5 5 6 15 100 100 100 100 100
17 0 1 92 100 100 93 78 100 97 100 100 100 100 100 94 99 68 61 98 74 70 53 100 100 100 57 5 5 5 2 0 0 0 2 5 24 16 98 100 100 100 100
5 4 0 12 75 100 100 66 100 98 92 100 100 100 100 100 100 100 85 76 100 65 81 100 100 100 82 6 5 5 99 22 0 0 1 5 26 96 79 100 100 100 100
53 13 0 0 33 58 87 58 77 100 100 100 100 100 100 100 100 100 100 96 56 95 97 95 100 100 100 41 7 32 100 15 0 0 0 13 36 100 100 100 100 100 100
66 27 5 0 0 36 10 52 81 100 100 100 100 100 100 100 100 100 100 100 77 100 100 100 100 100 100 42 24 13 6 49 21 0 0 0 11 56 100 100 96 100 100
0 2 0 4 0 2 5 13 40 70 100 100 100 100 100 100 100 100 100 100 100 93 100 100 100 100 100 99 57 50 39 49 88 20 0 0 10 5 32 92 94 100 100
0 0 0 0 6 3 5 31 38 41 39 62 96 48 98 100 100 100 100 100 100 100 100 100 100 100 96 91 76 67 96 84 89 46 58 31 26 31 9 22 55 92 100
0 0 0 36 10 53 17 13 5 8 23 92 10 38 12 43 100 100 100 100 100 100 100 100 100 100 100 90 100 100 100 100 100 100 99 41 49 73 71 100 78 74 100
0 0 0 29 87 71 7 4 2 9 17 92 67 81 93 100 74 43 94 100 100 100 100 100 100 100 100 100 100 100 100 82 100 76 70 95 88 76 82 66 64 100 94
0 4 5 6 76 100 69 81 89 72 68 91 87 100 100 76 35 6 42 66 100 100 100 100 91 100 100 100 100 57 93 71 51 90 100 100 100 100 87 56 74 100 100
62 53 72 5 3 64 100 100 100 58 100 100 100 100 100 100 75 32 52 100 100 100 100 100 100 100 88 100 100 96 49 24 9 10 91 71 99 95 46 100 64 79 100
100 100 92 62 54 85 57 100 100 100 99 100 100 100 100 100 100 100 100 100 100 100 100 100 100 100 97 100 100 100 97 89 91 37 83 66 85 52 74 100 76 100 100
100 100 100 98 98 100 97 99 100 100 100 100 100 100 100 100 100 100 100 100 100 100 100 100 100 83 100 100 100 100 97 99 98 89 56 87 61 66 80 99 100 100 100

GFSSE_prec_cloud_126.txt.gz
Cloud_Cover
0 0 2 1 0 0 0 0 0 0 0 0 0 0 0 0 0 0 0 0 0 0 0 0 0 0 0 0 0 0 0 0 0 2 3 3 90 100 64 100 95 51 93
0 0 12 0 0 0 0 0 0 0 0 0 0 0 0 0 0 0 0 0 0 0 0 0 0 0 0 0 0 0 0 0 0 3 1 13 100 100 42 45 71 77 59
0 0 2 0 0 0 0 0 0 0 0 0 0 0 0 0 0 0 0 0 0 0 0 0 0 0 0 0 0 0 0 0 0 0 0 58 35 46 8 45 14 6 46
0 0 0 3 0 0 0 0 0 7 7 0 0 0 0 0 0 0 0 0 0 0 0 0 0 0 0 0 0 0 0 0 0 0 9 86 85 2 5 81 100 100 100
0 0 0 1 0 0 0 0 0 0 9 1 0 0 0 0 0 0 0 0 0 2 0 0 0 0 0 0 0 0 0 0 0 1 100 95 35 23 5 5 97 100 100
0 0 57 5 0 0 0 0 0 0 0 0 0 1 0 0 0 0 0 0 2 98 5 3 0 0 0 0 0 0 0 0 14 89 94 28 30 16 100 100 100 100 100
0 0 3 6 0 0 1 0 0 4 5 5 5 5 4 0 0 0 0 0 3 14 6 4 0 0 0 0 0 0 0 0 52 100 91 58 31 100 100 100 100 100 100
0 0 3 24 0 0 0 3 1 4 21 5 5 5 4 0 4 0 5 4 0 2 6 91 6 0 0 0 0 0 0 0 10 79 33 58 100 100 100 100 100 100 100
0 19 19 0 1 41 0 4 5 5 28 56 11 5 5 5 5 5 2 4 3 0 3 54 93 0 0 0 0 0 0 0 45 21 29 66 61 94 98 100 100 100 100
14 17 37 13 0 0 0 8 0 5 5 5 89 100 77 12 83 42 5 6 19 3 7 99 82 5 3 0 0 0 0 10 73 81 33 44 16 78 100 100 100 100 100
25 28 57 24 13 3 4 5 53 26 3 59 53 60 99 99 100 87 5 13 5 100 69 38 100 5 5 9 0 0 11 21 92 75 25 22 5 37 100 100 100 100 100
30 29 16 16 2 24 9 23 7 4 0 4 6 91 91 99 100 100 9 25 51 72 100 94 99 24 67 4 9 47 1 52 25 96 18 5 5 58 100 100 100 100 100
10 31 17 36 20 6 0 10 19 0 39 10 24 94 100 100 100 100 61 82 72 15 5 21 96 100 96 52 18 14 29 9 39 92 2 0 0 7 100 100 100 100 100
20 44 63 13 29 11 0 0 1 9 71 25 9 33 37 71 99 100 87 82 100 62 74 27 57 100 100 96 10 18 7 6 34 76 33 0 0 4 100 100 100 100 100
100 100 79 6 20 22 11 0 0 2 45 100 100 98 90 31 53 68 93 98 100 96 94 96 99 100 100 100 100 6 3 7 6 20 92 3 0 0 86 100 100 100 100
100 100 100 99 64 28 6 29 2 0 2 51 97 99 91 14 36 18 84 95 100 72 100 99 70 100 100 100 100 69 5 12 12 23 58 62 0 0 4 100 100 100 100
100 77 96 100 100 100 100 100 98 60 0 0 30 100 100 46 37 99 56 100 100 100 99 93 98 90 100 100 100 100 11 5 1 68 12 58 66 99 66 11 100 100 100
96 46 48 100 100 100 95 62 100 17 5 0 27 21 100 99 37 100 100 100 100 100 100 100 93 100 100 100 100 100 62 54 59 43 56 62 84 30 68 12 99 100 100
12 91 88 99 52 100 100 12 48 5 65 4 4 0 35 100 93 71 100 100 91 98 100 100 100 100 100 100 99 100 98 90 54 40 99 100 85 19 71 41 95 100 100
57 80 100 100 78 95 28 31 3 5 12 3 9 0 0 90 100 100 100 100 100 100 100 100 97 100 100 100 100 100 100 98 88 91 96 100 100 100 66 57 43 84 100
100 100 100 87 47 100 19 5 0 0 5 0 6 0 0 84 100 100 60 88 100 100 100 100 98 100 100 100 100 70 60 69 97 56 59 56 60 50 46 76 81 74 67
100 100 20 11 24 20 34 5 0 0 3 2 0 0 0 2 76 100 85 100 100 100 100 100 100 100 100 100 99 91 100 99 84 67 83 43 18 43 88 98 82 98 91
19 58 5 13 26 26 72 89 20 0 2 7 2 3 5 44 44 92 91 61 54 22 91 100 100 100 100 98 97 100 100 100 11 40 96 90 41 100 99 100 100 97 75
96 90 58 28 64 98 94 100 86 99 95 26 8 5 26 21 5 64 92 48 42 100 31 100 100 100 100 100 100 100 81 72 19 92 49 80 100 100 100 100 67 100 78
100 100 100 100 100 100 100 92 100 100 100 100 98 85 100 100 75 97 100 42 55 100 98 100 100 100 100 100 100 100 100 92 100 100 92 45 50 55 52 91 100 100 87
100 100 100 100 100 100 100 100 100 100 100 100 99 100 100 100 100 100 100 100 100 100 100 100 100 100 100 100 100 100 94 100 100 97 100 97 37 73 87 89 100 83 99

GFSSE_prec_cloud_129.txt.gz
Cloud_Cover
4 3 1 0 0 0 0 0 2 4 0 0 0 0 0 0 0 0 0 0 0 0 0 0 0 0 0 0 0 0 0 0 0 1 1 15 9 97 75 87 55 100 100
2 0 20 1 0 0 0 0 0 0 0 0 0 0 0 0 0 0 0 0 0 0 0 0 0 0 0 0 0 0 0 0 0 2 1 3 8 87 93 100 85 100 95
0 0 1 0 0 0 0 0 0 0 0 0 0 0 0 0 0 0 0 0 0 0 0 0 0 0 0 0 0 0 0 0 0 0 0 14 27 5 8 5 29 83 40
0 0 0 0 0 0 0 0 0 0 0 0 0 0 0 0 0 0 0 0 0 0 0 0 0 0 0 0 0 0 0 0 0 0 4 83 16 83 39 5 8 100 98
0 0 0 0 0 0 0 0 0 0 0 0 0 0 0 0 0 0 0 0 0 0 0 0 3 0 0 0 0 0 0 0 0 0 97 43 78 100 88 81 100 100 100
0 0 61 0 0 0 0 0 0 0 0 0 0 0 0 0 0 2 3 0 0 0 0 1 5 5 0 0 0 0 0 0 31 50 67 25 19 18 100 100 100 100 100
0 16 0 0 0 0 0 0 0 0 0 0 0 0 2 4 2 0 5 0 0 1 0 0 5 30 5 2 0 0 0 0 14 41 100 78 96 96 100 100 100 100 100
13 26 7 20 0 0 0 0 0 0 0 0 0 0 5 4 12 7 0 0 0 4 3 2 0 4 61 5 0 0 0 6 6 96 100 100 22 80 100 100 100 100 100
3 19 71 18 1 44 0 0 0 0 0 0 1 0 3 5 5 5 4 5 5 5 5 5 21 7 98 5 3 1 0 3 4 42 59 59 2 73 100 100 100 100 100
32 47 100 80 15 0 1 8 0 0 0 0 0 5 5 7 9 98 88 59 100 94 50 98 100 66 58 25 0 5 3 0 35 100 28 52 4 58 93 98 100 100 100
10 56 100 100 70 8 1 4 53 26 1 9 16 13 68 5 38 100 90 100 100 84 57 100 100 100 13 100 5 5 15 8 100 67 46 28 2 8 100 100 100 100 100
5 44 56 100 98 62 16 13 0 0 0 0 0 0 0 3 22 100 88 100 100 99 66 100 100 91 78 42 83 47 2 62 47 68 54 2 0 2 8 100 100 100 100
5 5 51 98 100 91 13 15 13 2 2 2 4 6 5 27 99 94 99 100 100 99 13 100 100 57 14 73 100 100 95 96 74 100 100 0 0 0 5 98 100 100 100
5 9 79 100 100 37 4 6 4 4 3 2 12 1 8 10 52 89 100 95 100 77 26 100 100 16 6 21 100 100 100 100 100 100 14 0 0 0 0 4 100 100 100
100 90 68 90 95 83 98 100 66 5 3 0 0 0 15 4 9 12 34 54 86 100 95 100 92 50 92 100 98 100 100 100 39 100 92 32 0 0 0 0 88 100 100
34 65 47 66 100 94 100 100 100 22 5 0 35 14 0 0 16 18 45 13 83 39 67 100 100 100 100 86 86 100 100 100 100 100 100 98 25 0 0 0 13 100 100
100 100 100 100 100 100 100 100 100 100 36 36 96 21 69 2 0 0 24 75 20 10 71 99 100 100 100 100 100 100 100 100 100 96 100 86 100 85 0 0 0 85 100
100 100 100 100 100 100 100 100 100 100 100 100 68 24 100 51 4 0 2 5 47 24 38 100 100 90 95 100 100 100 100 100 100 97 100 100 100 100 90 1 3 5 96
100 99 100 98 100 100 100 100 100 99 100 100 77 16 73 100 12 36 32 33 94 34 22 99 100 100 24 71 100 100 100 64 95 99 100 100 100 100 95 38 0 5 5
100 98 3 75 100 100 100 100 74 5 75 100 100 87 8 91 80 17 84 100 80 31 79 58 99 95 93 42 100 100 100 100 100 100 100 93 100 96 100 59 5 5 5
5 88 100 80 100 98 100 78 100 14 100 100 100 100 5 5 89 82 48 96 100 100 100 100 100 100 92 89 100 100 100 52 80 75 100 100 100 100 93 79 5 55 29
31 20 95 98 100 100 100 100 100 100 100 100 100 24 5 3 4 99 95 2 100 100 100 100 100 100 98 73 100 69 100 98 48 79 64 27 36 91 97 100 33 10 24
84 32 12 100 100 100 100 100 100 100 69 5 3 47 94 95 93 67 96 0 87 99 62 69 100 100 98 34 100 44 99 100 100 100 100 20 6 14 68 96 88 66 45
100 99 99 100 72 36 31 51 100 100 44 93 98 100 100 100 100 100 72 20 33 20 98 98 53 100 100 99 100 100 100 100 100 100 24 68 84 98 7 81 100 51 57
100 100 100 100 100 99 60 100 81 100 99 100 100 100 100 100 100 100 92 46 6 1 100 30 12 100 100 81 100 100 100 100 100 100 100 100 100 86 99 93 97 67 83
100 100 100 100 100 98 93 100 90 100 100 100 100 100 100 100 100 100 100 100 88 39 36 12 50 98 100 100 100 100 100 100 100 100 97 100 88 74 68 91 100 26 28